[[{"header":{"parameterUnit":"m.s-1","parameterCategory":1,"la1":30.6,"la2":28.766,"lo1":-90.7593,"lo2":-88.6598,"dy":0.0162,"dx":0.0183,"nx":116,"ny":114,"refTime":"2023-11-15T18:00:00:Z","depth":0,"parameterNumber":2,"parameterNumberName":"U-component_of_WINDS"},"data":[0.0,0.0,0.0,0.0,0.0,0.0,0.0,0.0,0.0,0.0,0.0,0.0,0.0,0.0,0.0,0.0,0.0,0.0,0.0,0.0,0.0,0.0,0.0,0.0,0.0,0.0,0.0,0.0,0.0,0.0,0.0,0.0,0.0,0.0,0.0,0.0,0.0,0.0,0.0,0.0,0.0,0.0,0.0,0.0,0.0,0.0,0.0,0.0,0.0,0.0,0.0,0.0,0.0,0.0,0.0,0.0,0.0,0.0,0.0,0.0,0.0,0.0,0.0,0.0,0.0,0.0,0.0,0.0,0.0,0.0,0.0,0.0,0.0,0.0,0.0,0.0,0.0,0.0,0.0,0.0,0.0,0.0,0.0,0.0,0.0,0.0,0.0,0.0,0.0,0.0,0.0,0.0,0.0,0.0,0.0,0.0,0.0,0.0,0.0,0.0,0.0,0.0,0.0,0.0,0.0,0.0,0.0,0.0,0.0,0.0,0.0,0.0,0.0,0.0,0.0,0.0,0.0,0.0,0.0,0.0,0.0,0.0,0.0,0.0,0.0,0.0,0.0,0.0,0.0,0.0,0.0,0.0,0.0,0.0,0.0,0.0,0.0,0.0,0.0,0.0,0.0,0.0,0.0,0.0,0.0,0.0,0.0,0.0,0.0,0.0,0.0,0.0,0.0,0.0,0.0,0.0,0.0,0.0,0.0,0.0,0.0,0.0,0.0,0.0,0.0,0.0,0.0,0.0,0.0,0.0,0.0,0.0,0.0,0.0,0.0,0.0,0.0,0.0,0.0,0.0,0.0,0.0,0.0,0.0,0.0,0.0,0.0,0.0,0.0,0.0,0.0,0.0,0.0,0.0,0.0,0.0,0.0,0.0,0.0,0.0,0.0,0.0,0.0,0.0,0.0,0.0,0.0,0.0,0.0,0.0,0.0,0.0,0.0,0.0,0.0,0.0,0.0,0.0,0.0,0.0,0.0,0.0,0.0,0.0,0.0,0.0,0.0,0.0,0.0,0.0,0.0,0.0,0.0,0.0,0.0,0.0,0.0,0.0,0.0,0.0,0.0,0.0,0.0,0.0,0.0,0.0,0.0,0.0,0.0,0.0,0.0,0.0,0.0,0.0,0.0,0.0,0.0,0.0,0.0,0.0,0.0,0.0,0.0,0.0,0.0,0.0,0.0,0.0,0.0,0.0,0.0,0.0,0.0,0.0,0.0,0.0,0.0,0.0,0.0,0.0,0.0,0.0,0.0,0.0,0.0,0.0,0.0,0.0,0.0,0.0,0.0,0.0,0.0,0.0,0.0,0.0,0.0,0.0,0.0,0.0,0.0,0.0,0.0,0.0,0.0,0.0,0.0,0.0,0.0,0.0,0.0,0.0,0.0,0.0,0.0,0.0,0.0,0.0,0.0,0.0,0.0,0.0,0.0,0.0,0.0,0.0,0.0,0.0,0.0,0.0,0.0,0.0,0.0,0.0,0.0,0.0,0.0,0.0,0.0,0.0,0.0,0.0,0.0,0.0,0.0,0.0,0.0,0.0,0.0,0.0,0.0,0.0,0.0,0.0,0.0,0.0,0.0,0.0,0.0,0.0,0.0,0.0,0.0,0.0,0.0,0.0,0.0,0.0,0.0,0.0,0.0,0.0,0.0,0.0,0.0,0.0,0.0,0.0,0.0,0.0,0.0,0.0,0.0,0.0,0.0,0.0,0.0,0.0,0.0,0.0,0.0,0.0,0.0,0.0,0.0,0.0,0.0,0.0,0.0,0.0,0.0,0.0,0.0,0.0,0.0,0.0,0.0,0.0,0.0,0.0,0.0,0.0,0.0,0.0,0.0,0.0,0.0,0.0,0.0,0.0,0.0,0.0,0.0,0.0,0.0,0.0,0.0,0.0,0.0,0.0,0.0,0.0,0.0,0.0,0.0,0.0,0.0,0.0,0.0,0.0,0.0,0.0,0.0,0.0,0.0,0.0,0.0,0.0,0.0,0.0,0.0,0.0,0.0,0.0,0.0,0.0,0.0,0.0,0.0,0.0,0.0,0.0,0.0,0.0,0.0,0.0,0.0,0.0,0.0,0.0,0.0,0.0,0.0,0.0,0.0,0.0,0.0,0.0,0.0,0.0,0.0,0.0,0.0,0.0,0.0,0.0,0.0,0.0,0.0,0.0,0.0,0.0,0.0,0.0,0.0,0.0,0.0,0.0,0.0,0.0,0.0,0.0,0.0,0.0,0.0,0.0,0.0,0.0,0.0,0.0,0.0,0.0,0.0,0.0,0.0,0.0,0.0,0.0,0.0,0.0,0.0,0.0,0.0,0.0,0.0,0.0,0.0,0.0,0.0,0.0,0.0,0.0,0.0,0.0,0.0,0.0,0.0,0.0,0.0,0.0,0.0,0.0,0.0,0.0,0.0,0.0,0.0,0.0,0.0,0.0,0.0,0.0,0.0,0.0,0.0,0.0,0.0,0.0,0.0,0.0,0.0,0.0,0.0,0.0,0.0,0.0,0.0,0.0,0.0,0.0,0.0,0.0,0.0,0.0,0.0,0.0,0.0,0.0,0.0,0.0,0.0,0.0,0.0,0.0,0.0,0.0,0.0,0.0,0.0,0.0,0.0,0.0,0.0,0.0,0.0,0.0,0.0,0.0,0.0,0.0,0.0,0.0,0.0,0.0,0.0,0.0,0.0,0.0,0.0,0.0,0.0,0.0,0.0,0.0,0.0,0.0,0.0,0.0,0.0,0.0,0.0,0.0,0.0,0.0,0.0,0.0,0.0,0.0,0.0,0.0,0.0,0.0,0.0,0.0,0.0,0.0,0.0,0.0,0.0,0.0,0.0,0.0,0.0,0.0,0.0,0.0,0.0,0.0,0.0,0.0,0.0,0.0,0.0,0.0,0.0,0.0,0.0,0.0,0.0,0.0,0.0,0.0,0.0,0.0,0.0,0.0,0.0,0.0,0.0,0.0,0.0,0.0,0.0,0.0,0.0,0.0,0.0,0.0,0.0,0.0,0.0,0.0,0.0,0.0,0.0,0.0,0.0,0.0,0.0,0.0,0.0,0.0,0.0,0.0,0.0,0.0,0.0,0.0,0.0,0.0,0.0,0.0,0.0,0.0,0.0,0.0,0.0,0.0,0.0,0.0,0.0,0.0,0.0,0.0,0.0,0.0,0.0,0.0,0.0,0.0,0.0,0.0,0.0,0.0,0.0,0.0,0.0,0.0,0.0,0.0,0.0,0.0,0.0,0.0,0.0,0.0,0.0,0.0,0.0,0.0,0.0,0.0,0.0,0.0,0.0,0.0,0.0,0.0,0.0,0.0,0.0,0.0,0.0,0.0,0.0,0.0,0.0,0.0,0.0,0.0,0.0,0.0,0.0,0.0,0.0,0.0,0.0,0.0,0.0,0.0,0.0,0.0,0.0,0.0,0.0,0.0,0.0,0.0,0.0,0.0,0.0,0.0,0.0,0.0,0.0,0.0,0.0,0.0,0.0,0.0,0.0,0.0,0.0,0.0,0.0,0.0,0.0,0.0,0.0,0.0,0.0,0.0,0.0,0.0,0.0,0.0,0.0,0.0,0.0,0.0,0.0,0.0,0.0,0.0,0.0,0.0,0.0,0.0,0.0,0.0,0.0,0.0,0.0,0.0,0.0,0.0,0.0,0.0,0.0,0.0,0.0,0.0,0.0,0.0,0.0,0.0,0.0,0.0,0.0,0.0,0.0,0.0,0.0,0.0,0.0,0.0,0.0,0.0,0.0,0.0,0.0,0.0,0.0,0.0,0.0,0.0,0.0,0.0,0.0,0.0,0.0,0.0,0.0,0.0,0.0,0.0,0.0,0.0,0.0,0.0,0.0,0.0,0.0,0.0,0.0,0.0,0.0,0.0,0.0,0.0,0.0,0.0,0.0,0.0,0.0,0.0,0.0,0.0,0.0,0.0,0.0,0.0,0.0,0.0,0.0,0.0,0.0,0.0,0.0,0.0,0.0,0.0,0.0,0.0,0.0,0.0,0.0,0.0,0.0,0.0,0.0,0.0,0.0,0.0,0.0,0.0,0.0,0.0,0.0,0.0,0.0,0.0,0.0,0.0,0.0,0.0,0.0,0.0,0.0,0.0,0.0,0.0,0.0,0.0,0.0,0.0,0.0,0.0,0.0,0.0,0.0,0.0,0.0,0.0,0.0,0.0,0.0,0.0,0.0,0.0,0.0,0.0,0.0,0.0,0.0,0.0,0.0,0.0,0.0,0.0,0.0,0.0,0.0,0.0,0.0,0.0,0.0,0.0,0.0,0.0,0.0,0.0,0.0,0.0,0.0,0.0,0.0,0.0,0.0,0.0,0.0,0.0,0.0,0.0,0.0,0.0,0.0,0.0,0.0,0.0,0.0,0.0,0.0,0.0,0.0,0.0,0.0,0.0,0.0,0.0,0.0,0.0,0.0,0.0,0.0,0.0,0.0,0.0,0.0,0.0,0.0,0.0,0.0,0.0,0.0,0.0,0.0,0.0,0.0,0.0,0.0,0.0,0.0,0.0,0.0,0.0,0.0,0.0,0.0,0.0,0.0,0.0,0.0,0.0,0.0,0.0,0.0,0.0,0.0,0.0,0.0,0.0,0.0,0.0,0.0,0.0,0.0,0.0,0.0,0.0,0.0,0.0,0.0,0.0,0.0,0.0,0.0,0.0,0.0,0.0,0.0,0.0,0.0,0.0,0.0,0.0,0.0,0.0,0.0,0.0,0.0,0.0,0.0,0.0,0.0,0.0,0.0,0.0,0.0,0.0,0.0,0.0,0.0,0.0,0.0,0.0,0.0,0.0,0.0,0.0,0.0,0.0,0.0,0.0,0.0,0.0,0.0,0.0,0.0,0.0,0.0,0.0,0.0,0.0,0.0,0.0,0.0,0.0,0.0,0.0,0.0,0.0,0.0,0.0,0.0,0.0,0.0,0.0,0.0,0.0,0.0,0.0,0.0,0.0,0.0,0.0,0.0,0.0,0.0,0.0,0.0,0.0,0.0,0.0,0.0,0.0,0.0,0.0,0.0,0.0,0.0,0.0,0.0,0.0,0.0,0.0,0.0,0.0,0.0,0.0,0.0,0.0,0.0,0.0,0.0,0.0,0.0,0.0,0.0,0.0,0.0,0.0,0.0,0.0,0.0,0.0,0.0,0.0,0.0,0.0,0.0,0.0,0.0,0.0,0.0,0.0,0.0,0.0,0.0,0.0,0.0,0.0,0.0,0.0,0.0,0.0,0.0,0.0,0.0,0.0,0.0,0.0,0.0,0.0,0.0,0.0,0.0,0.0,0.0,0.0,0.0,0.0,0.0,0.0,0.0,0.0,0.0,0.0,0.0,0.0,0.0,0.0,0.0,0.0,0.0,0.0,0.0,0.0,0.0,0.0,0.0,0.0,0.0,0.0,0.0,0.0,0.0,0.0,0.0,0.0,0.0,0.0,0.0,0.0,0.0,0.0,0.0,0.0,0.0,0.0,0.0,0.0,0.0,0.0,0.0,0.0,0.0,0.0,0.0,0.0,0.0,0.0,0.0,0.0,0.0,0.0,0.0,0.0,0.0,0.0,0.0,0.0,0.0,0.0,0.0,0.0,0.0,0.0,0.0,0.0,0.0,0.0,0.0,0.0,0.0,0.0,0.0,0.0,0.0,0.0,0.0,0.0,0.0,0.0,0.0,0.0,0.0,0.0,0.0,0.0,0.0,0.0,0.0,0.0,0.0,0.0,0.0,0.0,0.0,0.0,0.0,0.0,0.0,0.0,0.0,0.0,0.0,0.0,0.0,0.0,0.0,0.0,0.0,0.0,0.0,0.0,0.0,0.0,0.0,0.0,0.0,0.0,0.0,0.0,0.0,0.0,0.0,0.0,0.0,0.0,0.0,0.0,0.0,0.0,0.0,0.0,0.0,0.0,0.0,0.0,0.0,0.0,0.0,0.0,0.0,0.0,0.0,0.0,0.0,0.0,0.0,0.0,0.0,0.0,0.0,0.0,0.0,0.0,0.0,0.0,0.0,0.0,0.0,0.0,0.0,0.0,0.0,0.0,0.0,0.0,0.0,0.0,0.0,0.0,0.0,0.0,0.0,0.0,0.0,0.0,3.9379,3.7715,0.0,0.0,0.0,0.0,0.0,0.0,0.0,0.0,0.0,0.0,0.0,0.0,0.0,0.0,0.0,0.0,0.0,0.0,0.0,0.0,0.0,0.0,0.0,0.0,0.0,0.0,0.0,0.0,0.0,0.0,0.0,0.0,0.0,0.0,0.0,0.0,0.0,3.6794,3.7205,3.8737,4.1235,3.9985,3.8999,3.8233,0.0,0.0,0.0,0.0,0.0,0.0,0.0,0.0,0.0,0.0,0.0,0.0,0.0,0.0,0.0,0.0,0.0,0.0,0.0,0.0,0.0,0.0,0.0,0.0,0.0,0.0,0.0,0.0,0.0,0.0,0.0,0.0,0.0,0.0,0.0,0.0,0.0,0.0,0.0,0.0,0.0,0.0,0.0,0.0,0.0,0.0,0.0,0.0,0.0,0.0,0.0,0.0,0.0,0.0,0.0,0.0,0.0,0.0,0.0,0.0,0.0,0.0,0.0,0.0,0.0,0.0,0.0,0.0,0.0,0.0,4.255,4.1351,0.0,0.0,0.0,0.0,0.0,0.0,0.0,0.0,0.0,0.0,0.0,0.0,0.0,0.0,0.0,0.0,0.0,0.0,0.0,0.0,0.0,0.0,0.0,3.2145,3.2609,3.3499,3.435,3.4775,0.0,0.0,0.0,0.0,0.0,0.0,3.5623,3.5726,3.664,3.8323,4.01,4.2135,4.4351,4.4589,4.3995,4.2563,4.0359,0.0,0.0,0.0,0.0,0.0,0.0,0.0,0.0,0.0,0.0,0.0,0.0,0.0,0.0,0.0,0.0,0.0,0.0,0.0,0.0,0.0,0.0,0.0,0.0,0.0,0.0,0.0,0.0,0.0,0.0,0.0,0.0,0.0,0.0,0.0,0.0,0.0,0.0,0.0,0.0,0.0,0.0,0.0,0.0,0.0,0.0,0.0,0.0,0.0,0.0,0.0,0.0,0.0,0.0,0.0,0.0,0.0,0.0,0.0,0.0,0.0,0.0,0.0,4.6293,4.6358,4.5131,4.659,4.7597,4.8111,4.6021,4.5543,4.6046,4.3105,0.0,0.0,0.0,0.0,0.0,0.0,0.0,0.0,0.0,0.0,0.0,0.0,0.0,0.0,0.0,0.0,0.0,0.0,0.0,3.1952,3.2831,3.3615,3.4389,3.5278,3.6091,3.6284,3.5549,0.0,0.0,0.0,0.0,0.0,3.5611,3.628,3.7488,3.9239,4.4573,4.7787,4.8861,4.965,4.9899,4.9547,4.4978,4.2788,4.2432,0.0,0.0,0.0,0.0,0.0,0.0,0.0,0.0,0.0,0.0,0.0,0.0,0.0,0.0,0.0,0.0,0.0,0.0,0.0,0.0,0.0,0.0,0.0,0.0,0.0,0.0,0.0,0.0,0.0,0.0,0.0,0.0,0.0,0.0,0.0,0.0,0.0,0.0,0.0,0.0,0.0,3.6635,3.6903,0.0,0.0,0.0,0.0,0.0,0.0,0.0,0.0,0.0,0.0,0.0,0.0,0.0,4.3707,4.5491,4.6926,4.8477,5.0092,5.1023,5.1721,5.2264,5.2496,5.2651,5.2729,5.238,0.0,4.8048,4.6781,0.0,0.0,0.0,0.0,0.0,0.0,0.0,0.0,0.0,0.0,0.0,0.0,0.0,0.0,0.0,0.0,0.0,0.0,0.0,0.0,0.0,3.6013,3.7251,3.9069,4.0447,4.0254,3.7998,3.8628,0.0,0.0,0.0,3.5828,3.6267,3.7591,4.032,4.4457,4.8546,5.1014,5.1896,5.2259,5.2485,5.2457,5.0296,4.7751,4.5,4.4396,0.0,0.0,0.0,0.0,0.0,0.0,0.0,0.0,0.0,0.0,0.0,0.0,0.0,0.0,0.0,0.0,0.0,0.0,0.0,0.0,0.0,0.0,0.0,0.0,0.0,0.0,0.0,0.0,0.0,0.0,0.0,0.0,0.0,0.0,0.0,0.0,0.0,0.0,0.0,3.6605,3.8137,3.8653,3.9091,3.8885,0.0,0.0,0.0,0.0,0.0,0.0,0.0,0.0,0.0,4.4948,4.6278,4.7842,4.9588,5.0326,5.1334,5.2576,5.3391,5.3688,5.3635,5.4114,5.4076,5.3596,5.3596,5.2782,5.1269,4.9368,4.7688,4.61,0.0,0.0,0.0,0.0,4.3866,4.3788,0.0,0.0,0.0,0.0,0.0,0.0,0.0,0.0,0.0,0.0,0.0,0.0,3.6942,3.9004,4.0938,4.2834,4.437,4.4073,4.1338,4.1311,4.0176,3.7371,3.6624,3.6844,3.8106,4.0488,4.4123,4.9064,5.1618,5.3352,5.4274,5.4265,5.4297,5.4385,5.4436,5.2095,4.8148,4.7908,4.5597,4.1941,0.0,0.0,0.0,0.0,0.0,0.0,0.0,0.0,0.0,0.0,0.0,0.0,0.0,0.0,0.0,0.0,0.0,0.0,0.0,0.0,0.0,0.0,0.0,0.0,0.0,0.0,0.0,0.0,0.0,0.0,0.0,0.0,0.0,0.0,0.0,0.0,0.0,3.8098,3.9799,4.0676,4.1324,4.1126,0.0,0.0,0.0,0.0,0.0,0.0,4.3707,4.5774,4.7454,4.8502,5.0001,5.1528,5.3029,5.3301,5.3728,5.4349,5.497,5.4918,5.4322,5.497,5.4763,5.3973,5.3973,5.387,5.3534,5.1593,5.0131,4.8955,4.7004,4.5583,4.4821,4.6344,4.6485,4.6331,0.0,0.0,0.0,0.0,0.0,0.0,0.0,0.0,0.0,0.0,0.0,3.7019,3.8025,4.255,4.5544,4.5699,4.6526,4.6642,4.5622,4.4086,4.2731,4.1738,3.9367,3.9213,4.1699,4.5824,4.8909,5.0889,5.3406,5.5126,5.6063,5.6063,5.6107,5.6175,5.6173,5.5169,5.3195,4.9985,4.8503,4.7759,4.2092,0.0,0.0,0.0,0.0,0.0,0.0,0.0,0.0,0.0,0.0,0.0,0.0,0.0,0.0,0.0,0.0,0.0,0.0,0.0,0.0,0.0,0.0,0.0,0.0,0.0,0.0,0.0,0.0,0.0,0.0,0.0,0.0,0.0,0.0,0.0,0.0,0.0,0.0,4.3371,4.3426,0.0,0.0,0.0,0.0,4.3171,4.4806,4.6484,4.8089,4.9084,5.0402,5.2096,5.3028,5.3922,5.4854,5.5709,5.6136,5.6175,5.6214,5.6214,5.6175,5.6214,5.5747,5.4919,5.4919,5.4465,5.3689,5.3507,5.2446,5.0959,5.0804,4.9744,4.8348,4.9278,4.9588,4.9653,0.0,0.0,0.0,0.0,0.0,0.0,0.0,0.0,3.2068,3.404,3.6323,3.912,4.2782,4.5815,4.823,4.9885,5.0815,5.0273,4.7727,4.6474,4.4924,4.2936,4.1442,4.2344,4.6056,4.873,5.1184,5.3445,5.4917,5.5839,5.6223,5.6194,5.6223,5.6291,5.6304,5.5967,5.5341,5.4147,5.1732,4.8574,4.6937,4.3802,0.0,0.0,0.0,0.0,0.0,0.0,0.0,0.0,0.0,0.0,0.0,0.0,0.0,0.0,0.0,0.0,0.0,0.0,0.0,0.0,0.0,0.0,0.0,0.0,0.0,0.0,0.0,0.0,0.0,0.0,0.0,0.0,0.0,0.0,0.0,0.0,0.0,4.509,4.5733,0.0,4.6387,4.6894,4.7291,4.7561,4.9154,5.0386,5.0984,5.2382,5.3676,5.4854,5.5747,5.6602,5.7457,5.7768,5.7923,5.7923,5.7923,5.7923,5.7923,5.7923,5.7457,5.668,5.668,5.6175,5.5359,5.5333,5.431,5.2667,5.1528,5.105,5.0907,5.0713,5.0622,5.0593,0.0,0.0,0.0,0.0,0.0,0.0,0.0,3.1294,3.2841,3.5742,3.8063,4.1325,4.6242,4.8864,5.1009,5.2976,5.3441,5.2768,5.0801,4.872,4.695,4.5501,4.4896,4.5814,4.8382,5.0952,5.3112,5.4831,5.5723,5.6141,5.6199,5.6223,5.6251,5.6291,5.6291,5.6291,5.6304,5.6347,5.4216,5.0735,4.9867,4.7276,4.3668,0.0,0.0,0.0,0.0,0.0,0.0,0.0,0.0,0.0,0.0,0.0,0.0,0.0,0.0,0.0,0.0,0.0,0.0,0.0,0.0,0.0,0.0,0.0,0.0,0.0,0.0,0.0,0.0,0.0,0.0,0.0,0.0,0.0,0.0,4.266,4.5093,4.6795,4.7768,4.8418,4.8632,4.9659,5.0324,5.0312,5.2408,5.3702,5.3676,5.5307,5.6563,5.7146,5.769,5.8273,5.8778,5.8817,5.8817,5.8817,5.8817,5.8817,5.8817,5.8817,5.835,5.7573,5.7301,5.668,5.5825,5.5553,5.4919,5.4,5.2874,5.2551,5.2693,5.2188,5.1748,5.1411,0.0,0.0,0.0,0.0,0.0,0.0,3.0598,3.1294,3.3073,3.6516,3.992,4.3724,4.8153,5.1591,5.3959,5.4879,5.4114,5.3945,5.4784,5.0758,4.874,4.9629,4.9745,4.9451,4.8734,5.2709,5.4909,5.4978,5.5835,5.6276,5.6276,5.6356,5.6369,5.6369,5.6369,5.6369,5.633,5.633,5.585,5.4669,5.0529,4.9301,4.9269,0.0,0.0,0.0,0.0,0.0,0.0,0.0,0.0,0.0,0.0,0.0,0.0,0.0,0.0,0.0,0.0,0.0,0.0,0.0,0.0,0.0,0.0,0.0,0.0,0.0,0.0,0.0,0.0,0.0,0.0,0.0,0.0,0.0,4.3791,4.5174,4.6912,4.8749,4.9601,4.9712,4.895,5.0413,5.1385,5.1347,5.4492,5.6356,5.6276,5.7871,5.8817,5.8855,5.8855,5.8855,5.8894,5.8894,5.8894,5.8894,5.8894,5.8894,5.8894,5.8894,5.8428,5.7573,5.6719,5.5864,5.4971,5.4116,5.4271,5.5048,5.4971,5.4465,5.3727,5.3689,5.3183,5.2329,0.0,0.0,0.0,0.0,0.0,0.0,3.0598,3.1835,3.4195,3.8257,4.1197,4.5053,5.066,5.2651,5.4231,5.5773,5.4477,5.3441,5.3039,4.9519,4.785,4.8701,5.0519,5.2005,5.305,5.4855,5.6087,5.6722,5.762,5.8076,5.8104,5.809,5.809,5.8117,5.8117,5.7806,5.7224,5.7224,5.6732,5.576,5.396,5.1847,4.9654,0.0,0.0,0.0,0.0,0.0,0.0,0.0,0.0,0.0,0.0,0.0,0.0,0.0,0.0,0.0,0.0,0.0,0.0,0.0,0.0,0.0,0.0,0.0,0.0,0.0,0.0,0.0,0.0,0.0,0.0,0.0,4.3719,4.5551,4.5468,4.7497,4.9824,5.2103,5.2563,5.3347,5.498,5.5578,5.6058,5.6628,5.7573,5.8117,5.8104,5.8531,5.9088,5.971,5.9749,6.006,6.0681,6.0681,6.0681,6.0681,6.0681,6.0681,6.0681,6.0681,5.9865,5.8467,5.8234,5.7301,5.5903,5.567,5.5709,5.5825,5.4543,5.431,5.4582,5.3922,5.356,5.3301,0.0,0.0,0.0,0.0,0.0,0.0,3.0598,3.2029,3.4775,3.9417,4.2241,4.6021,5.1693,5.3063,5.4023,5.51,5.3882,5.2676,5.1837,4.9519,4.86,4.9466,5.1579,5.3569,5.5358,5.6242,5.728,5.8527,5.8697,5.9177,5.9865,5.9138,5.9177,5.9865,5.9516,5.9088,5.8661,5.8661,5.7923,5.6783,5.6226,5.466,5.2352,5.0432,4.8747,4.7245,4.5663,4.4582,4.3958,4.4003,0.0,0.0,0.0,0.0,0.0,0.0,0.0,0.0,0.0,0.0,0.0,0.0,0.0,0.0,0.0,0.0,0.0,0.0,0.0,0.0,0.0,0.0,0.0,0.0,4.6781,4.9023,4.9345,5.0399,5.2037,5.4519,5.4513,5.5152,5.7379,5.7612,5.7768,5.8273,5.8933,5.9322,5.9322,5.971,6.0137,6.0642,6.0642,6.0875,6.1419,6.1419,6.1419,6.1419,6.1419,6.1419,6.1419,6.1419,6.0837,5.9865,5.9127,5.8234,5.7301,5.6602,5.6291,5.6214,0.0,0.0,0.0,0.0,5.422,5.4207,0.0,0.0,0.0,0.0,0.0,0.0,3.0607,3.2029,3.4969,4.0113,4.2937,4.6472,5.1741,5.2995,5.3514,5.3663,5.2831,5.1925,5.1023,5.0255,5.0225,5.1121,5.2833,5.4568,5.6301,5.7319,5.8629,6.0254,5.9671,6.0176,6.1652,6.0099,6.0215,6.1652,6.0875,6.0487,6.037,6.0293,5.9294,5.779,5.7638,5.6991,5.5825,5.278,5.1463,5.0957,4.8686,4.6792,4.541,4.5423,0.0,0.0,0.0,0.0,0.0,0.0,0.0,0.0,0.0,0.0,0.0,0.0,0.0,0.0,0.0,0.0,0.0,0.0,0.0,0.0,0.0,0.0,0.0,0.0,5.0033,5.2913,5.3891,5.3468,5.387,5.6162,5.5773,5.5981,5.769,5.7884,5.7923,5.8001,5.9516,6.0332,6.0254,6.1186,0.0,0.0,0.0,6.1497,6.1419,6.1419,6.1419,6.1419,6.1419,6.1419,6.1419,6.1419,6.1342,6.1186,5.9632,5.8894,5.87,5.7185,5.6563,5.6563,5.6369,5.6291,5.6214,5.5437,5.5165,5.5048,0.0,0.0,0.0,0.0,0.0,0.0,3.0604,3.2077,3.5018,4.0113,4.2396,4.5775,5.1663,5.2453,5.2855,5.3557,5.2831,5.1625,5.0085,5.0403,5.1076,5.2012,5.4288,5.6024,5.7125,5.9413,6.0709,6.1065,6.2376,6.3168,6.3478,6.3168,6.3168,6.3478,6.3323,6.2857,6.2157,6.1391,6.0507,5.9459,5.8032,5.6534,5.5087,5.449,5.3351,5.2007,5.1579,5.0688,4.9705,4.9751,4.8358,4.6551,4.6459,4.4804,0.0,0.0,0.0,0.0,0.0,0.0,0.0,0.0,0.0,0.0,0.0,0.0,0.0,0.0,0.0,0.0,0.0,0.0,0.0,4.9014,5.1132,5.3058,5.4641,5.5345,5.6097,5.7224,5.7185,5.7768,5.9438,5.9632,5.9904,6.0604,6.1614,6.1886,6.1186,6.2624,6.2857,6.1458,6.208,6.2119,6.1419,6.1419,6.1419,6.1419,6.1419,0.0,6.1419,6.1419,6.1031,6.0332,5.9982,5.9438,5.8778,5.8467,5.8311,5.8195,5.6835,5.6291,5.6291,5.6097,5.6058,5.6019,0.0,0.0,0.0,0.0,0.0,0.0,3.0685,3.2103,3.4564,3.8334,4.1081,4.3956,4.7414,4.8551,4.8914,4.8528,4.8864,4.9248,4.9668,5.0867,5.2175,5.3553,5.5614,5.7334,5.8722,6.0414,6.1943,6.3254,6.375,6.4411,6.5226,6.4372,6.445,6.5226,6.4799,6.4372,6.3906,6.3036,6.1904,6.0554,5.8808,5.7319,5.6102,5.576,5.4491,5.2947,5.2976,5.2119,5.0921,5.0959,5.017,4.9108,4.8748,4.7167,4.5004,0.0,0.0,0.0,0.0,0.0,0.0,0.0,0.0,0.0,0.0,0.0,0.0,0.0,0.0,4.5268,0.0,0.0,4.9854,5.1096,5.3073,5.4752,5.5644,5.6486,5.7301,5.8117,5.8195,5.8855,6.0565,6.0759,6.1109,6.2002,6.2468,6.2701,6.2701,6.3129,6.2934,6.208,6.2041,6.1847,6.1419,6.1419,6.1419,6.1419,6.1419,6.1419,6.1419,6.1419,6.1147,6.072,6.0293,5.9865,5.9438,5.8972,5.8817,5.8739,5.7884,5.7535,5.7535,5.7535,5.7301,5.6952,0.0,0.0,0.0,0.0,0.0,0.0,0.0,3.2135,3.41,3.6605,3.9611,4.197,4.3169,4.4523,4.4846,4.3724,4.5157,4.7221,4.9784,5.1525,5.3352,5.5288,5.683,5.8506,6.0293,6.1298,6.289,6.5188,6.4721,6.5188,6.647,6.511,6.5226,6.647,6.577,6.546,6.5382,6.4396,6.3045,6.1375,5.9506,5.8219,5.7262,5.6311,5.4992,5.3576,5.3621,5.2453,5.0906,5.0906,5.0983,5.0975,5.0261,4.9038,4.731,4.4837,4.3857,0.0,0.0,0.0,0.0,0.0,0.0,0.0,0.0,0.0,4.3957,4.5859,4.6791,4.7484,4.8049,5.0646,5.2678,5.2748,5.4641,5.6214,5.6369,5.7068,5.7845,5.8506,5.8855,5.9671,6.1264,6.1536,6.1924,6.2663,6.3012,6.3439,6.3983,6.3634,6.3206,6.274,6.2196,6.173,6.1419,6.1419,6.1419,6.1419,6.1419,6.1419,6.1419,6.1419,6.1419,6.1381,6.0642,6.0332,6.0293,5.9593,5.9322,5.9322,5.9322,5.9322,5.9244,5.8933,5.8389,5.7806,0.0,0.0,0.0,0.0,0.0,0.0,0.0,0.0,3.4167,3.6676,3.8628,4.0694,4.3053,4.3479,4.3827,4.4407,4.6007,4.8043,5.0596,5.2376,5.4475,5.6994,5.7959,5.9365,6.1211,6.2742,6.4061,6.5188,6.5887,6.6314,6.6508,6.6314,6.6314,6.6508,6.6392,6.6353,6.6237,6.4598,6.3324,6.215,5.9714,5.8153,5.7151,5.5606,5.4435,5.3621,5.3582,5.2482,5.099,5.0906,5.0983,5.1061,5.1014,5.0332,4.9123,4.6653,4.4794,4.3222,4.1387,4.1714,4.289,4.4336,4.414,4.4765,0.0,0.0,4.7734,5.0178,5.075,5.0831,5.0855,5.1784,5.277,5.3533,5.4479,5.5436,5.6214,5.7068,5.7612,5.7729,5.905,6.0332,6.1303,6.2119,6.2585,6.2701,6.41,6.4644,6.4022,6.5304,6.5032,6.2779,6.3362,6.2973,6.1419,6.1419,6.1419,6.1419,6.1419,6.1419,6.1419,6.1419,6.1419,6.1381,6.1303,6.1264,6.1264,6.1147,6.1109,6.1109,6.1109,6.1109,6.0914,5.936,5.8739,5.8661,0.0,0.0,0.0,0.0,0.0,0.0,0.0,0.0,3.3658,3.4642,3.6682,3.8218,3.8798,3.8876,3.9224,4.0036,4.3518,4.6496,4.8546,5.2182,5.4978,5.6645,5.7466,5.8738,6.0604,6.2323,6.3837,6.5188,6.6081,6.6508,6.6508,6.6508,6.6508,6.647,6.5965,6.5732,6.5615,6.393,6.2641,6.1608,5.9537,5.8131,5.7134,5.5513,5.4033,5.2778,5.2302,5.0995,0.0,5.0055,4.99,4.9629,5.0132,4.973,4.8701,4.6744,4.602,4.5969,4.6328,4.5936,4.5859,0.0,4.7734,4.8047,5.0195,4.9883,4.9531,5.1093,5.1403,5.1389,5.1297,5.2395,5.339,0.0,5.4879,5.589,5.6253,5.7029,5.7612,5.7612,5.8622,5.9671,6.0565,6.0953,6.1808,6.3323,6.3634,6.4255,6.5382,6.4721,6.4255,6.4178,6.309,6.2391,6.2157,6.1652,6.1419,6.1419,6.1419,6.1419,6.1419,6.1419,6.1419,6.1419,6.1419,6.1419,6.1419,6.1419,6.1419,6.1419,6.1419,6.1419,6.1303,6.0565,5.9982,5.9555,0.0,0.0,0.0,0.0,0.0,0.0,0.0,0.0,0.0,0.0,3.4958,3.6091,3.5742,3.5704,3.6013,3.6826,4.0965,4.4446,4.6612,5.1138,5.4459,5.6141,5.7211,5.8614,6.0409,6.191,6.3269,6.4527,6.5149,6.546,6.546,6.546,6.5576,6.577,6.4916,6.4512,6.4357,6.2687,6.1438,6.0467,5.8955,5.7783,5.6747,5.4894,5.3228,5.1803,5.1009,4.9445,4.7787,4.8159,4.7889,4.7424,4.7811,4.7719,4.7216,4.6087,4.6427,4.7403,4.8475,4.8359,0.0,4.9531,5.0195,5.0547,5.0545,5.0544,5.0699,5.1279,5.1394,5.1363,5.1318,5.2523,5.3564,5.371,5.4991,5.6058,5.6253,5.6835,5.7224,5.7224,5.7962,5.8817,5.9671,6.0176,6.1342,6.3478,6.3478,6.41,6.5732,6.4488,6.3983,6.4488,6.2934,6.2298,6.2687,6.2065,6.1871,6.2104,6.2104,6.2104,6.2119,6.2119,6.2119,6.2119,6.2119,6.2119,6.2119,6.2119,6.2119,6.2119,6.2119,6.2119,6.2119,6.2119,6.1419,6.0448,0.0,0.0,0.0,0.0,0.0,0.0,0.0,0.0,0.0,0.0,0.0,3.4775,3.5626,3.5704,3.6013,3.6826,3.934,4.2318,4.5606,4.9088,5.2562,5.6063,5.7776,5.9514,6.1342,6.2191,6.2672,6.2779,6.2818,6.2818,6.2818,6.2818,6.3284,6.4022,6.3168,6.2765,6.2564,6.0895,5.9646,5.8712,5.7783,5.6875,5.578,5.3313,5.1788,5.0844,5.0118,4.818,4.5854,4.504,4.4755,4.4562,4.375,4.4084,4.4821,4.4832,4.5546,4.6156,4.535,4.6953,4.8867,4.8945,5.0156,5.1366,5.1346,5.1375,5.1389,5.1406,5.1403,5.1361,5.1301,5.201,5.287,5.365,5.4547,5.541,5.6175,5.633,5.633,5.633,5.7107,5.7962,5.8778,6.037,6.173,6.2663,6.4216,6.4838,6.41,6.5537,6.5265,6.2857,6.3517,6.3502,6.2603,6.2603,6.2991,6.3806,6.3806,6.386,6.3906,6.3906,6.3906,6.3906,6.3906,6.3906,6.3906,6.3906,6.3906,6.3906,6.3906,6.3906,6.3906,6.3906,6.2818,6.1381,0.0,0.0,0.0,0.0,0.0,0.0,0.0,0.0,0.0,0.0,0.0,0.0,0.0,0.0,0.0,0.0,3.845,4.0887,4.3131,4.7038,5.055,5.3466,5.5273,5.7024,5.8855,5.9657,6.0356,6.0953,6.1536,6.1847,6.1847,6.1847,6.2002,6.2235,6.1342,6.0978,6.0856,5.9731,5.8366,5.6947,5.6676,5.5327,5.3304,5.1958,4.9829,4.74,0.0,4.4589,4.326,4.2976,4.2512,4.2125,4.2357,4.2705,4.3105,4.3763,4.506,4.6482,4.7302,4.8632,4.9883,5.043,5.1406,5.2108,5.1538,5.1843,5.2085,5.1511,5.0928,5.0539,5.0503,5.1162,5.2016,5.2863,5.4159,5.532,5.6175,5.6291,5.6524,5.7068,5.7418,0.0,0.0,0.0,6.1147,6.2585,6.2701,6.3323,6.4721,6.4294,6.4372,6.5188,6.4955,6.4629,6.4342,6.4342,6.4186,6.3969,6.3969,6.3953,6.3938,6.3938,6.3938,6.3938,6.3938,6.3953,6.3983,6.3983,6.3983,6.3983,6.3983,6.3983,6.3983,6.3983,6.3634,6.3129,0.0,0.0,0.0,0.0,0.0,0.0,0.0,0.0,0.0,0.0,0.0,0.0,0.0,0.0,0.0,0.0,0.0,3.9301,4.1003,4.4253,4.7414,5.035,5.1552,5.3145,5.5217,5.5488,5.6149,5.7366,5.822,5.8958,5.9593,5.9904,6.0215,6.0448,5.9593,5.9191,5.9071,5.7892,5.6567,5.5203,5.4839,5.3336,5.1138,4.9713,4.7414,0.0,4.2356,4.0963,4.0191,4.0191,4.0036,3.9959,4.0462,4.1552,4.283,4.4097,4.5558,4.7183,4.9179,5.0156,5.0898,5.2031,5.2538,5.2533,5.1974,5.2046,5.2081,5.1472,5.0691,5.0107,5.0075,5.0451,5.118,5.2356,5.3682,5.4958,5.6136,5.6563,5.6952,5.7535,5.8117,5.8933,0.0,0.0,0.0,6.2157,6.2002,6.2429,6.3789,6.3673,6.4061,6.511,6.5188,6.5211,6.5196,6.5196,6.5079,6.4862,6.4877,6.4862,6.4831,6.4831,6.4831,6.4831,6.4831,6.4846,6.4877,6.4877,6.4877,6.4877,6.4877,6.4877,6.4877,6.4877,6.4877,6.4799,0.0,0.0,0.0,0.0,0.0,0.0,0.0,0.0,0.0,0.0,0.0,0.0,0.0,0.0,0.0,0.0,0.0,0.0,3.9274,4.0926,4.3389,4.6797,4.7068,4.8335,5.0843,5.0119,5.0558,5.2201,5.3029,5.4285,5.5903,5.6758,5.7535,5.8234,5.7457,5.7094,5.6936,5.5264,5.4071,5.3174,5.2237,5.0867,4.9088,4.664,4.4589,4.2628,3.9364,3.7661,3.6903,3.6942,3.7599,3.8423,3.8501,4.0866,4.3938,4.5738,4.6979,4.8279,5.0738,5.1445,5.1914,5.3593,5.3392,5.2752,5.2726,5.2058,5.1394,5.121,5.0507,4.992,0.0,0.0,5.0322,5.2091,5.3125,5.431,5.6058,5.7029,5.7612,0.0,0.0,0.0,0.0,0.0,0.0,6.1419,6.2157,6.2313,6.1575,6.3828,6.445,6.2934,6.4488,6.5328,6.5281,6.5281,6.563,6.6406,6.6493,6.6508,6.6508,6.6508,6.6508,6.6508,6.6508,6.6508,6.6508,6.6508,6.6508,6.6508,6.6508,6.6508,6.6508,6.6508,6.6508,6.6275,0.0,0.0,0.0,0.0,0.0,0.0,0.0,0.0,0.0,0.0,0.0,0.0,0.0,0.0,0.0,0.0,0.0,0.0,3.7483,3.9185,4.1105,4.331,4.5209,4.6849,4.8179,4.8606,4.9071,4.9498,4.9731,5.0054,5.0481,5.0714,5.0908,5.1102,5.0908,5.0817,5.0777,5.0336,4.9611,4.8677,4.7787,4.6419,4.4794,4.3492,4.1545,3.9379,3.8489,3.7638,3.7019,3.7638,3.9314,4.1314,4.2615,4.3724,4.489,4.658,4.8252,4.979,5.1014,5.2316,5.3455,5.3884,5.3789,5.3422,5.2772,5.2407,5.1674,4.9778,4.8688,4.767,0.0,0.0,0.0,5.0299,5.2319,0.0,5.6058,5.7029,0.0,5.8428,0.0,6.037,6.1031,6.1264,0.0,0.0,6.1614,6.2196,6.3284,6.3945,6.4683,6.5498,6.6586,6.6819,6.6182,6.6182,6.626,6.6454,6.6508,6.6454,6.6422,6.6428,6.6428,6.6422,6.6428,6.6445,6.6508,6.6508,6.6508,6.6508,6.6508,6.6508,6.6508,6.6508,6.6508,6.6431,0.0,0.0,0.0,0.0,0.0,0.0,0.0,0.0,0.0,0.0,0.0,0.0,0.0,0.0,0.0,0.0,0.0,0.0,0.0,3.729,3.8578,4.0304,4.104,4.2175,4.3788,4.3943,4.4524,4.5699,4.606,4.6642,4.7391,4.7391,4.7403,4.7389,4.7389,4.7427,4.7427,4.7028,4.6344,0.0,0.0,4.3206,4.1579,4.0738,3.9303,3.7675,3.7267,3.802,3.934,4.0602,0.0,4.4033,4.5364,4.6416,4.7388,4.872,0.0,5.1562,5.2733,5.3767,5.4609,5.5,5.4476,5.3565,5.2308,5.1391,5.0192,4.7969,4.6839,4.5936,4.4929,4.6169,4.7894,0.0,0.0,0.0,5.6563,5.7612,5.8428,0.0,6.0137,0.0,6.1342,6.1419,6.1575,0.0,6.1963,6.2391,6.3362,6.4139,6.4955,6.5887,6.678,6.6975,6.6508,6.6508,6.6508,6.6508,6.6508,6.6493,6.6439,6.6445,6.6445,6.6422,6.6428,6.6445,6.6508,6.6493,6.6454,6.6508,6.6508,6.6508,6.6508,6.6508,6.6508,6.6508,0.0,0.0,0.0,0.0,0.0,0.0,0.0,0.0,0.0,0.0,0.0,0.0,0.0,0.0,0.0,0.0,0.0,0.0,0.0,0.0,3.6361,3.7793,3.6709,3.7058,3.9262,3.8798,3.9661,4.1943,4.2562,4.3671,4.513,4.5013,4.4971,4.4976,4.4976,4.5007,4.5035,4.4278,4.3491,4.2714,4.1869,4.0616,3.9189,0.0,3.7575,3.6867,3.6336,3.8528,4.1983,4.4073,4.557,4.6655,4.7469,4.8954,5.0472,5.1236,5.2221,5.3373,5.4861,5.5309,5.5561,5.6285,5.5243,5.3572,5.1725,4.9919,4.8086,4.5905,4.4923,4.4362,4.4062,4.5642,4.7556,4.9415,0.0,5.444,5.7068,5.8234,5.9088,5.9827,6.0798,6.1419,6.1419,6.1497,6.1886,6.2624,6.2896,6.3012,6.3012,6.4411,6.5265,6.5382,6.612,6.6508,6.6508,6.6508,6.6508,6.6508,6.6508,6.6508,6.6508,6.6508,6.6493,6.6493,6.6406,6.6422,6.6493,6.6422,6.6422,6.6493,6.6508,6.6508,6.6493,6.6508,6.6508,6.6508,0.0,0.0,0.0,0.0,0.0,0.0,0.0,0.0,0.0,0.0,0.0,0.0,0.0,0.0,0.0,0.0,0.0,0.0,0.0,0.0,0.0,3.6129,3.7174,3.7986,3.8411,3.9688,4.059,4.1016,4.0474,4.0331,4.0602,3.9905,3.958,3.9645,3.9645,3.9626,3.9634,3.9509,3.9353,3.912,3.8305,3.78,3.745,3.6595,0.0,0.0,3.7411,3.8763,4.0533,4.4381,4.7268,4.9382,5.0238,5.1257,5.2182,5.2333,5.3511,5.4837,5.5072,5.569,5.6309,5.638,5.5638,5.4251,5.1779,4.9839,0.0,0.0,4.2654,4.2149,4.0752,4.3102,4.6035,4.8444,0.0,0.0,5.6175,5.7845,5.8855,0.0,0.0,6.1419,6.1419,6.2041,0.0,0.0,6.3983,6.476,6.476,6.5032,6.5537,6.6237,6.6431,6.6508,6.6508,6.6508,6.6508,6.6508,6.6508,6.6508,6.6508,6.6439,6.6406,6.6406,6.6411,6.6394,6.6411,6.6389,6.6428,6.6411,6.6477,6.6493,6.6422,6.6493,6.6508,6.6508,0.0,0.0,0.0,0.0,0.0,0.0,0.0,0.0,0.0,0.0,0.0,0.0,0.0,0.0,0.0,0.0,0.0,0.0,0.0,0.0,0.0,3.5704,3.6886,3.7583,3.7583,3.8822,3.948,3.948,0.0,3.8141,3.8141,3.7284,3.6939,3.6987,3.7053,3.7047,3.7046,3.7046,3.7046,3.7007,3.6618,3.6462,3.6423,3.5995,0.0,0.0,3.725,3.8771,4.0548,4.2571,4.5941,4.9493,5.0753,5.1802,5.2676,5.3151,5.4162,5.5257,5.565,5.6074,5.6386,5.634,5.5346,5.3574,5.047,0.0,0.0,0.0,4.0438,4.0023,3.9714,4.1714,0.0,4.6812,4.9415,0.0,0.0,0.0,0.0,0.0,0.0,6.1419,0.0,6.2196,6.2896,6.3323,6.4527,6.5188,6.5188,6.5615,6.6081,6.6508,6.6508,6.6508,6.6508,6.6508,6.6508,6.6508,6.6508,6.6508,6.6508,6.6493,6.6422,6.6406,6.6389,6.6411,6.6411,6.6411,6.6411,6.6411,6.6461,6.6422,6.6406,6.6422,6.6493,6.6508,0.0,0.0,0.0,0.0,0.0,0.0,0.0,0.0,0.0,0.0,0.0,0.0,0.0,0.0,0.0,0.0,0.0,0.0,0.0,0.0,0.0,0.0,0.0,0.0,3.7257,0.0,0.0,0.0,3.7738,0.0,0.0,0.0,0.0,0.0,3.5864,3.5898,3.5889,3.5889,3.5889,0.0,0.0,3.5889,0.0,0.0,0.0,0.0,0.0,3.8268,3.9975,4.0829,4.3722,4.7391,4.9381,5.1208,5.2666,5.3159,5.4129,5.5248,5.5926,5.6199,5.6269,5.6047,5.5013,5.2977,4.9123,4.6434,0.0,4.0061,3.8616,3.8326,3.9267,4.0791,4.2811,4.5569,4.8055,5.0814,5.4232,0.0,0.0,0.0,0.0,0.0,6.1652,6.2468,0.0,6.4178,6.5032,6.5498,6.5498,6.612,6.6508,6.6493,6.6508,6.6508,6.6493,6.6508,6.6508,6.6508,6.6508,6.6508,6.6508,6.6508,6.6439,6.6406,6.6406,6.6389,6.6373,6.6394,6.6411,6.6373,6.6406,6.6406,6.6406,6.6406,6.6439,6.6508,0.0,0.0,0.0,0.0,0.0,0.0,0.0,0.0,0.0,0.0,0.0,0.0,0.0,0.0,0.0,0.0,0.0,0.0,0.0,0.0,0.0,0.0,0.0,0.0,0.0,0.0,0.0,0.0,0.0,0.0,0.0,0.0,0.0,0.0,0.0,0.0,3.5889,3.5889,0.0,0.0,0.0,0.0,0.0,0.0,0.0,0.0,0.0,3.6839,3.6922,4.0796,0.0,4.2177,4.5448,4.9252,5.2343,5.158,0.0,0.0,5.5097,5.5696,5.6095,5.533,5.5022,5.356,4.8565,0.0,4.3524,3.9306,3.7744,3.7395,3.8335,3.9897,4.2112,4.5453,4.7512,4.992,5.3339,0.0,0.0,0.0,0.0,0.0,6.2507,6.3362,6.4216,6.5032,6.5887,6.6392,6.6392,6.647,6.6454,6.6406,6.6493,6.6493,6.6406,6.6493,6.6508,6.6508,6.6508,6.6508,6.6508,6.6508,6.6439,6.6406,6.6406,6.6355,6.6322,6.6373,6.6355,6.634,6.6461,6.6439,6.6406,6.6493,6.6508,6.6508,0.0,0.0,0.0,0.0,0.0,0.0,0.0,0.0,0.0,0.0,0.0,0.0,0.0,0.0,0.0,0.0,0.0,0.0,0.0,0.0,0.0,0.0,0.0,0.0,0.0,0.0,0.0,0.0,0.0,0.0,0.0,0.0,0.0,0.0,0.0,0.0,0.0,3.5889,0.0,0.0,0.0,0.0,0.0,0.0,0.0,0.0,0.0,0.0,3.6839,3.8026,0.0,0.0,4.1295,4.4339,0.0,0.0,5.1785,5.3647,5.4699,5.5629,5.6208,5.5877,5.4582,5.2511,4.8914,0.0,4.2266,3.8967,3.7211,3.6716,3.8149,3.8499,3.9897,4.386,4.5064,4.6735,5.0153,5.33,0.0,0.0,5.9244,0.0,0.0,0.0,6.4566,6.5887,6.6314,6.6508,6.6508,6.6508,6.6493,6.6406,6.6477,6.6493,6.6406,6.6493,6.6508,6.6508,6.6508,6.6493,6.6422,6.6493,6.6477,6.6411,6.6422,6.6406,6.6355,6.6389,6.6389,6.6355,6.6406,6.6422,6.6406,6.6422,6.6477,6.6508,0.0,0.0,0.0,0.0,0.0,0.0,0.0,0.0,0.0,0.0,0.0,0.0,0.0,0.0,0.0,0.0,0.0,0.0,0.0,0.0,0.0,0.0,0.0,0.0,0.0,0.0,0.0,0.0,0.0,0.0,0.0,0.0,0.0,0.0,0.0,0.0,0.0,0.0,0.0,0.0,0.0,0.0,0.0,0.0,0.0,0.0,0.0,0.0,0.0,0.0,0.0,0.0,0.0,4.0527,4.3812,0.0,4.986,5.1968,5.343,5.466,5.5476,5.5204,5.3572,5.1319,0.0,4.4916,4.1461,3.886,3.6987,3.6259,3.7761,3.7722,3.8654,4.2151,4.3394,4.4986,4.8172,5.1319,0.0,0.0,0.0,6.0137,0.0,6.3789,6.5226,6.6392,6.6508,6.6508,6.6508,6.6508,6.6477,6.6389,6.6477,6.6477,6.6389,6.6461,6.6493,6.6508,6.6493,6.6477,6.6422,6.6493,6.6477,6.6411,6.6461,6.6422,6.6389,6.6389,6.6406,6.6406,6.6422,6.6422,6.6422,6.6422,6.6439,6.6508,0.0,0.0,0.0,0.0,0.0,0.0,0.0,0.0,0.0,0.0,0.0,0.0,0.0,0.0,0.0,0.0,0.0,0.0,0.0,0.0,0.0,0.0,0.0,0.0,0.0,0.0,0.0,3.9588,0.0,0.0,0.0,0.0,0.0,0.0,0.0,0.0,0.0,0.0,0.0,0.0,0.0,0.0,3.5889,0.0,0.0,0.0,0.0,0.0,0.0,0.0,0.0,0.0,0.0,3.8898,4.0242,4.3647,4.7094,5.0041,5.092,5.2421,5.3533,5.264,5.1824,5.0309,4.6812,4.4044,4.1471,3.8926,3.7005,3.6065,3.6936,3.78,3.8926,4.0635,4.3083,4.5686,4.825,5.0814,0.0,0.0,0.0,5.8622,6.1186,6.4488,6.647,6.6508,6.6508,6.6508,6.6508,6.6508,6.6477,6.6394,6.6461,6.6477,6.6376,6.6389,6.6422,6.6508,6.6422,6.6422,6.6508,6.6508,6.6439,6.6406,6.6406,6.6389,6.6394,6.6389,6.6406,6.6406,6.6454,6.6508,6.6508,6.6508,6.6508,6.6508,0.0,0.0,0.0,0.0,0.0,0.0,0.0,0.0,0.0,0.0,0.0,0.0,0.0,0.0,0.0,0.0,0.0,0.0,0.0,0.0,0.0,0.0,0.0,0.0,0.0,0.0,3.7316,3.8797,3.9155,3.9487,0.0,0.0,0.0,0.0,0.0,0.0,0.0,0.0,0.0,0.0,0.0,3.5889,3.5889,0.0,0.0,0.0,0.0,0.0,0.0,0.0,0.0,0.0,0.0,0.0,0.0,3.98,4.354,4.7327,4.8205,4.9717,5.0829,5.0013,4.8705,4.7045,4.4792,4.2335,3.9927,3.7916,3.6587,3.6082,3.6945,3.6828,3.7955,4.2034,4.285,4.4326,4.8055,0.0,0.0,5.4854,5.9127,6.2274,0.0,0.0,6.6508,6.6508,6.6508,6.6508,6.6508,6.6508,6.6477,6.6389,6.6477,6.6477,6.6389,6.6461,6.6493,6.6508,6.6422,6.6389,6.6428,6.6406,6.6389,6.632,6.6373,6.6389,6.6389,6.6389,6.6422,6.6493,6.6508,6.6508,6.6508,6.6508,6.6508,6.6508,0.0,0.0,0.0,0.0,0.0,0.0,0.0,0.0,0.0,0.0,0.0,0.0,0.0,3.3984,3.3437,3.4603,0.0,0.0,0.0,0.0,0.0,0.0,0.0,0.0,0.0,3.627,3.7139,3.8415,3.9299,3.9902,4.022,3.9725,3.8823,0.0,0.0,0.0,0.0,0.0,0.0,0.0,3.5889,3.5889,3.5889,0.0,0.0,0.0,0.0,0.0,0.0,0.0,0.0,0.0,0.0,0.0,0.0,0.0,4.0294,4.3439,4.5258,4.7039,4.8266,4.7761,4.6335,0.0,4.3316,4.1024,3.881,3.7372,3.6401,3.5974,3.6518,3.644,3.745,4.0985,4.1917,4.3588,4.755,0.0,0.0,5.5709,0.0,0.0,0.0,6.5304,6.6493,6.6439,6.6493,6.6493,6.6439,6.6493,6.6493,6.6422,6.6493,6.6493,6.6406,6.6422,6.6439,6.6439,6.6406,6.6411,6.6376,6.6411,6.6338,6.6303,6.6394,6.6373,0.0,6.6389,6.6422,6.6508,6.6508,6.6508,6.6508,6.6508,6.6508,6.6508,0.0,0.0,0.0,0.0,0.0,0.0,0.0,0.0,0.0,0.0,0.0,0.0,3.4336,3.3047,0.0,0.0,0.0,0.0,0.0,0.0,0.0,0.0,0.0,0.0,0.0,3.5814,3.6767,3.8475,3.9416,4.037,4.1267,4.1295,4.0315,3.8561,0.0,0.0,0.0,0.0,0.0,0.0,3.5889,3.5889,0.0,0.0,0.0,0.0,0.0,0.0,0.0,0.0,0.0,0.0,0.0,0.0,0.0,0.0,0.0,0.0,0.0,4.4228,4.553,4.5453,4.4287,4.2928,4.2034,4.0014,0.0,3.7178,3.6362,3.5857,3.5974,3.6595,3.7489,3.8654,4.083,4.3588,4.7084,4.992,0.0,0.0,6.006,0.0,6.2701,6.5032,6.6454,6.6406,6.6439,6.6493,6.6406,6.6439,6.6508,6.6508,6.6493,6.6439,6.6406,6.6389,6.6389,6.6406,6.6411,6.6376,6.6376,6.6415,6.6358,6.6303,6.6358,6.6376,6.6394,6.6389,6.6422,6.6508,6.6508,6.6508,6.6508,6.6508,6.6508,6.6508,0.0,0.0,0.0,0.0,0.0,0.0,0.0,0.0,0.0,0.0,0.0,0.0,0.0,0.0,0.0,0.0,0.0,0.0,0.0,0.0,0.0,0.0,0.0,0.0,0.0,3.6409,3.763,3.9377,4.1,4.2175,4.2994,4.3056,4.1808,3.9441,3.86,0.0,0.0,0.0,0.0,0.0,3.5889,3.5889,0.0,0.0,0.0,0.0,3.5889,3.5889,0.0,0.0,0.0,0.0,0.0,0.0,0.0,0.0,3.6774,3.7607,3.8382,0.0,4.0946,4.0296,3.9849,3.9353,0.0,3.7838,3.7178,3.6284,0.0,3.6207,3.7528,3.7411,3.846,4.2617,4.3782,4.5608,4.9726,0.0,0.0,6.0176,6.2196,6.3478,6.3673,6.5382,6.6454,6.6406,6.6439,6.6493,6.6406,6.6439,6.6508,6.6508,6.6299,6.6281,6.6454,6.6281,6.6281,6.6493,6.6411,6.6376,6.6376,6.634,6.6303,6.6205,6.634,6.6376,6.6394,6.6389,6.6422,6.6508,6.6508,6.6508,6.6508,6.6508,6.6508,6.6508,0.0,0.0,0.0,0.0,0.0,0.0,0.0,0.0,0.0,0.0,0.0,0.0,0.0,0.0,0.0,0.0,0.0,0.0,0.0,0.0,0.0,0.0,0.0,0.0,3.5736,3.6277,3.7417,3.9156,4.0532,4.183,4.3044,4.31,4.1935,3.9741,3.8059,0.0,0.0,0.0,0.0,3.5889,3.5889,0.0,0.0,0.0,0.0,0.0,3.5889,3.5894,0.0,3.6889,3.6894,3.6586,0.0,0.0,0.0,0.0,3.6203,3.6557,3.6526,3.8296,4.0063,3.9607,3.9228,3.8887,3.8382,3.7372,0.0,0.0,0.0,3.6207,3.7566,3.8071,3.947,4.3044,4.4598,4.7123,0.0,0.0,0.0,6.1147,6.2934,6.3983,6.3983,6.5537,6.6454,6.6406,6.6439,6.6493,6.6406,6.6373,6.6316,6.6316,6.592,6.592,6.6299,6.6067,6.6046,6.6281,6.6245,6.6245,6.634,6.6303,6.6165,6.5958,6.6225,6.6264,6.6147,6.632,6.6406,6.6439,6.6439,6.6454,6.6508,6.6508,6.6508,6.6508,0.0,0.0,0.0,0.0,0.0,0.0,0.0,0.0,0.0,0.0,0.0,0.0,0.0,0.0,0.0,0.0,0.0,0.0,0.0,0.0,0.0,0.0,0.0,3.5814,3.6004,3.5942,3.6761,3.85,3.9513,4.0811,4.2398,4.2676,4.1627,3.9494,3.6898,0.0,0.0,0.0,0.0,3.5505,3.5505,0.0,0.0,0.0,0.0,0.0,0.0,0.0,0.0,3.6772,3.7015,3.7024,3.707,0.0,0.0,0.0,0.0,0.0,3.6129,3.8615,4.0985,4.0441,4.0014,3.9664,3.9548,0.0,0.0,0.0,0.0,0.0,0.0,3.9198,0.0,4.285,4.5414,0.0,5.4621,5.7496,5.9593,6.1225,6.2934,6.3983,6.3983,6.5537,6.6454,6.6406,6.6439,6.6493,6.6406,6.6187,6.6108,6.6108,6.5575,6.552,6.5964,6.5804,6.5804,6.6024,6.6019,6.6063,6.6225,6.6144,6.5913,6.5654,6.6063,6.6084,6.5827,6.6167,6.632,6.6316,6.6299,6.6334,6.6422,6.6422,6.6454,6.6508,0.0,0.0,0.0,0.0,0.0,0.0,0.0,0.0,0.0,0.0,0.0,0.0,0.0,0.0,0.0,0.0,0.0,0.0,0.0,0.0,0.0,0.0,3.5079,3.6172,3.6906,3.6242,3.674,3.85,4.0097,4.1383,4.2364,4.3836,4.2442,3.8588,3.6044,3.4398,3.3604,0.0,0.0,3.3774,3.3774,0.0,0.0,0.0,0.0,0.0,0.0,0.0,0.0,3.6126,3.6173,3.6176,3.6183,0.0,0.0,0.0,0.0,0.0,3.763,3.9975,4.1296,3.8421,3.8693,3.9509,3.8771,0.0,0.0,0.0,0.0,0.0,0.0,4.2112,4.3083,0.0,0.0,5.3611,0.0,0.0,6.0254,6.1303,0.0,6.3983,6.3983,6.5537,6.6454,6.6406,6.6439,6.6493,6.6406,6.6187,6.6108,6.6108,6.5575,6.5329,6.5446,6.5601,6.5827,6.6088,6.6046,6.6003,6.5942,6.5654,6.5475,6.5388,6.573,6.5851,6.5804,6.592,6.6024,6.6046,6.5827,6.5897,6.6148,6.6148,6.6299,6.6508,0.0,0.0,0.0,0.0,0.0,0.0,0.0,0.0,0.0,0.0,0.0,0.0,0.0,0.0,0.0,0.0,0.0,0.0,0.0,0.0,0.0,3.3275,3.456,3.5392,3.5736,3.5839,3.6746,3.85,3.9786,4.1078,4.2331,4.173,3.9633,3.636,3.4714,3.3496,3.2747,3.3215,3.3418,3.3388,0.0,0.0,0.0,0.0,0.0,0.0,0.0,0.0,0.0,0.0,3.5907,3.6534,3.56,0.0,0.0,0.0,0.0,0.0,3.6798,3.8887,4.0597,3.9431,4.114,4.3005,4.2578,0.0,0.0,0.0,0.0,0.0,0.0,0.0,4.6346,5.0658,0.0,5.567,5.734,5.905,6.0409,0.0,6.2934,6.3983,6.3983,6.5537,6.6493,6.6477,6.6493,6.6493,6.6477,6.6108,6.5897,6.592,6.5388,6.5085,6.5117,6.5388,6.5628,6.5874,6.568,6.5705,6.5942,6.5575,6.5261,6.5112,6.5408,6.5437,6.5291,6.5493,6.5589,6.5641,6.5575,6.568,6.5851,6.6007,6.6281,6.6508,0.0,0.0,0.0,0.0,0.0,0.0,0.0,0.0,0.0,0.0,0.0,0.0,0.0,0.0,0.0,0.0,0.0,0.0,0.0,0.0,3.21,3.2695,3.3584,3.4531,3.548,3.5948,3.7074,3.8811,3.9669,4.0883,4.2343,3.9702,3.7249,3.4913,3.3657,3.26,3.1859,3.2522,3.2803,3.2771,0.0,0.0,0.0,0.0,0.0,0.0,0.0,0.0,0.0,0.0,0.0,0.0,0.0,0.0,0.0,3.5816,3.5697,3.592,3.6284,3.8149,4.0247,4.1257,4.3316,4.5258,4.5841,0.0,0.0,0.0,0.0,0.0,0.0,4.5919,0.0,5.3106,5.532,5.6913,5.7768,5.9322,6.0642,6.1342,6.2779,6.3789,6.3983,6.5343,6.6275,6.647,6.6508,6.6508,6.6508,6.5986,6.5653,6.551,6.513,6.4845,6.4651,6.5035,6.5359,6.5601,6.5359,6.5408,6.5765,6.5408,6.5112,6.4845,6.5112,6.5047,6.4848,6.5079,6.5199,6.5222,6.5291,6.5379,6.5575,6.5897,6.6167,6.6406,0.0,0.0,0.0,0.0,0.0,0.0,0.0,0.0,0.0,0.0,0.0,0.0,0.0,0.0,0.0,0.0,0.0,0.0,0.0,0.0,3.0997,3.096,3.1836,3.4125,3.8054,3.7461,3.7964,3.9708,4.0565,4.1467,4.2343,3.973,3.7547,3.5714,3.3267,3.1714,3.0895,3.0944,3.0989,3.0994,3.0989,0.0,0.0,0.0,0.0,0.0,0.0,0.0,0.0,0.0,0.0,0.0,0.0,0.0,3.4853,3.473,3.526,3.6222,3.7786,3.947,4.1218,4.2889,4.2889,0.0,4.5453,4.4637,0.0,4.4443,0.0,0.0,0.0,4.8561,5.1513,5.3378,5.5825,5.7768,5.8583,6.0215,6.1342,6.1381,6.2235,6.3129,6.3906,6.4799,6.5615,6.6431,6.6508,6.6508,6.6508,6.5986,6.5359,6.4614,6.4856,6.4613,6.3713,6.4575,6.5117,6.5329,6.5299,6.523,6.5161,6.4879,6.4707,6.4634,6.4848,6.4913,6.4879,6.4882,6.4845,6.4913,6.4743,6.4951,6.5359,6.5628,6.5897,6.6128,0.0,0.0,0.0,0.0,0.0,0.0,0.0,0.0,0.0,0.0,0.0,0.0,0.0,0.0,0.0,0.0,0.0,0.0,0.0,0.0,3.1116,3.1591,3.1936,3.3353,3.5973,3.6804,3.8054,3.9786,4.0136,4.0181,3.9925,3.7303,3.5476,3.4246,3.2214,3.1125,3.0788,3.0785,3.0791,3.0799,3.0794,3.0989,0.0,0.0,0.0,0.0,0.0,0.0,0.0,0.0,3.4627,3.5174,3.3222,3.3568,3.4686,3.4608,3.482,3.534,3.6495,3.881,4.1179,4.2384,4.3277,0.0,0.0,4.7123,4.6929,4.7784,4.755,0.0,0.0,0.0,5.194,5.4155,5.6253,5.7884,5.87,6.0293,6.1419,6.1419,6.2157,6.2818,6.3168,6.3959,6.4595,6.4906,6.545,6.546,6.4726,6.4839,6.4501,6.3526,6.3435,6.3251,6.2909,6.3812,6.4263,6.4258,6.479,6.5117,6.5199,6.4882,6.4707,6.467,6.4595,6.4595,6.4595,6.4521,6.4558,6.4595,6.4634,6.4848,6.523,6.5509,6.5705,6.5851,0.0,0.0,0.0,0.0,0.0,0.0,0.0,0.0,0.0,0.0,0.0,0.0,0.0,0.0,0.0,0.0,0.0,0.0,0.0,3.0153,3.0849,3.1708,3.1952,3.2778,3.4178,3.5913,3.763,3.939,3.9686,3.9213,3.8043,3.5977,3.4735,3.4129,3.2409,3.1636,3.1607,3.1331,3.1061,3.0799,3.0794,3.0794,0.0,0.0,0.0,0.0,0.0,0.0,0.0,0.0,3.4198,3.4861,3.3066,3.3328,3.4324,3.453,3.5353,3.6331,3.6876,3.9111,4.1597,4.2733,0.0,0.0,4.8017,4.8405,4.8599,5.0037,4.9609,0.0,5.093,0.0,0.0,0.0,5.6291,5.7884,5.87,6.0293,6.1419,6.1419,6.1924,6.2391,6.2663,6.3235,6.369,6.4001,6.4558,6.4488,6.3649,6.3891,6.3591,6.2508,6.2459,6.234,6.207,6.2938,6.3474,6.3672,6.4206,6.4723,6.515,6.4886,6.4743,6.4743,6.4558,6.4482,6.4482,6.4443,6.4405,6.4482,6.4596,6.4741,6.5009,6.523,6.5379,6.5509,0.0,0.0,0.0,0.0,0.0,0.0,0.0,0.0,0.0,0.0,0.0,0.0,0.0,0.0,0.0,0.0,0.0,0.0,2.9531,2.9609,2.9998,3.0841,3.1646,3.2489,3.3353,3.502,3.6735,3.8502,3.9325,3.8867,3.7175,3.6294,3.587,3.5792,3.4129,3.3395,3.3317,3.2466,3.1571,3.0794,3.0794,3.0794,3.0794,0.0,0.0,0.0,0.0,0.0,0.0,0.0,3.3378,3.3417,3.3378,3.3406,3.3579,3.4374,3.6988,3.9645,3.9673,4.0888,4.2625,0.0,0.0,0.0,4.8006,4.7939,4.8055,5.0658,5.0542,5.0192,5.1047,5.1241,0.0,5.3417,5.5903,5.7884,5.87,6.0293,6.1381,6.1381,6.1419,6.173,6.2585,6.2691,6.3068,6.3923,6.3988,6.3857,6.3571,6.3317,6.2694,6.1649,6.2185,6.2032,6.1098,6.2032,6.29,6.3774,6.3672,6.4055,6.4888,6.4888,6.4888,6.4888,6.4743,6.4707,6.4707,6.4634,6.4633,6.4707,6.4634,6.4633,6.4707,6.4634,6.481,6.5161,0.0,0.0,0.0,0.0,0.0,0.0,0.0,0.0,0.0,0.0,0.0,0.0,0.0,0.0,0.0,0.0,0.0,0.0,2.8672,2.9844,3.0623,3.088,3.107,3.1315,3.1562,3.3277,3.5252,3.7596,3.724,3.6801,3.6279,3.5437,3.474,3.4116,3.3622,3.2736,3.1568,3.1292,3.1376,3.1697,3.1691,3.1691,3.1697,0.0,0.0,0.0,0.0,0.0,0.0,0.0,0.0,0.0,3.2675,3.3328,3.4359,3.453,3.5743,3.7031,3.6975,3.9529,0.0,0.0,0.0,0.0,0.0,4.8871,0.0,0.0,5.2329,5.2445,5.2096,5.2562,0.0,5.3611,5.5359,5.6991,5.7845,5.9399,6.0501,6.0553,6.1045,6.1497,6.1771,6.1836,6.1978,6.2211,6.2819,6.2691,6.1601,6.2056,6.1774,6.0456,6.0589,6.0524,6.0264,6.1197,6.1728,6.189,6.3204,6.4225,6.4993,6.4924,6.4888,6.4888,6.4743,6.4707,6.4707,6.467,6.467,6.4707,6.4634,6.4633,6.4705,6.4739,6.4739,6.4845,0.0,0.0,0.0,0.0,0.0,0.0,0.0,0.0,0.0,0.0,2.6171,2.6484,0.0,0.0,0.0,0.0,0.0,0.0,0.0,0.0,3.0195,3.0859,3.0859,3.0936,3.1286,3.2333,3.364,3.5187,3.5359,3.5242,3.4915,3.5086,3.4896,3.4428,3.4753,3.3942,3.2349,3.1994,3.1923,3.2087,3.2085,3.2087,3.209,0.0,0.0,0.0,0.0,0.0,0.0,0.0,0.0,0.0,3.267,3.3083,3.3916,3.521,3.619,3.7319,3.9305,4.1471,0.0,0.0,4.7179,4.886,4.9881,0.0,0.0,0.0,5.3844,5.396,5.3067,5.3339,0.0,5.3689,5.5165,5.6602,5.7457,5.8739,5.9607,5.9685,6.0073,6.0384,6.0385,6.0448,6.046,6.046,6.095,6.0953,6.0226,6.0663,6.0649,5.9918,5.9885,5.9885,5.9885,6.0481,6.0861,6.1202,6.2254,6.3389,6.46,6.4841,6.4958,6.4924,6.4853,6.4779,6.4779,6.4779,6.4779,6.4743,6.467,6.467,6.4669,6.4668,6.4632,6.4707,0.0,0.0,0.0,0.0,0.0,0.0,0.0,0.0,0.0,0.0,2.5696,2.5699,0.0,0.0,0.0,0.0,0.0,0.0,0.0,0.0,2.9134,3.0715,3.0784,3.1144,3.1867,3.1945,3.1976,3.1997,3.3643,3.4111,3.3439,3.5125,3.587,3.5831,3.6699,3.6122,3.441,3.3519,3.2742,3.2082,3.2087,3.209,3.209,3.209,0.0,0.0,0.0,0.0,0.0,0.0,0.0,0.0,3.3009,3.279,3.2839,3.5963,3.7599,3.9431,4.4132,0.0,0.0,4.9831,4.9703,0.0,5.1746,5.2212,5.2717,5.4621,0.0,5.466,5.396,5.3805,5.3805,5.3805,5.5204,5.6563,5.7379,5.8195,5.8713,5.879,5.8804,5.883,5.8907,5.8907,5.8919,5.8919,5.8904,5.9022,5.9276,5.937,5.9536,5.9766,5.9847,5.9885,5.9885,5.9885,6.0297,6.1191,6.1164,6.1994,6.3676,6.4529,6.4951,6.4989,6.4958,6.4924,6.4888,6.4888,6.4888,6.4888,6.4743,6.4707,6.4707,6.4482,6.4482,6.467,0.0,0.0,0.0,0.0,0.0,0.0,0.0,0.0,0.0,0.0,0.0,0.0,0.0,0.0,0.0,0.0,0.0,0.0,0.0,0.0,2.9485,2.9853,3.0469,3.0864,3.0997,3.104,3.1075,3.107,3.2127,3.2903,3.3439,3.5125,3.5558,3.5013,3.5884,3.4917,3.2583,3.1728,3.1655,3.2087,3.209,3.209,3.209,3.209,3.1543,0.0,0.0,0.0,0.0,0.0,0.0,0.0,3.2111,3.2673,3.3307,3.4718,3.6705,3.8771,4.05,4.283,0.0,0.0,4.8382,4.9093,5.1008,5.093,5.1319,5.4388,5.4465,5.4116,5.4621,5.4737,5.4737,5.4737,5.5592,5.6369,5.6563,5.7301,5.7871,5.7892,5.8428,5.8843,5.8892,5.888,5.8919,5.8919,5.8965,5.8817,5.8487,5.9184,5.9365,5.897,5.9608,5.995,5.9885,5.9885,6.0031,6.0221,6.0931,6.1457,6.1907,6.3394,6.4453,6.5128,6.5128,6.5061,6.4993,6.4993,6.4958,6.4888,6.4743,6.4707,6.4707,6.4482,6.4482,6.467,0.0,0.0,0.0,0.0,0.0,0.0,0.0,0.0,0.0,0.0,0.0,0.0,0.0,0.0,0.0,0.0,0.0,0.0,0.0,0.0,0.0,2.9507,2.9919,2.9907,2.9479,2.9503,2.9745,3.0178,3.0646,3.1737,0.0,0.0,3.5325,3.5286,3.5771,3.4765,3.2664,3.1772,3.1697,3.209,3.209,3.209,3.209,3.209,3.1543,3.0801,3.0801,0.0,0.0,0.0,0.0,0.0,0.0,0.0,3.2527,3.4581,3.5562,3.6945,4.1442,0.0,0.0,4.8316,0.0,4.9066,5.0814,5.0192,5.0114,5.3145,5.3727,5.3844,5.4271,5.4737,5.5009,5.5009,5.5398,5.5825,5.6253,5.633,5.6511,5.6947,5.7236,5.748,5.7698,5.7586,5.756,5.7687,5.7759,5.7715,5.758,5.8024,5.8242,5.8097,5.8957,5.9412,5.9317,5.9728,5.9918,5.9885,6.0405,6.0855,6.1343,6.3079,6.4106,6.4524,6.5009,6.5128,6.5095,6.5095,6.5027,6.4958,6.485,6.4815,6.4781,6.4596,6.4332,6.4214,0.0,0.0,0.0,0.0,0.0,0.0,0.0,0.0,0.0,0.0,0.0,0.0,0.0,0.0,0.0,0.0,0.0,0.0,0.0,0.0,0.0,0.0,2.9329,2.8994,2.81,2.8311,2.8688,2.9281,0.0,0.0,0.0,0.0,0.0,3.5685,3.574,3.4811,3.3132,3.2243,3.1895,3.1895,3.1895,3.1895,3.1895,3.1895,3.1426,3.0801,3.0801,3.0801,3.0801,3.0958,0.0,0.0,0.0,0.0,3.1543,3.4319,3.4459,3.5313,4.2694,0.0,4.5258,4.9843,4.9765,0.0,5.0425,4.9648,4.9221,5.1513,5.264,5.3339,5.365,5.4155,5.4582,5.4737,5.4776,5.5048,5.5747,5.5359,5.5267,5.6003,5.6029,5.6078,5.6302,5.6146,5.6063,5.6302,5.6314,5.6417,5.6655,5.6827,5.7004,5.7187,5.8235,5.8798,5.8704,5.9564,5.9982,5.9918,5.9885,6.0297,6.1115,6.2699,6.3606,6.3878,6.4666,6.5079,6.5232,6.5232,6.5128,6.5023,6.5023,6.4993,6.4888,6.4779,6.4327,6.3868,0.0,0.0,0.0,0.0,0.0,0.0,0.0,0.0,0.0,0.0,2.5687,0.0,0.0,0.0,0.0,0.0,0.0,0.0,0.0,0.0,0.0,0.0,2.9077,2.9052,2.8124,2.8918,2.8992,2.8377,0.0,0.0,0.0,0.0,0.0,3.4846,0.0,3.3916,3.2207,3.1348,3.0958,3.0958,3.0958,3.0958,3.0958,3.0958,3.0919,3.0801,3.088,3.0841,3.0919,3.166,3.1926,0.0,0.0,0.0,3.1948,3.2368,3.3915,3.6051,0.0,0.0,4.7317,0.0,4.9337,4.8677,0.0,0.0,4.891,0.0,5.093,5.1979,5.3417,5.3183,5.2989,5.3727,5.3883,5.3922,5.4038,5.4607,5.5058,5.5247,5.5897,5.6278,5.6068,5.6033,5.6017,5.6033,5.6039,5.5962,5.5768,5.6522,5.679,5.6353,5.7992,5.8859,5.8798,5.9596,6.0013,6.0013,5.9918,5.9961,6.0107,6.1191,6.2503,6.4,6.4114,6.4572,6.5296,6.5296,6.5226,6.5161,6.5161,6.5061,6.4888,6.4888,6.4741,6.4626,0.0,0.0,0.0,0.0,0.0,0.0,0.0,0.0,0.0,0.0,0.0,2.5687,0.0,0.0,0.0,2.5699,2.5703,2.5898,2.6406,2.676,0.0,0.0,2.7753,2.7535,2.6657,2.7062,2.7371,0.0,0.0,0.0,0.0,3.3392,3.4488,0.0,0.0,0.0,0.0,3.1387,3.0528,3.0177,3.0606,3.1387,3.2168,3.1153,3.1699,3.2792,3.1348,0.0,3.0916,3.1806,3.2111,3.2097,3.206,0.0,0.0,0.0,3.278,3.4692,3.9276,4.3821,4.7861,0.0,4.9609,4.8599,4.8599,0.0,4.8133,4.8988,4.9843,5.0969,5.264,5.264,5.2678,5.3572,5.33,5.3145,5.3611,5.3623,5.3751,5.4241,5.4556,5.4682,5.4614,5.4912,5.5073,5.5088,5.5707,5.5924,5.5654,5.6059,5.6172,5.5921,5.6938,5.773,5.829,5.8995,5.9526,5.995,5.9918,5.9885,5.9885,6.0297,6.1527,6.3283,6.3771,6.452,6.5352,6.5352,6.5321,6.5264,6.5264,6.5199,6.5027,6.4993,6.462,6.4343,0.0,0.0,0.0,0.0,0.0,0.0,0.0,0.0,0.0,0.0,0.0,0.0,0.0,0.0,0.0,0.0,2.5703,2.5976,2.6641,2.6618,0.0,0.0,0.0,2.6328,2.5518,2.5795,2.614,0.0,0.0,0.0,3.1802,3.2892,3.4339,0.0,3.4625,0.0,0.0,0.0,0.0,0.0,3.1387,3.2558,3.3651,3.3027,3.4,3.5324,3.2712,0.0,0.0,0.0,3.2097,3.2088,3.2005,3.1981,0.0,0.0,0.0,0.0,0.0,0.0,4.6385,4.9454,4.9066,4.8094,0.0,0.0,4.755,0.0,4.9299,5.027,5.1513,5.194,5.229,5.295,5.2523,5.2329,5.295,5.269,5.2652,5.3312,5.3663,5.3731,5.3436,5.4012,5.4381,5.4284,5.5109,5.5625,5.5692,5.5653,5.5612,5.5612,5.6064,5.6702,5.7481,5.8377,5.9185,5.9918,5.9918,5.9885,5.9885,5.9885,6.0779,6.242,6.3251,6.4298,6.5383,6.5383,6.5352,6.5321,6.5321,6.5258,6.5199,6.5095,6.4676,6.4311,0.0,0.0,0.0,0.0,0.0,0.0,0.0,0.0,0.0,0.0,0.0,0.0,0.0,2.5696,2.57,2.57,2.57,2.5702,2.5742,2.5718,2.5673,2.5662,0.0,0.0,2.553,2.6359,0.0,0.0,0.0,0.0,3.0916,3.2628,3.4348,3.5991,3.5913,3.4471,3.2168,0.0,0.0,0.0,0.0,0.0,0.0,0.0,0.0,0.0,0.0,0.0,0.0,0.0,0.0,0.0,0.0,3.2007,3.1856,0.0,0.0,0.0,0.0,3.9897,0.0,4.6463,4.6812,0.0,0.0,0.0,4.755,4.8405,4.9299,4.992,4.9998,5.0697,5.128,5.1319,5.128,5.128,5.1319,5.2003,5.2491,5.2569,5.4012,5.4517,5.3224,5.3955,5.4362,5.4043,5.4104,5.4622,5.5673,5.5462,5.5336,5.5336,5.5968,5.6329,5.6358,5.7962,5.9216,6.0013,5.9918,5.9885,5.9885,5.9885,6.0443,6.1419,6.2216,6.3606,6.529,6.529,6.5352,6.5413,6.5413,6.5321,6.5199,6.5199,6.5207,6.5264,0.0,0.0,0.0,0.0,0.0,0.0,0.0,0.0,0.0,0.0,0.0,0.0,0.0,2.5691,2.5693,2.5693,2.5703,2.5699,2.5697,2.5636,2.5589,2.5599,0.0,0.0,0.0,0.0,0.0,0.0,0.0,2.7725,3.0007,3.1181,3.267,3.4315,3.4315,3.412,3.3651,3.1973,0.0,0.0,0.0,0.0,0.0,0.0,0.0,0.0,0.0,0.0,0.0,0.0,0.0,0.0,0.0,0.0,0.0,0.0,0.0,0.0,0.0,0.0,0.0,4.4054,4.5453,4.623,4.7162,4.7356,4.755,4.8405,4.8405,4.8561,4.9687,5.0603,5.1186,5.1202,5.1214,5.1186,5.1202,5.1486,5.1692,5.1692,5.2208,5.2343,5.1747,5.2337,5.2702,5.2503,5.3422,5.4309,5.49,5.5324,5.5653,5.5805,5.5878,5.6074,5.642,5.8014,5.8919,5.9191,5.9652,5.9885,5.9885,5.9885,6.0373,6.1202,6.1506,6.2667,6.4426,6.4457,6.4794,6.5352,6.5383,6.5383,6.5321,6.5264,6.5307,6.5509,0.0,0.0,0.0,0.0,0.0,0.0,0.0,0.0,0.0,0.0,0.0,0.0,0.0,0.0,2.6129,2.6092,2.609,2.5998,2.5679,2.5619,2.5583,2.5614,2.5522,0.0,0.0,2.5498,0.0,0.0,0.0,0.0,0.0,3.0401,3.1733,3.3378,3.3105,3.3456,0.0,0.0,0.0,3.1967,0.0,0.0,3.79,0.0,0.0,0.0,0.0,0.0,0.0,0.0,0.0,0.0,0.0,0.0,0.0,0.0,0.0,0.0,3.536,0.0,0.0,0.0,0.0,4.4481,4.6773,4.6851,4.6968,4.8677,4.8327,4.8094,4.926,4.9943,5.0498,5.1109,5.1186,5.1186,5.1214,5.1202,5.1202,5.1202,5.173,5.1761,5.0975,5.1756,5.2105,5.1614,5.2523,5.3483,5.4284,5.4797,5.528,5.5673,5.5528,5.5768,5.642,5.7443,5.8205,5.8774,5.9273,5.962,5.9885,5.9885,6.0189,6.0681,6.0681,6.1918,6.3872,6.3969,6.4496,6.529,6.5383,6.5383,6.5352,6.5314,6.5475,6.5692,0.0,0.0,0.0,0.0,0.0,0.0,0.0,0.0,0.0,0.0,0.0,0.0,0.0,0.0,0.0,2.6937,2.6895,2.6537,2.5697,2.5598,2.559,2.5614,2.5561,0.0,0.0,2.555,2.5583,2.564,2.645,2.7768,0.0,0.0,3.1658,3.3336,3.248,3.2558,3.3414,0.0,3.4153,3.3793,0.0,3.9286,3.9138,0.0,0.0,0.0,4.2783,4.1896,0.0,3.914,0.0,0.0,0.0,0.0,0.0,0.0,0.0,0.0,0.0,0.0,0.0,0.0,0.0,0.0,4.8094,0.0,4.5763,4.9104,4.9143,4.8561,4.8638,4.8621,4.9186,5.0936,5.1186,5.1175,5.1208,5.1186,5.1202,5.1202,5.2697,5.2974,5.1091,5.2321,5.2724,5.1553,5.1421,5.2133,5.3843,5.3861,5.4164,5.4912,5.4882,5.5329,5.6282,5.6269,5.7074,5.876,5.8742,5.9127,5.9885,5.9956,5.9956,5.9885,5.9956,6.1392,6.3736,6.3834,6.4426,6.529,6.5383,6.5321,6.5226,6.5475,6.5692,6.5826,0.0,0.0,0.0,0.0,0.0,0.0,0.0,0.0,0.0,0.0,0.0,0.0,0.0,0.0,2.7874,2.7828,2.7267,2.6782,2.6541,2.596,2.5607,2.5609,2.6198,2.6501,2.6428,2.6456,2.6482,2.6533,2.614,2.6836,2.8548,2.8817,3.0186,0.0,3.2228,3.2225,3.2416,3.2046,0.0,0.0,3.7705,3.9494,0.0,0.0,0.0,0.0,0.0,4.4063,4.283,0.0,4.0965,3.7933,0.0,0.0,0.0,0.0,0.0,0.0,3.4194,0.0,0.0,0.0,0.0,0.0,0.0,0.0,4.522,4.6773,4.7416,4.8088,4.931,4.9554,4.9886,5.1014,5.0653,5.0487,5.1097,5.1202,5.1202,5.1202,5.1641,5.1707,5.1153,5.1206,5.1164,5.0855,5.1152,5.1637,5.2346,5.3445,5.4479,5.5445,5.5091,5.5104,5.5568,5.6586,5.7308,5.7794,5.9008,5.9658,5.9956,6.0738,6.067,5.9956,6.0776,6.1773,6.28,6.2862,6.3796,6.5232,6.5226,6.5258,6.5258,6.5182,6.5454,6.5887,0.0,0.0,0.0,0.0,0.0,0.0,0.0,0.0,0.0,0.0,0.0,0.0,0.0,0.0,0.0,2.8762,2.7882,2.7245,2.6933,2.6085,2.5595,2.5615,2.6405,2.6825,2.6791,2.7161,2.7175,2.6877,2.6746,2.7206,2.8212,2.8563,2.9736,3.1543,0.0,0.0,0.0,0.0,0.0,0.0,3.812,0.0,0.0,4.4727,4.6021,0.0,0.0,0.0,4.5269,4.6113,4.351,0.0,0.0,0.0,0.0,0.0,0.0,0.0,0.0,0.0,0.0,0.0,0.0,0.0,4.1684,4.3316,4.4986,4.7628,4.831,4.8748,4.9709,4.9593,4.9642,5.0508,5.0226,5.0215,5.107,5.1797,5.1979,5.128,5.2146,5.2496,5.1785,5.2059,5.2121,5.1829,5.1552,5.1623,5.2073,5.3368,5.4534,5.5489,5.5212,5.5145,5.5312,5.6349,5.7081,5.7422,5.8748,5.9582,5.9956,6.1056,6.0989,5.9994,6.1438,6.2216,6.2425,6.28,6.3872,6.5345,6.5375,6.5456,6.552,6.5563,6.5774,6.609,0.0,0.0,0.0,0.0,0.0,0.0,0.0,0.0,0.0,0.0,0.0,0.0,0.0,0.0,0.0,0.0,2.8773,2.7887,2.7071,2.6223,2.5712,2.5583,2.6482,2.6942,2.6953,2.7828,2.7835,2.6942,2.7684,2.8096,2.8218,2.8973,2.9878,3.0774,0.0,0.0,0.0,0.0,0.0,3.409,3.8817,4.0994,0.0,0.0,4.7047,4.6705,4.8283,4.8341,4.7738,4.8183,4.5763,0.0,0.0,0.0,0.0,0.0,3.5049,0.0,0.0,0.0,0.0,0.0,0.0,0.0,4.3549,4.4015,4.4481,4.8988,4.9454,4.9077,4.9176,4.866,4.8416,4.9059,4.9593,5.0215,5.1092,5.2547,5.2989,5.1513,5.3402,5.4269,5.2678,5.3751,5.4258,5.3538,5.2299,5.1873,5.2498,5.3465,5.435,5.5121,5.5298,5.5336,5.5312,5.6026,5.6694,5.7422,5.8369,5.9203,5.9956,6.12,6.1095,6.0031,6.2078,6.2742,6.2463,6.3296,6.4318,6.5493,6.5548,6.5692,6.593,6.6239,6.6345,6.6322,0.0,0.0,0.0,0.0,0.0,0.0,0.0,0.0,0.0,0.0,0.0,0.0,0.0,0.0,0.0,0.0,2.9962,2.8737,2.7923,2.711,2.6318,2.5613,2.7079,2.7935,2.7945,2.8773,2.8767,2.7848,2.7394,2.749,2.8218,2.8312,2.9207,3.0709,3.0709,0.0,0.0,0.0,0.0,3.5605,3.801,0.0,4.342,4.6316,4.8147,4.9204,4.9554,4.9543,4.9116,4.7162,4.5958,4.4753,0.0,0.0,0.0,3.8305,0.0,0.0,0.0,0.0,0.0,0.0,0.0,0.0,3.811,3.9664,4.1529,4.1879,4.2869,4.3928,4.4608,4.5162,4.5366,4.4841,4.765,5.0197,5.1092,5.2041,5.2535,5.2286,5.3246,5.3817,5.3494,5.3567,5.3607,5.3452,5.2319,5.2034,5.2877,5.3114,5.3574,5.4311,5.51,5.5484,5.5312,5.6714,5.7396,5.7422,5.8938,5.9734,5.9956,6.1962,6.1792,6.0031,6.2919,6.3485,6.2463,6.3296,6.4318,6.5493,6.5417,6.5589,6.5887,6.5903,6.607,6.6306,0.0,0.0,0.0,0.0,0.0,0.0,0.0,0.0,0.0,0.0,0.0,0.0,0.0,0.0,0.0,0.0,0.0,0.0,0.0,0.0,2.6656,2.6279,2.7507,2.8207,2.819,2.9434,2.9661,2.8748,2.8787,2.88,2.8812,2.9221,3.0542,3.2545,3.1728,3.2032,0.0,0.0,3.4074,3.5541,3.8994,0.0,4.5101,4.768,4.9437,5.0542,5.0542,5.0542,5.0348,4.9027,4.7434,0.0,4.4481,4.3821,4.3005,0.0,4.0558,4.1102,0.0,0.0,0.0,3.8499,0.0,0.0,0.0,3.9664,4.0791,4.25,4.286,4.3258,4.454,4.4424,4.4152,4.4152,4.6688,4.8652,4.8662,5.1219,5.2958,5.2569,5.3608,5.431,5.4217,5.459,5.4614,5.411,5.358,5.3397,5.3685,5.3725,5.4169,5.5017,5.5383,5.5633,5.5671,5.7008,5.7624,5.7558,5.9147,5.9885,5.9994,6.2169,6.2272,6.0883,6.3399,6.4008,6.322,6.3638,6.4526,6.5654,6.5575,6.5859,6.629,6.6239,6.6345,6.6489,3.0668,0.0,0.0,0.0,0.0,0.0,0.0,0.0,0.0,0.0,0.0,0.0,0.0,0.0,0.0,0.0,0.0,0.0,0.0,0.0,2.7738,2.7651,2.8163,2.859,2.8935,3.0089,3.0277,2.9408,3.0114,3.0075,2.9408,3.0108,3.1739,3.3954,3.2943,3.3612,0.0,0.0,0.0,3.6455,0.0,4.3467,4.5191,4.8077,4.9687,5.0503,5.1008,5.1202,5.1163,5.0814,4.8832,4.654,4.6735,4.5725,0.0,0.0,0.0,0.0,0.0,0.0,0.0,0.0,0.0,3.9004,0.0,0.0,0.0,4.3394,4.2966,4.2471,0.0,4.3102,4.2432,4.2965,4.4948,4.6047,4.5023,4.9031,5.1979,5.1802,5.3697,5.4893,5.4529,5.4968,5.519,5.5025,5.428,5.4041,5.4476,5.4357,5.4752,5.5768,5.559,5.5709,5.6249,5.7319,5.7877,5.8001,5.9337,5.9944,5.9994,6.2169,6.2618,6.1726,6.3847,6.4488,6.4,6.425,6.4895,6.5779,6.5851,6.6185,6.6657,6.6696,6.6696,6.6669,3.0759,3.0729,0.0,0.0,0.0,0.0,0.0,0.0,0.0,0.0,0.0,0.0,0.0,0.0,0.0,0.0,0.0,0.0,3.1671,0.0,0.0,3.032,2.9674,3.0063,3.1559,3.1065,3.0308,2.9408,2.9506,2.9506,2.9408,2.9486,3.0535,3.2361,3.3643,0.0,0.0,0.0,3.8486,0.0,4.2801,4.2188,0.0,4.4919,4.6968,4.8055,5.0386,5.1202,5.0969,0.0,4.8638,4.7939,0.0,4.6424,4.7395,4.4171,0.0,0.0,0.0,0.0,0.0,0.0,4.184,0.0,0.0,0.0,3.8266,3.7178,0.0,3.6751,0.0,0.0,0.0,3.6931,4.0166,4.2244,4.0665,4.3553,4.6658,4.8866,5.258,5.4696,5.3909,5.2408,5.2795,5.5889,5.2405,5.1494,5.4657,5.4003,5.4003,5.4996,5.4953,5.5622,5.7149,5.7981,5.8603,5.8948,5.9813,6.0112,5.9994,6.2169,6.2618,6.1753,6.4656,6.5202,6.4106,6.5087,6.5603,6.573,6.5964,6.6278,6.662,6.6594,6.6607,6.6633,3.0759,3.0699,0.0,0.0,0.0,0.0,0.0,0.0,0.0,0.0,0.0,0.0,0.0,0.0,0.0,0.0,0.0,3.5611,0.0,0.0,0.0,0.0,3.1125,3.1047,3.1229,3.1424,3.1061,3.0146,3.0153,3.0153,3.0185,3.069,3.2089,3.4264,3.6012,0.0,3.9043,0.0,4.08,0.0,0.0,0.0,0.0,4.6618,4.926,4.9726,5.0814,5.1202,5.1086,5.0348,4.8755,0.0,0.0,0.0,0.0,4.5841,0.0,0.0,0.0,0.0,0.0,0.0,0.0,0.0,3.8122,0.0,3.6881,3.7153,0.0,0.0,0.0,0.0,0.0,0.0,3.8921,4.033,3.9132,4.191,4.4868,4.6951,4.874,5.0675,5.2819,5.3078,5.3785,5.541,5.3793,5.3404,5.4929,5.4996,5.5133,5.5511,5.5505,5.6071,5.7273,5.8092,5.8836,5.9513,6.0173,6.0418,6.0179,6.1799,6.2512,6.258,6.39,6.4756,6.5202,6.5225,6.5501,6.5942,6.6244,6.6439,6.6594,6.662,6.662,6.6594,3.0723,0.0,0.0,0.0,0.0,0.0,0.0,0.0,0.0,0.0,0.0,0.0,3.8676,3.8354,0.0,0.0,3.883,3.8064,0.0,0.0,3.5146,0.0,0.0,0.0,0.0,3.2259,3.1669,3.104,3.0814,3.0814,3.1079,3.17,3.3215,3.5546,3.7761,3.9897,4.1917,0.0,4.3199,4.2267,4.3899,4.386,4.3394,4.8289,5.0581,5.1202,5.1202,5.1202,5.1125,5.0658,4.8794,4.7123,4.9404,4.8161,4.6102,0.0,0.0,0.0,4.4936,0.0,0.0,0.0,0.0,0.0,0.0,0.0,0.0,3.7672,3.7881,0.0,0.0,0.0,3.751,3.7104,0.0,3.9168,3.7855,4.0057,4.2555,4.4491,4.5502,4.7485,5.107,5.1953,5.2739,5.387,5.353,5.3836,5.5024,5.5294,5.5617,5.6082,5.6078,5.6606,5.7722,5.8575,5.939,6.0189,6.0634,6.0685,6.0482,6.1797,6.2772,6.3367,6.3917,6.4907,6.6069,6.5565,6.5624,6.6128,6.6406,6.6524,6.6553,6.6553,6.6553,6.6553,3.0697,3.0691,0.0,0.0,0.0,0.0,0.0,0.0,0.0,0.0,0.0,0.0,0.0,0.0,0.0,0.0,0.0,4.2271,4.0559,0.0,3.88,0.0,0.0,3.4793,0.0,0.0,3.2007,3.1972,3.1093,3.1132,3.1972,3.2004,3.2905,3.4692,3.8149,4.013,4.1102,4.3666,4.6113,4.825,4.7473,4.8638,5.0581,4.8289,4.8988,5.1202,5.1202,5.1202,5.093,4.926,4.8599,4.8405,4.7672,4.7893,4.8463,4.8477,0.0,0.0,4.7533,4.7674,4.708,4.2022,4.139,4.0887,3.6632,3.7549,3.8864,3.729,3.8864,4.0089,3.8516,3.8825,3.8798,3.7168,3.8363,0.0,0.0,3.6703,3.8274,4.0866,4.4035,4.6696,4.8561,4.7183,4.7597,5.1035,4.9703,5.0592,5.4868,5.4206,5.4504,5.6347,5.6265,5.7042,5.8838,5.9794,6.0565,6.1167,6.1151,6.0997,6.0766,6.2665,6.3553,6.3669,6.5591,6.6278,6.6128,6.6351,6.6316,6.6128,6.6406,6.6508,6.6508,6.6508,6.6508,6.6508,0.0,0.0,0.0,0.0,0.0,0.0,0.0,3.448,0.0,0.0,0.0,0.0,0.0,4.2816,4.3239,0.0,0.0,4.3458,4.2386,4.1247,0.0,0.0,0.0,3.688,0.0,0.0,0.0,3.2866,3.2562,3.2562,3.2866,3.341,3.3954,3.4692,3.8693,4.1296,0.0,0.0,0.0,0.0,0.0,4.8522,5.0309,4.9998,5.0425,5.1202,5.1202,5.1202,5.1125,5.0503,4.952,4.8681,4.9523,4.8787,4.7818,4.8966,4.9107,4.8716,4.8037,4.891,4.8739,4.3567,4.295,4.2309,3.7501,3.7912,3.8838,3.7193,3.9287,4.0737,3.8556,3.8839,3.9045,3.7936,3.7765,3.7467,0.0,3.6833,3.7375,3.8239,4.1908,4.4569,4.5162,4.7094,4.9025,5.0811,5.1407,5.2351,5.3882,5.4929,5.5408,5.5294,5.6535,5.7675,5.8713,5.9772,6.07,6.1456,6.1456,6.1291,6.1053,6.225,6.2775,6.2817,6.4653,6.5463,6.5575,6.6275,6.6493,6.6389,6.6454,6.6508,6.6508,6.6508,6.6508,6.6508,3.2409,0.0,0.0,0.0,0.0,0.0,0.0,0.0,0.0,0.0,4.1062,0.0,4.4102,0.0,4.4432,0.0,4.5086,4.4427,4.3682,4.2811,0.0,4.206,4.0176,0.0,0.0,0.0,0.0,0.0,3.4039,3.3767,3.372,3.4264,3.4653,3.5119,3.881,4.1568,4.3704,4.6812,4.8172,0.0,0.0,4.9066,5.0425,5.1008,5.1008,5.0775,5.1086,5.1202,5.1202,5.1202,5.0414,4.9652,5.0752,4.9899,4.872,4.9814,4.973,4.9196,4.8806,4.9465,4.9332,4.5064,4.441,4.3657,3.9153,3.9653,4.0693,3.9307,4.0754,4.214,4.1724,4.0622,3.9711,3.9507,3.8273,3.71,0.0,3.6492,3.6523,3.6523,3.9597,4.2024,4.2858,4.5079,4.7428,4.9761,5.0981,5.207,5.3014,5.4914,5.5597,5.4867,5.6998,5.8343,5.8726,6.0055,6.1042,6.1607,6.1607,6.1518,6.1383,6.2157,6.2672,6.2975,6.4411,6.5281,6.5693,6.6305,6.6538,6.6508,6.6508,6.6508,6.6508,6.6508,6.6508,6.6508,0.0,0.0,0.0,0.0,3.2765,0.0,0.0,0.0,3.8715,0.0,4.2233,4.3564,4.4482,4.5257,4.5701,4.5701,4.5701,4.5411,4.4636,4.375,0.0,0.0,4.2251,4.1725,4.3478,0.0,0.0,0.0,0.0,3.4676,3.4622,3.4575,3.5002,3.5896,3.8421,0.0,4.3666,4.6191,4.8289,4.9959,4.9959,5.0425,5.1125,5.1163,5.0658,4.9998,5.0891,5.1202,5.1202,5.1202,5.1202,5.119,5.1114,5.1087,5.1073,5.0913,5.088,5.0692,4.9795,4.9584,4.8949,4.6373,4.5701,4.4778,4.1431,4.2624,4.4201,4.3316,4.3278,4.4278,4.724,4.3816,4.0777,4.1508,3.9605,3.7475,3.5797,3.5669,3.5737,3.5815,3.7375,3.9306,0.0,4.145,4.3179,4.7984,4.8526,4.9798,5.2403,5.4041,5.4946,5.5024,5.7614,5.8997,5.8997,6.0672,6.1549,6.1607,6.1607,6.1607,6.1646,6.2435,6.3219,6.3974,6.4908,6.5722,6.6431,6.647,6.6508,6.6508,6.6508,6.6508,6.6508,6.6508,6.6508,6.6508,3.3292,3.4011,3.4942,0.0,3.4788,3.5052,0.0,0.0,0.0,0.0,4.4295,4.5509,4.6989,4.7317,4.7471,4.7471,4.7471,0.0,0.0,0.0,0.0,4.7229,4.4847,4.4028,4.5109,4.1803,0.0,3.9859,0.0,3.6384,3.6433,3.5788,3.5585,3.5896,3.7838,4.048,4.3627,4.553,4.8094,5.0853,5.0853,5.0619,5.0309,5.0969,5.0658,4.9998,5.0891,5.1202,5.1202,5.1202,5.119,5.1114,5.1048,5.0975,5.0913,5.0812,5.0758,5.0682,5.0471,5.0375,4.9913,4.7932,4.7009,4.6009,4.3816,4.4816,4.5817,4.4316,4.5509,4.6124,4.3855,4.2354,4.0931,3.9238,3.7906,0.0,0.0,0.0,0.0,3.739,3.8465,3.8864,3.8414,4.202,4.5258,4.7216,4.8561,5.041,5.3019,5.2535,5.2796,5.4097,5.7292,5.8997,5.8997,6.0672,6.1549,6.1607,6.1607,6.1607,6.1646,6.2435,6.2908,6.3196,6.4675,6.5372,6.5576,6.6237,6.6508,6.6508,6.6508,6.6508,6.6508,6.6508,6.6508,6.6508,3.4853,0.0,0.0,3.7959,0.0,0.0,4.0202,4.0438,0.0,4.397,4.5393,0.0,4.6932,4.8009,4.8509,4.8125,4.8143,0.0,4.7658,0.0,0.0,4.7619,4.6634,4.6304,4.6783,4.4607,0.0,4.1877,0.0,3.8103,3.7053,3.6198,3.5818,3.5896,3.7605,4.0092,4.3122,4.5919,4.8483,5.0619,5.0619,5.0581,0.0,5.1008,5.0891,5.0542,5.1008,5.1202,5.1202,5.1202,5.1127,5.105,5.102,5.0945,5.0863,5.072,5.0682,5.0625,5.026,5.0125,4.9779,4.8432,4.8048,4.7548,4.5817,4.6471,4.724,4.6663,4.6778,4.6971,4.6817,4.3739,4.0277,3.7392,3.6507,0.0,0.0,0.0,0.0,0.0,3.7808,3.7815,3.659,4.1364,4.4791,4.5336,4.7351,4.9005,5.0104,5.1564,5.263,5.3191,5.6959,5.8965,5.8976,6.065,6.1528,6.1549,6.1607,6.1607,6.1607,6.2055,6.2647,6.3391,6.4299,6.5114,6.5809,6.6314,6.6508,6.6508,6.6508,6.6508,6.6508,6.6508,6.6508,6.6508,3.6939,0.0,0.0,0.0,0.0,0.0,0.0,4.2441,0.0,4.4586,0.0,4.7124,4.6355,4.824,4.9279,4.8509,0.0,4.8197,4.7447,4.812,4.8197,4.7447,4.7951,4.8354,4.8502,4.751,4.5858,0.0,0.0,3.9529,3.7007,3.619,3.5818,3.5896,3.7605,0.0,0.0,4.6929,4.9182,5.0076,5.0076,5.0503,5.1202,5.1202,5.1202,5.1202,5.1202,5.1202,5.1202,5.119,5.1114,5.1009,5.0966,5.0929,5.0863,5.0604,5.0528,5.0336,4.949,4.924,4.9048,4.8279,4.8663,4.8856,4.7394,4.7702,4.8509,4.924,4.774,4.7509,5.1625,4.6047,3.9777,3.6546,3.6276,3.6546,0.0,0.0,0.0,0.0,0.0,0.0,3.6174,4.0304,4.3041,4.2974,4.5254,4.6618,4.6502,5.0614,5.2919,5.2841,5.6691,5.8764,5.8904,6.0499,6.1379,6.1489,6.1549,6.1598,6.1598,6.1598,6.2463,6.4001,6.4001,6.4947,6.6508,6.6508,6.6508,6.6508,6.6508,6.6508,6.6508,6.6508,6.6508,6.6508,3.7815,0.0,0.0,0.0,0.0,4.3371,4.4718,4.5547,4.6355,4.7317,4.8933,4.9971,4.9817,5.0202,5.0394,5.024,5.026,0.0,0.0,0.0,0.0,5.0029,4.9471,4.9528,5.024,4.8116,4.6113,0.0,4.1966,3.9558,3.7148,3.6215,3.5788,3.5881,3.7614,0.0,4.5491,4.7667,4.9532,5.0969,5.0969,5.1047,5.1202,5.1202,5.1202,5.1202,5.1202,5.1202,5.119,5.1063,5.1023,5.0995,5.0858,5.0846,5.0657,4.9855,4.9644,4.9452,4.8548,4.8317,4.8279,4.8125,4.8202,4.824,4.7971,4.8548,4.9202,4.9356,4.9625,4.9433,4.824,4.5086,4.1777,3.9084,4.0392,4.2008,0.0,0.0,0.0,0.0,0.0,4.2341,3.8249,4.0578,4.2063,4.1354,4.2413,4.487,4.8988,4.8787,5.0381,5.4439,5.6679,5.8168,5.888,5.993,6.0798,6.1495,6.1495,6.1534,6.1534,6.1534,6.2406,6.4001,6.4001,6.4959,6.6508,6.6508,6.6508,6.6508,6.6508,6.6508,6.6508,6.6508,6.6508,6.6508,0.0,0.0,0.0,0.0,0.0,0.0,4.6701,4.8009,4.8702,4.8163,4.8817,4.9356,4.9356,5.0144,5.0702,5.0702,5.074,5.074,5.0702,5.0702,5.0702,5.0702,5.0279,5.0279,5.0702,4.9527,4.7636,4.5079,4.304,4.0571,3.7695,3.6393,3.5788,3.592,3.9013,4.2228,4.553,4.8172,4.9765,5.0581,5.1008,5.1202,5.1202,5.1202,5.1202,5.1202,5.1202,5.1178,5.1102,5.1037,5.0995,5.0937,5.0825,5.0468,5.0008,4.9528,4.9086,4.8548,4.7702,4.7471,4.7355,4.6932,4.7124,4.7471,4.7471,4.8471,4.9394,4.9394,5.0087,4.9933,4.7355,4.4816,4.2701,4.147,4.1546,4.2354,4.4047,0.0,4.4054,0.0,0.0,0.0,0.0,3.9917,4.0208,4.0256,4.1461,4.4054,4.8327,4.8222,4.9982,5.4194,5.646,5.7988,5.8843,5.975,6.0631,6.146,6.1472,6.1484,6.1484,6.1484,6.2393,6.4001,6.4001,6.4945,6.6508,6.6508,6.6508,6.6508,6.6508,6.6508,6.6508,6.6508,6.6508,6.6508,0.0,4.3836,0.0,0.0,4.6471,4.7355,4.8009,4.9586,5.0202,4.8817,4.8663,4.8663,4.8663,4.9894,5.0682,5.0682,5.0758,5.0776,5.0682,5.0682,5.0702,5.0702,5.0702,5.0702,5.0702,5.0683,4.9124,0.0,4.4298,4.179,3.8468,3.7026,3.6642,3.7319,4.0684,4.3471,4.5763,4.8483,4.9843,5.0231,5.093,5.1202,5.1202,5.1202,5.1202,5.1202,5.119,5.1102,5.1009,5.0981,5.0937,5.0819,5.058,5.0008,4.9317,4.8971,4.8394,4.7663,4.6855,4.6624,4.6471,4.5778,4.6124,4.6663,4.6855,4.8048,4.9163,4.9356,5.0087,4.9933,4.7355,4.5701,4.4547,4.4008,4.3201,4.3431,4.5532,4.5765,0.0,0.0,0.0,0.0,4.1493,4.0449,4.01,4.0713,4.149,4.3433,4.6851,4.8028,5.0165,5.3623,5.5721,5.7276,5.8247,5.9348,6.0411,6.1383,6.1447,6.146,6.146,6.146,6.2419,6.3987,6.3987,6.4945,6.6508,6.6508,6.6508,6.6508,6.6508,6.6508,6.6508,6.6508,6.6508,6.6508,0.0,0.0,0.0,0.0,4.6932,4.8009,4.8086,4.9586,5.0625,5.0471,5.0471,5.0471,5.0471,5.0606,5.0721,5.0721,5.0721,5.0721,5.0721,5.0721,5.0721,5.0702,5.0702,5.0702,5.0702,5.0758,4.9483,4.6767,4.522,4.2753,3.9441,3.8558,3.9392,4.1616,4.2034,4.4443,4.825,4.8599,4.9648,5.1086,5.1163,5.1202,5.1202,5.1202,5.1202,5.119,5.105,5.1023,5.0995,5.0858,5.0791,5.0657,4.9797,4.949,4.9086,4.7586,4.7086,4.6817,4.597,4.5701,4.5701,4.5624,4.5663,4.5932,4.674,4.7586,4.8432,4.924,5.0087,4.9933,4.7355,4.8586,4.924,4.6932,4.8355,5.0009,5.0801,5.1041,5.0176,4.7533,0.0,0.0,4.4095,4.452,4.4791,4.4289,4.2247,4.2549,4.6027,4.7738,5.0187,5.3697,5.4035,5.4929,5.6523,5.813,5.9749,6.1381,6.1419,6.1419,6.1419,6.1419,6.2352,6.3998,6.3998,6.4955,6.6508,6.6508,6.6508,6.6508,6.6508,6.6508,6.6508,6.6508,6.6508,6.6508,4.7778,4.7355,4.7278,4.8432,4.8355,4.8471,4.951,5.024,5.0702,5.0702,5.0702,5.0702,5.0702,5.0702,5.0702,5.0702,5.0702,5.0702,5.0702,5.0683,5.0702,5.0702,5.0702,5.0702,5.0702,5.0702,4.972,4.7622,4.5534,4.3337,4.1025,4.0276,4.1277,4.3782,4.4792,4.6502,4.8638,4.9143,5.0076,5.1163,5.0619,5.0736,5.1125,5.0619,5.0402,5.0326,5.03,4.9882,4.9444,4.9881,5.0002,4.9946,4.9547,4.8702,4.7778,4.7086,4.6547,4.6047,4.5701,4.597,4.6394,4.6394,4.674,4.7201,4.7548,4.8279,4.8971,4.9317,5.0087,5.0394,4.9356,4.874,4.8548,4.8931,4.8987,4.9516,5.1141,5.1358,0.0,5.0453,0.0,4.7919,4.7767,4.5899,4.5064,4.6003,4.4253,4.3984,4.5988,4.8194,5.0487,5.2896,5.4995,5.664,5.7857,5.8985,6.019,6.1408,6.1394,6.1419,6.1419,6.1419,6.2352,6.4061,6.5071,6.5887,6.6508,6.6508,6.6508,6.6508,6.6508,6.6508,6.6508,6.6508,6.6508,6.6508,4.9663,4.8817,4.8586,5.0394,4.9663,4.9279,5.051,5.0702,5.0702,5.0702,5.0702,5.0702,5.0702,5.0702,5.0721,5.0721,5.0721,5.0721,5.0721,5.0683,5.0702,5.0702,5.0702,5.0702,5.0702,5.0702,5.0087,4.8856,4.6651,4.4877,4.3465,4.2431,4.3296,4.5686,4.6771,4.7959,4.9278,4.9678,5.0207,5.0775,5.0153,5.0114,5.0386,4.9753,4.9446,4.9395,4.9354,4.8918,4.8381,4.8887,4.8926,4.8715,4.8682,4.7855,4.6855,4.6586,4.6086,4.5663,4.5893,4.6432,4.6971,4.7201,4.7702,4.8163,4.8432,4.8971,4.9471,4.974,5.0279,5.0702,5.0702,4.9163,4.847,5.0068,4.9274,4.902,5.0816,5.097,5.0979,5.1121,4.9012,4.8223,4.9948,4.7597,4.6551,4.7871,4.7712,4.7533,4.7517,4.9225,5.0972,5.2705,5.5385,5.7237,5.8142,5.9478,6.0553,6.1396,6.1408,6.1381,6.1419,6.1924,6.2857,6.41,6.577,6.6508,6.6508,6.6508,6.6508,6.6508,6.6508,6.6508,6.6508,6.6508,6.6508,6.6508,5.0664,5.0664,5.0664,5.0702,5.0664,5.0664,5.0702,5.0702,5.0702,5.0702,5.0702,5.0702,5.0702,5.0702,5.0702,5.0702,5.0702,5.0702,5.0702,5.0702,5.0702,5.0702,5.0702,5.0702,5.0702,5.0702,5.0702,5.0664,4.8967,4.7747,4.6899,4.5324,4.5688,4.7642,4.7185,4.843,5.0805,4.9954,4.973,4.992,4.9881,4.9376,4.8638,4.8541,4.8516,4.849,4.8369,4.8321,4.8304,4.8161,4.7586,4.6932,4.6932,4.6932,4.674,4.5855,4.5586,4.5778,4.6663,4.6894,4.7086,4.7894,4.8086,4.8317,4.9202,4.9394,4.9625,5.051,5.0702,5.0702,5.0702,5.0504,5.0336,5.0206,4.9999,5.0069,5.0621,5.0883,5.0326,4.857,4.8656,4.9172,4.9846,5.0336,5.0509,5.027,5.2897,5.3395,5.096,5.0874,5.1731,5.3546,5.4477,5.5424,5.6414,5.8958,6.0618,6.1396,6.1396,6.1408,6.1458,6.3168,6.3983,6.41,6.577,6.6508,6.6508,6.6508,6.6508,6.6508,6.6508,6.6508,6.6508,6.6508,6.6508,6.6508,5.0702,5.0702,5.0702,5.0702,5.0702,5.0702,5.0702,5.0702,5.0702,5.0702,5.0702,5.0702,5.0702,5.0702,5.0702,5.0702,5.0702,5.0702,5.0702,5.0702,5.0702,5.0702,5.0702,5.0702,5.0702,5.0702,5.0702,5.0702,4.9026,4.8094,4.7874,4.7169,4.7833,4.9567,4.876,4.8817,4.951,4.8235,4.8034,4.8562,4.8005,4.7998,4.8237,4.7627,4.7434,4.7457,4.7433,4.6998,4.6562,4.7086,4.674,4.6009,4.6009,4.6009,4.597,4.5663,4.5586,4.5778,4.6663,4.7317,4.7932,4.8779,4.9433,4.9933,5.0202,5.0279,5.0356,5.0625,5.0504,5.038,5.05,5.0221,5.0,4.9959,5.0213,5.0463,5.0483,5.0975,5.1316,5.1255,5.0867,5.1217,5.2768,5.2046,5.1364,5.1123,5.0894,5.0009,4.8392,5.1618,5.3204,5.2655,5.5816,5.7674,5.8039,6.0009,6.1162,6.1468,6.1434,6.1394,6.1458,6.3206,6.3983,6.41,6.577,6.6508,6.6508,6.6508,6.6508,6.6508,6.6508,6.6508,6.6508,6.6508,6.6508,6.6508,5.0683,5.0702,5.0702,5.0721,5.0721,5.0721,5.0721,5.0702,5.0702,5.0702,5.0683,5.0702,5.0702,5.0702,5.0702,5.0702,5.0702,5.0702,5.0702,5.0702,5.0702,5.0702,5.0702,5.0702,5.0702,5.0702,5.0702,5.0702,4.9528,4.8932,4.8874,4.8736,4.9143,4.9973,4.8861,4.8525,4.8716,4.7138,4.6837,4.7319,4.6801,4.7029,4.7576,4.6985,4.6865,4.6992,4.6981,4.6369,4.574,4.6624,4.6547,4.6124,4.6432,4.6547,4.6471,4.6163,4.6278,4.674,4.7586,4.8202,4.8817,4.9663,5.0279,5.0702,5.0702,5.0702,5.0702,5.0702,5.0462,5.0405,5.075,5.0456,5.0232,5.0493,5.083,5.1054,5.122,5.1599,5.1897,5.1821,5.1372,5.1516,5.2765,5.2065,5.1798,5.2513,5.1802,5.0993,5.0202,5.2124,5.3335,5.3584,5.6897,5.8715,5.8791,6.0553,6.146,6.1489,6.1447,6.1394,6.1458,6.3206,6.3983,6.41,6.577,6.6508,6.6508,6.6508,6.6508,6.6508,6.6508,6.6508,6.6508,6.6508,6.6508,6.6508,5.0682,5.0701,5.072,5.0773,5.0773,5.0773,5.0812,5.0738,5.0701,5.0701,5.0702,5.0721,5.0702,5.0702,5.0702,5.0702,5.0702,5.0702,5.0702,5.0702,5.0702,5.0702,5.0702,5.0702,5.0702,5.0702,5.0702,5.0682,5.0336,5.0062,4.9803,4.9834,4.9617,4.9188,4.7843,4.7693,4.8337,4.6695,4.6121,4.6326,4.6326,4.649,4.6723,4.6608,4.6723,4.6943,4.6912,4.6394,4.5817,4.6701,4.6971,4.7124,4.7855,4.8125,4.8048,4.724,4.7509,4.8279,4.9163,4.9394,4.9625,5.0471,5.0702,5.0702,5.0702,5.0702,5.0702,5.0759,5.0598,5.0673,5.1395,5.1168,5.1042,5.1673,5.1663,5.1822,5.2494,5.2642,5.2195,5.0904,5.075,5.075,5.075,5.1088,5.2046,5.3917,5.4686,5.5071,5.5046,5.2346,5.2377,5.5789,5.7639,5.8668,5.8778,6.0592,6.1495,6.1489,6.1433,6.1421,6.1458,6.3206,6.3983,6.41,6.577,6.6508,6.6508,6.6508,6.6508,6.6508,6.6508,6.6508,6.6508,6.6508,6.6508,6.6508,5.0683,5.0683,5.0702,5.0701,5.072,5.0738,5.0773,5.0812,5.0738,5.0701,5.0682,5.0702,5.0721,5.0702,5.0702,5.0702,5.0702,5.0702,5.0702,5.0702,5.0702,5.0702,5.0702,5.0702,5.0702,5.0702,5.0584,5.0336,5.0038,4.9884,4.9803,4.9608,4.9469,4.9277,4.759,4.729,4.7965,4.6431,4.6139,4.6759,4.6759,4.6868,4.6948,4.6511,4.644,4.6587,4.68,4.6778,4.674,4.7548,4.7817,4.7855,4.8048,4.8548,4.8933,4.8086,4.7971,4.8279,4.9163,4.9394,4.9625,5.0471,5.0702,5.0702,5.0702,5.0702,5.0816,5.1239,5.1078,5.1033,5.1706,5.1523,5.1332,5.1585,5.2043,5.2419,5.2642,5.3163,5.3423,5.3051,5.3014,5.3014,5.3014,5.3123,5.2704,5.1555,5.1811,5.2182,5.2471,5.1945,5.2955,5.5789,5.7639,5.8651,5.8711,6.0527,6.1408,6.1421,6.1408,6.1421,6.1458,6.3206,6.3983,6.41,6.577,6.6508,6.6508,6.6508,6.6508,6.6508,6.6508,6.6508,6.6508,6.6508,6.6508,6.6508,5.0702,5.0702,5.0721,5.0794,5.0812,5.0791,5.0825,5.0863,5.0829,5.0738,5.072,5.0682,5.0721,5.0702,5.0702,5.0702,5.0702,5.0702,5.0702,5.0702,5.0702,5.0702,5.0525,5.0483,5.0483,5.0336,5.0221,5.0038,4.9749,4.9646,4.9617,4.9315,4.916,4.9085,4.7756,4.7611,4.8282,4.7111,4.7068,4.7815,4.7815,4.7972,4.8068,4.7408,4.7327,4.757,4.7353,4.7357,4.7586,4.8394,4.8702,4.8779,4.9163,4.9625,4.9894,4.9433,4.9279,4.9394,4.9856,4.9971,5.0087,5.0587,5.0702,5.0779,5.1164,5.116,5.1223,5.1888,5.1733,5.1617,5.2258,5.2183,5.2121,5.2529,5.2307,5.2308,5.3089,5.294,5.2977,5.372,5.3832,5.3869,5.3794,5.387,5.3457,5.2381,5.2583,5.2927,5.3249,5.3519,5.4495,5.6368,5.7833,5.8806,5.9265,6.0722,6.146,6.146,6.1408,6.1421,6.1458,6.3206,6.3983,6.41,6.577,6.6508,6.6508,6.6508,6.6508,6.6508,6.6508,6.6508,6.6508,6.6508,6.6508,6.6508,5.0682,5.0682,5.072,5.0863,5.088,5.088,5.089,5.0913,5.088,5.0829,5.0738,5.0682,5.0721,5.0702,5.0702,5.0702,5.0702,5.0702,5.0702,5.0644,5.0624,5.0624,5.0313,5.0135,5.0135,4.9884,4.9749,4.9749,4.9469,4.9321,4.9321,4.9139,4.9076,4.9039,4.837,4.8519,4.9224,4.8407,4.8519,4.9299,4.9299,4.9359,4.9433,4.8596,4.8559,4.8838,4.8121,4.8064,4.8432,4.9317,4.9586,4.974,5.0471,5.0702,5.0702,5.0702,5.0702,5.0702,5.0702,5.0702,5.0702,5.0702,5.0644,5.0855,5.1642,5.1599,5.1675,5.2565,5.2399,5.2263,5.2956,5.2972,5.294,5.32,5.2419,5.2122,5.3088,5.2382,5.2271,5.3645,5.3907,5.3944,5.3794,5.4018,5.4161,5.4296,5.4746,5.5064,5.5314,5.5554,5.619,5.7255,5.8123,5.9099,6.0196,6.1033,6.1472,6.1484,6.1447,6.1408,6.1458,6.3206,6.3983,6.41,6.577,6.6508,6.6508,6.6508,6.6508,6.6508,6.6508,6.6508,6.6508,6.6508,6.6508,6.6508,5.0721,5.0683,5.0721,5.0812,5.0829,5.0808,5.089,5.089,5.0858,5.0829,5.0773,5.0776,5.0721,5.0702,5.0702,5.0702,5.0702,5.0702,5.0702,5.0423,5.0291,5.0291,5.0012,4.9884,4.9884,4.9617,4.9439,4.9439,4.916,4.8959,4.8996,4.9631,4.993,4.993,4.9856,5.0265,5.0971,5.0079,5.0228,5.1008,5.1008,5.0635,4.9998,4.9364,4.8909,4.8593,4.8738,4.8984,4.9317,5.0202,5.051,5.051,5.0664,5.0702,5.0702,5.0702,5.0702,5.0702,5.0702,5.0702,5.0702,5.0702,5.0483,5.0482,5.1376,5.1294,5.1443,5.2686,5.2897,5.2994,5.3572,5.3646,5.2977,5.1008,5.2234,5.2791,5.0933,5.2271,5.3534,5.3794,5.3794,5.3794,5.3794,5.4089,5.4296,5.4397,5.4924,5.5288,5.5364,5.5593,5.6459,5.8142,5.8355,5.93,6.1089,6.1289,6.1421,6.1484,6.1421,6.1394,6.146,6.3221,6.3983,6.41,6.577,6.6508,6.6508,6.6508,6.6508,6.6508,6.6508,6.6508,6.6508,6.6508,6.6508,6.6508,5.0702,5.0702,5.0702,5.072,5.0738,5.0756,5.0825,5.0841,5.0808,5.0738,5.0738,5.072,5.0721,5.0702,5.0702,5.0702,5.0702,5.0624,5.0462,5.0336,5.0291,5.0206,4.9857,4.9521,4.9309,4.9188,4.9127,4.9127,4.9405,4.9559,4.9633,5.0413,5.0822,5.0822,5.0822,5.1305,5.2011,5.1639,5.1936,5.2642,5.2234,5.1565,5.0711,4.9545,4.9145,4.9159,4.8897,4.9335,5.0164,5.0548,5.0702,5.0702,5.0702,5.0702,5.0702,5.0721,5.0702,5.0702,5.0702,5.0702,5.0644,5.0483,5.0658,5.1075,5.1815,5.2011,5.2391,5.3499,5.3596,5.3497,5.3758,5.3794,5.3423,5.2271,5.2345,5.2419,5.2122,5.2345,5.2828,5.372,5.3869,5.3907,5.3794,5.4161,5.443,5.4623,5.5037,5.5364,5.5531,5.6082,5.6994,5.8291,5.934,6.0342,6.1283,6.1283,6.1327,6.146,6.1408,6.1652,6.2147,6.3415,6.4255,6.4721,6.5965,6.6508,6.6508,6.6508,6.6508,6.6508,6.6508,6.6508,6.6508,6.6508,6.6508,6.6508,5.0702,5.0702,5.0683,5.0682,5.0701,5.072,5.0773,5.0812,5.0756,5.0701,5.0701,5.0682,5.0721,5.0702,5.0702,5.0702,5.0682,5.0504,5.0268,5.0283,5.0174,5.0062,4.9608,4.9257,4.8962,4.9076,4.9187,4.9187,5.0005,5.0413,5.0488,5.1305,5.1676,5.1676,5.1862,5.2308,5.294,5.294,5.3274,5.3795,5.3014,5.2196,5.1303,4.9815,4.9465,4.97,4.9136,4.9663,5.0624,5.0664,5.0701,5.0682,5.0682,5.0682,5.0721,5.0721,5.0721,5.0683,5.0702,5.0721,5.0644,5.0336,5.0832,5.1612,5.2199,5.2611,5.3181,5.4146,5.4017,5.3794,5.3794,5.3794,5.3608,5.3051,5.2419,5.2197,5.2865,5.2382,5.2419,5.3645,5.3907,5.3907,5.3794,5.4228,5.4591,5.4776,5.5145,5.5562,5.5972,5.6626,5.7473,5.855,6.0169,6.1098,6.1203,6.1203,6.1252,6.1369,6.1366,6.1832,6.2716,6.3595,6.445,6.5265,6.612,6.6508,6.6508,6.6508,6.6508,6.6508,6.6508,6.6508,6.6508,6.6508,6.6508,6.6508,5.0702,5.0702,5.0683,5.0682,5.0701,5.072,5.0773,5.0812,5.0756,5.0701,5.0701,5.0682,5.0721,5.0702,5.0702,5.0702,5.0542,5.0396,5.0374,5.0038,4.9741,4.9558,4.9257,4.9135,4.9101,4.9705,5.0005,5.0005,5.0896,5.1305,5.1342,5.2159,5.2531,5.2531,5.3311,5.372,5.3907,5.3907,5.3944,5.4016,5.3196,5.2337,5.1479,5.062,4.999,4.9637,4.9834,5.0121,5.044,5.0645,5.0702,5.0721,5.0721,5.0721,5.0721,5.0702,5.0702,5.0682,5.0683,5.0702,5.0645,5.044,5.0808,5.138,5.1971,5.2428,5.2975,5.3832,5.3907,5.3794,5.3794,5.3794,5.3088,5.0822,5.2234,5.2865,5.0673,5.2271,5.3683,5.3794,5.3794,5.3794,5.3794,5.4397,5.4776,5.4806,5.5326,5.6028,5.6857,5.6973,5.7742,5.9358,6.0393,6.092,6.0941,6.1041,6.1169,6.1322,6.1252,6.1749,6.2743,6.3609,6.445,6.5265,6.612,6.6508,6.6508,6.6508,6.6508,6.6508,6.6508,6.6508,6.6508,6.6508,6.6508,6.6508,5.0702,5.0702,5.0721,5.0702,5.0702,5.0702,5.0721,5.0721,5.0721,5.0702,5.0702,5.0683,5.0702,5.0584,5.0521,5.0521,5.0306,5.0139,4.9922,4.9824,4.9655,4.9415,4.9683,4.9846,4.9846,5.0523,5.0896,5.0896,5.1751,5.2159,5.2159,5.2977,5.3348,5.3348,5.3683,5.3794,5.3907,5.3907,5.3944,5.3944,5.2565,5.1854,5.1476,5.0131,4.9615,4.9588,4.9857,4.9987,5.0062,5.0342,5.0466,5.0423,5.0268,5.0445,5.0758,5.0758,5.1123,5.1529,5.1373,5.1433,5.1434,5.0961,5.1775,5.2675,5.2498,5.2936,5.3498,5.3981,5.3907,5.3831,5.3907,5.3869,5.3497,5.2568,5.32,5.346,5.2531,5.32,5.3794,5.3794,5.3794,5.3794,5.3794,5.4231,5.4591,5.4776,5.5198,5.5892,5.6934,5.7973,5.9088,6.0281,6.0635,6.0834,6.092,6.0962,6.1041,6.1191,6.1203,6.1989,6.3394,6.3813,6.4721,6.6003,6.6353,6.6508,6.6508,6.6508,6.6508,6.6508,6.6508,6.6508,6.6508,6.6508,6.6508,6.6508,5.0721,5.0702,5.0702,5.0702,5.0702,5.0702,5.0702,5.0702,5.0702,5.0702,5.0702,5.0702,5.0702,5.0462,5.0352,5.0374,5.0114,4.9928,4.9956,5.0199,5.0184,4.9701,5.0098,5.0443,5.0666,5.1378,5.1788,5.1788,5.2568,5.2977,5.2977,5.3534,5.3794,5.3794,5.3794,5.3794,5.3869,5.3869,5.3944,5.398,5.2265,5.1625,5.1507,4.9931,4.9352,4.9469,4.9749,4.9776,4.9749,5.0073,5.0206,5.0159,4.9987,5.0466,5.1068,5.1029,5.1722,5.2453,5.2277,5.2279,5.2182,5.1254,5.2305,5.3324,5.2554,5.3125,5.3907,5.4055,5.3944,5.3832,5.3982,5.3907,5.3794,5.3794,5.3794,5.3794,5.3794,5.3794,5.3794,5.3794,5.3794,5.3794,5.3794,5.4089,5.4397,5.4623,5.5303,5.6294,5.7703,5.9127,6.0165,6.0781,6.0781,6.0827,6.0856,6.0856,6.092,6.1022,6.1369,6.2275,6.3744,6.4106,6.5087,6.6439,6.6439,6.6439,6.6508,6.6508,6.6508,6.6508,6.6508,6.6508,6.6508,6.6508,6.6508,6.6547,5.0683,5.0702,5.0702,5.0702,5.0702,5.0702,5.0702,5.0702,5.0702,5.0702,5.0702,5.0702,5.0702,5.0418,5.0268,5.0412,4.9868,4.9868,5.0757,5.127,5.1286,5.053,5.0362,5.0703,5.1487,5.2233,5.2605,5.2605,5.3423,5.3794,5.3794,5.3794,5.3794,5.3794,5.3794,5.3869,5.3982,5.3982,5.4092,5.4158,5.2473,5.1832,5.1743,5.0128,4.9427,4.9321,4.9617,4.9617,4.9558,4.9872,4.9962,4.991,5.0063,5.0832,5.1667,5.1553,5.2431,5.3412,5.3302,5.3164,5.2663,5.1263,5.2175,5.3057,5.1877,5.2862,5.4019,5.4091,5.3944,5.3832,5.3982,5.3907,5.3794,5.3794,5.3794,5.3794,5.3794,5.3794,5.3794,5.3794,5.3794,5.3794,5.3794,5.4089,5.4296,5.4296,5.5683,5.7404,5.9373,6.0319,6.0781,6.0781,6.0781,6.0781,6.0781,6.0781,6.085,6.092,6.1769,6.2681,6.3632,6.4522,6.5432,6.6299,6.6299,6.6389,6.6508,6.6508,6.6508,6.6508,6.6508,6.6508,6.6508,6.6508,6.6508,6.6625,5.0683,5.0702,5.0702,5.0702,5.0702,5.0702,5.0702,5.1164,5.1548,5.1548,5.2087,5.2433,5.2433,5.2026,5.1763,5.1827,5.1285,5.1087,5.1312,5.1476,5.167,5.2041,5.2007,5.2083,5.2344,5.3051,5.346,5.346,5.3683,5.3794,5.3794,5.3794,5.3794,5.3794,5.3794,5.3794,5.3869,5.3869,5.3944,5.3906,5.2265,5.1697,5.1645,4.9996,4.9321,4.9321,4.9655,4.9566,4.9352,4.9608,4.9693,4.9835,5.071,5.1444,5.1885,5.1691,5.2713,5.3711,5.2968,5.3544,5.4001,5.2389,5.2613,5.308,5.2453,5.3163,5.4019,5.4091,5.3981,5.3982,5.4055,5.3907,5.3794,5.3794,5.3794,5.3794,5.3794,5.3794,5.3794,5.3794,5.3794,5.3794,5.3794,5.3907,5.4385,5.5416,5.7428,5.8865,5.9473,6.0319,6.0781,6.0781,6.0781,6.0781,6.0781,6.0781,6.0804,6.0827,6.1764,6.2678,6.357,6.4482,6.5393,6.6245,6.6281,6.632,6.6283,6.6461,6.6439,6.6389,6.6454,6.6508,6.6508,6.6508,6.6897,6.7363,5.0683,5.0702,5.0702,5.0702,5.0971,5.1164,5.1164,5.1895,5.2433,5.2433,5.2856,5.3161,5.3037,5.2628,5.2333,5.221,5.2086,5.2041,5.2006,5.2269,5.2642,5.3126,5.3126,5.3126,5.3126,5.3572,5.3794,5.3794,5.3794,5.3794,5.3794,5.3794,5.3794,5.3907,5.3907,5.387,5.3907,5.3907,5.4019,5.398,5.23,5.1697,5.1645,4.9996,4.9358,4.9321,4.9506,4.9421,4.9197,4.9384,4.9664,5.0108,5.1118,5.1714,5.2016,5.1825,5.2676,5.346,5.2639,5.2927,5.3242,5.2399,5.2881,5.3337,5.2754,5.3312,5.4019,5.4055,5.4019,5.4019,5.4055,5.3907,5.3794,5.3794,5.3794,5.3794,5.3794,5.3794,5.3794,5.3794,5.3794,5.3794,5.3794,5.4091,5.5024,5.686,5.8273,5.9371,5.9973,6.0512,6.0781,6.0781,6.0781,6.0781,6.0781,6.1127,6.1127,6.0819,6.2044,6.2937,6.3476,6.4701,6.5616,6.6123,6.6147,6.6205,6.6205,6.632,6.6355,6.6316,6.6406,6.6439,6.6508,6.6508,6.6819,6.7324,5.0683,5.0702,5.0702,5.0779,5.1395,5.1933,5.201,5.2779,5.3318,5.3318,5.3374,5.3289,5.2957,5.2634,5.2378,5.2171,5.2519,5.2754,5.2717,5.3385,5.3794,5.3794,5.3794,5.3794,5.3794,5.3794,5.3794,5.3794,5.3794,5.3794,5.3794,5.3794,5.3869,5.3982,5.3982,5.4055,5.4091,5.4091,5.42,5.4158,5.2439,5.1832,5.171,5.0128,4.939,4.9289,4.9289,4.9267,4.9247,4.9351,4.9944,5.0766,5.1409,5.1869,5.2121,5.1989,5.2417,5.2886,5.233,5.1792,5.1537,5.1876,5.3003,5.3758,5.2828,5.3349,5.4056,5.4131,5.4131,5.4131,5.4131,5.4019,5.3905,5.3905,5.3868,5.3831,5.3905,5.3868,5.3794,5.3794,5.3794,5.3831,5.3905,5.4724,5.6145,5.8305,5.859,5.9273,6.0695,6.0781,6.0781,6.0781,6.0781,6.0781,6.0781,6.1666,6.1704,6.0935,6.2627,6.3435,6.3474,6.5128,6.5933,6.599,6.599,6.6058,6.6165,6.6185,6.6245,6.6281,6.6281,6.6373,6.6493,6.6493,6.6571,6.6959,5.0683,5.0702,5.0894,5.1548,5.1779,5.2125,5.2818,5.3664,5.4203,5.4203,5.4588,5.4828,5.4715,5.4208,5.387,5.3804,5.3644,5.3534,5.3534,5.372,5.3794,5.3794,5.3794,5.3794,5.3794,5.3794,5.3794,5.3794,5.3794,5.3794,5.3794,5.3794,5.3794,5.3869,5.3944,5.4019,5.4019,5.4055,5.4127,5.4015,5.2333,5.1694,5.1645,4.9996,4.9358,4.9289,4.9289,4.9636,5.021,5.0878,5.1663,5.241,5.2629,5.2701,5.2656,5.2234,5.2817,5.3263,5.1575,5.2608,5.3946,5.2949,5.3381,5.3831,5.2901,5.3495,5.4387,5.5023,5.5171,5.5135,5.5062,5.4951,5.4875,5.4875,5.4278,5.4055,5.4801,5.4354,5.3907,5.3794,5.3944,5.4242,5.4686,5.6332,5.7564,5.8046,5.9222,6.0074,6.0376,6.0685,6.0781,6.0781,6.0781,6.0781,6.0781,6.1666,6.2012,6.182,6.3512,6.432,6.4359,6.5436,6.5923,6.5909,6.5967,6.6005,6.5958,6.6162,6.6144,6.6102,6.6185,6.6225,6.6264,6.6299,6.7226,6.864,5.102,5.116,5.1429,5.195,5.2518,5.3069,5.3491,5.4296,5.4917,5.5066,5.5231,5.5236,5.5064,5.4623,5.4265,5.4089,5.3907,5.3794,5.3794,5.3794,5.3794,5.3794,5.3794,5.3794,5.3794,5.3794,5.3794,5.3794,5.3794,5.3794,5.3794,5.3794,5.3832,5.3907,5.3982,5.4055,5.4166,5.4164,5.3975,5.3452,5.2214,5.1503,5.1058,5.0258,4.9958,4.9963,5.0375,5.0684,5.1102,5.1924,5.2522,5.2895,5.2966,5.2632,5.2146,5.1518,5.1533,5.1632,5.0823,5.1805,5.3021,5.2922,5.323,5.3529,5.342,5.4127,5.4982,5.5358,5.5733,5.6032,5.5958,5.5884,5.5883,5.5883,5.5473,5.5137,5.5249,5.4876,5.4466,5.3982,5.4354,5.5025,5.6097,5.715,5.8016,5.8539,5.9474,6.015,6.0293,6.0597,6.0781,6.0781,6.0781,6.0781,6.0781,6.205,6.2666,6.2704,6.3974,6.4589,6.4628,6.5513,6.5897,6.5897,6.5958,6.5982,6.5972,6.6052,6.6058,6.6058,6.608,6.6165,6.6225,6.6281,6.7459,6.9201,5.1391,5.1737,5.2058,5.2361,5.3259,5.3951,5.4104,5.4804,5.5364,5.5531,5.5364,5.5064,5.4746,5.4397,5.4089,5.3832,5.3794,5.3794,5.3794,5.3794,5.3794,5.3794,5.3794,5.3794,5.3794,5.3794,5.3832,5.3832,5.3832,5.3832,5.3832,5.3832,5.387,5.3982,5.4019,5.4092,5.4273,5.4273,5.3749,5.296,5.2315,5.1532,5.065,5.0815,5.0853,5.09,5.1574,5.1806,5.1889,5.2634,5.2895,5.2858,5.2673,5.2111,5.1289,5.065,5.0241,5.0116,5.0375,5.0986,5.1782,5.2698,5.3075,5.3447,5.42,5.4947,5.5507,5.5584,5.6294,5.693,5.6856,5.6856,5.6856,5.6856,5.6706,5.6332,5.5659,5.5435,5.5099,5.439,5.5063,5.6104,5.7401,5.7621,5.8154,5.9253,5.9613,5.9975,6.0399,6.0827,6.0935,6.0781,6.0935,6.1012,6.1012,6.2551,6.3358,6.3551,6.4397,6.482,6.4859,6.5551,6.5897,6.5923,6.5972,6.602,6.602,6.5996,6.6029,6.6058,6.6013,6.6221,6.6534,6.6842,6.7959,6.9422,5.1505,5.1839,5.2399,5.3215,5.3471,5.3841,5.46,5.5053,5.5236,5.4952,5.4895,5.4746,5.4397,5.4054,5.3832,5.3794,5.3794,5.3794,5.3794,5.3794,5.3794,5.3794,5.3794,5.3794,5.3794,5.3907,5.3982,5.3982,5.3982,5.4019,5.4055,5.4055,5.4055,5.3982,5.4055,5.4092,5.4019,5.4091,5.3678,5.2893,5.2885,5.236,5.1611,5.171,5.1678,5.1649,5.1761,5.2108,5.2602,5.2714,5.2715,5.2603,5.1931,5.1146,5.0542,5.0567,5.1162,5.1676,5.0905,5.2416,5.408,5.3348,5.3662,5.4412,5.5238,5.55,5.5801,5.6514,5.7339,5.7902,5.7791,5.7829,5.7829,5.7829,5.7155,5.6594,5.6519,5.5919,5.5359,5.5063,5.6325,5.7289,5.7556,5.8145,5.8967,5.9912,5.9885,6.0178,6.0957,6.1594,6.1589,6.0819,6.1512,6.1897,6.1897,6.2858,6.3666,6.4436,6.532,6.5705,6.5743,6.5859,6.5923,6.5996,6.5996,6.5982,6.599,6.5982,6.602,6.5982,6.599,6.6521,6.7441,6.907,6.9856,7.0277,5.2285,5.2664,5.3067,5.3583,5.3833,5.4075,5.4452,5.4654,5.4776,5.4806,5.4654,5.4463,5.4296,5.3981,5.3794,5.3794,5.3794,5.3794,5.3794,5.3794,5.3794,5.3794,5.3869,5.3907,5.3907,5.4019,5.4092,5.4166,5.4092,5.4055,5.4091,5.4091,5.4091,5.4092,5.4091,5.4128,5.4202,5.42,5.3714,5.2925,5.2544,5.2132,5.1765,5.1828,5.2128,5.2479,5.2928,5.3196,5.3348,5.2936,5.2787,5.2563,5.1295,5.0956,5.099,5.0576,5.112,5.1855,5.1911,5.2799,5.3875,5.4375,5.4753,5.524,5.6136,5.6662,5.7112,5.7488,5.8201,5.8764,5.8728,5.8728,5.8728,5.8728,5.7978,5.7304,5.6853,5.6442,5.6257,5.6478,5.7146,5.7739,5.8185,5.8516,5.897,5.9549,5.9729,6.0247,6.1294,6.1838,6.2127,6.2204,6.2589,6.2781,6.2781,6.3628,6.4205,6.4628,6.5474,6.5897,6.5897,6.5897,6.5923,6.5947,6.5982,6.599,6.6013,6.599,6.6005,6.6044,6.6459,6.7248,6.8313,6.9726,7.0227,7.0365]},{"header":{"parameterUnit":"m.s-1","parameterCategory":1,"la1":30.6,"la2":28.766,"lo1":-90.7593,"lo2":-88.6598,"dy":0.0162,"dx":0.0183,"nx":116,"ny":114,"refTime":"2023-11-15T18:00:00:Z","depth":0,"parameterNumber":3,"parameterNumberName":"V-component_of_WINDS"},"data":[0.0,0.0,0.0,0.0,0.0,0.0,0.0,0.0,0.0,0.0,0.0,0.0,0.0,0.0,0.0,0.0,0.0,0.0,0.0,0.0,0.0,0.0,0.0,0.0,0.0,0.0,0.0,0.0,0.0,0.0,0.0,0.0,0.0,0.0,0.0,0.0,0.0,0.0,0.0,0.0,0.0,0.0,0.0,0.0,0.0,0.0,0.0,0.0,0.0,0.0,0.0,0.0,0.0,0.0,0.0,0.0,0.0,0.0,0.0,0.0,0.0,0.0,0.0,0.0,0.0,0.0,0.0,0.0,0.0,0.0,0.0,0.0,0.0,0.0,0.0,0.0,0.0,0.0,0.0,0.0,0.0,0.0,0.0,0.0,0.0,0.0,0.0,0.0,0.0,0.0,0.0,0.0,0.0,0.0,0.0,0.0,0.0,0.0,0.0,0.0,0.0,0.0,0.0,0.0,0.0,0.0,0.0,0.0,0.0,0.0,0.0,0.0,0.0,0.0,0.0,0.0,0.0,0.0,0.0,0.0,0.0,0.0,0.0,0.0,0.0,0.0,0.0,0.0,0.0,0.0,0.0,0.0,0.0,0.0,0.0,0.0,0.0,0.0,0.0,0.0,0.0,0.0,0.0,0.0,0.0,0.0,0.0,0.0,0.0,0.0,0.0,0.0,0.0,0.0,0.0,0.0,0.0,0.0,0.0,0.0,0.0,0.0,0.0,0.0,0.0,0.0,0.0,0.0,0.0,0.0,0.0,0.0,0.0,0.0,0.0,0.0,0.0,0.0,0.0,0.0,0.0,0.0,0.0,0.0,0.0,0.0,0.0,0.0,0.0,0.0,0.0,0.0,0.0,0.0,0.0,0.0,0.0,0.0,0.0,0.0,0.0,0.0,0.0,0.0,0.0,0.0,0.0,0.0,0.0,0.0,0.0,0.0,0.0,0.0,0.0,0.0,0.0,0.0,0.0,0.0,0.0,0.0,0.0,0.0,0.0,0.0,0.0,0.0,0.0,0.0,0.0,0.0,0.0,0.0,0.0,0.0,0.0,0.0,0.0,0.0,0.0,0.0,0.0,0.0,0.0,0.0,0.0,0.0,0.0,0.0,0.0,0.0,0.0,0.0,0.0,0.0,0.0,0.0,0.0,0.0,0.0,0.0,0.0,0.0,0.0,0.0,0.0,0.0,0.0,0.0,0.0,0.0,0.0,0.0,0.0,0.0,0.0,0.0,0.0,0.0,0.0,0.0,0.0,0.0,0.0,0.0,0.0,0.0,0.0,0.0,0.0,0.0,0.0,0.0,0.0,0.0,0.0,0.0,0.0,0.0,0.0,0.0,0.0,0.0,0.0,0.0,0.0,0.0,0.0,0.0,0.0,0.0,0.0,0.0,0.0,0.0,0.0,0.0,0.0,0.0,0.0,0.0,0.0,0.0,0.0,0.0,0.0,0.0,0.0,0.0,0.0,0.0,0.0,0.0,0.0,0.0,0.0,0.0,0.0,0.0,0.0,0.0,0.0,0.0,0.0,0.0,0.0,0.0,0.0,0.0,0.0,0.0,0.0,0.0,0.0,0.0,0.0,0.0,0.0,0.0,0.0,0.0,0.0,0.0,0.0,0.0,0.0,0.0,0.0,0.0,0.0,0.0,0.0,0.0,0.0,0.0,0.0,0.0,0.0,0.0,0.0,0.0,0.0,0.0,0.0,0.0,0.0,0.0,0.0,0.0,0.0,0.0,0.0,0.0,0.0,0.0,0.0,0.0,0.0,0.0,0.0,0.0,0.0,0.0,0.0,0.0,0.0,0.0,0.0,0.0,0.0,0.0,0.0,0.0,0.0,0.0,0.0,0.0,0.0,0.0,0.0,0.0,0.0,0.0,0.0,0.0,0.0,0.0,0.0,0.0,0.0,0.0,0.0,0.0,0.0,0.0,0.0,0.0,0.0,0.0,0.0,0.0,0.0,0.0,0.0,0.0,0.0,0.0,0.0,0.0,0.0,0.0,0.0,0.0,0.0,0.0,0.0,0.0,0.0,0.0,0.0,0.0,0.0,0.0,0.0,0.0,0.0,0.0,0.0,0.0,0.0,0.0,0.0,0.0,0.0,0.0,0.0,0.0,0.0,0.0,0.0,0.0,0.0,0.0,0.0,0.0,0.0,0.0,0.0,0.0,0.0,0.0,0.0,0.0,0.0,0.0,0.0,0.0,0.0,0.0,0.0,0.0,0.0,0.0,0.0,0.0,0.0,0.0,0.0,0.0,0.0,0.0,0.0,0.0,0.0,0.0,0.0,0.0,0.0,0.0,0.0,0.0,0.0,0.0,0.0,0.0,0.0,0.0,0.0,0.0,0.0,0.0,0.0,0.0,0.0,0.0,0.0,0.0,0.0,0.0,0.0,0.0,0.0,0.0,0.0,0.0,0.0,0.0,0.0,0.0,0.0,0.0,0.0,0.0,0.0,0.0,0.0,0.0,0.0,0.0,0.0,0.0,0.0,0.0,0.0,0.0,0.0,0.0,0.0,0.0,0.0,0.0,0.0,0.0,0.0,0.0,0.0,0.0,0.0,0.0,0.0,0.0,0.0,0.0,0.0,0.0,0.0,0.0,0.0,0.0,0.0,0.0,0.0,0.0,0.0,0.0,0.0,0.0,0.0,0.0,0.0,0.0,0.0,0.0,0.0,0.0,0.0,0.0,0.0,0.0,0.0,0.0,0.0,0.0,0.0,0.0,0.0,0.0,0.0,0.0,0.0,0.0,0.0,0.0,0.0,0.0,0.0,0.0,0.0,0.0,0.0,0.0,0.0,0.0,0.0,0.0,0.0,0.0,0.0,0.0,0.0,0.0,0.0,0.0,0.0,0.0,0.0,0.0,0.0,0.0,0.0,0.0,0.0,0.0,0.0,0.0,0.0,0.0,0.0,0.0,0.0,0.0,0.0,0.0,0.0,0.0,0.0,0.0,0.0,0.0,0.0,0.0,0.0,0.0,0.0,0.0,0.0,0.0,0.0,0.0,0.0,0.0,0.0,0.0,0.0,0.0,0.0,0.0,0.0,0.0,0.0,0.0,0.0,0.0,0.0,0.0,0.0,0.0,0.0,0.0,0.0,0.0,0.0,0.0,0.0,0.0,0.0,0.0,0.0,0.0,0.0,0.0,0.0,0.0,0.0,0.0,0.0,0.0,0.0,0.0,0.0,0.0,0.0,0.0,0.0,0.0,0.0,0.0,0.0,0.0,0.0,0.0,0.0,0.0,0.0,0.0,0.0,0.0,0.0,0.0,0.0,0.0,0.0,0.0,0.0,0.0,0.0,0.0,0.0,0.0,0.0,0.0,0.0,0.0,0.0,0.0,0.0,0.0,0.0,0.0,0.0,0.0,0.0,0.0,0.0,0.0,0.0,0.0,0.0,0.0,0.0,0.0,0.0,0.0,0.0,0.0,0.0,0.0,0.0,0.0,0.0,0.0,0.0,0.0,0.0,0.0,0.0,0.0,0.0,0.0,0.0,0.0,0.0,0.0,0.0,0.0,0.0,0.0,0.0,0.0,0.0,0.0,0.0,0.0,0.0,0.0,0.0,0.0,0.0,0.0,0.0,0.0,0.0,0.0,0.0,0.0,0.0,0.0,0.0,0.0,0.0,0.0,0.0,0.0,0.0,0.0,0.0,0.0,0.0,0.0,0.0,0.0,0.0,0.0,0.0,0.0,0.0,0.0,0.0,0.0,0.0,0.0,0.0,0.0,0.0,0.0,0.0,0.0,0.0,0.0,0.0,0.0,0.0,0.0,0.0,0.0,0.0,0.0,0.0,0.0,0.0,0.0,0.0,0.0,0.0,0.0,0.0,0.0,0.0,0.0,0.0,0.0,0.0,0.0,0.0,0.0,0.0,0.0,0.0,0.0,0.0,0.0,0.0,0.0,0.0,0.0,0.0,0.0,0.0,0.0,0.0,0.0,0.0,0.0,0.0,0.0,0.0,0.0,0.0,0.0,0.0,0.0,0.0,0.0,0.0,0.0,0.0,0.0,0.0,0.0,0.0,0.0,0.0,0.0,0.0,0.0,0.0,0.0,0.0,0.0,0.0,0.0,0.0,0.0,0.0,0.0,0.0,0.0,0.0,0.0,0.0,0.0,0.0,0.0,0.0,0.0,0.0,0.0,0.0,0.0,0.0,0.0,0.0,0.0,0.0,0.0,0.0,0.0,0.0,0.0,0.0,0.0,0.0,0.0,0.0,0.0,0.0,0.0,0.0,0.0,0.0,0.0,0.0,0.0,0.0,0.0,0.0,0.0,0.0,0.0,0.0,0.0,0.0,0.0,0.0,0.0,0.0,0.0,0.0,0.0,0.0,0.0,0.0,0.0,0.0,0.0,0.0,0.0,0.0,0.0,0.0,0.0,0.0,0.0,0.0,0.0,0.0,0.0,0.0,0.0,0.0,0.0,0.0,0.0,0.0,0.0,0.0,0.0,0.0,0.0,0.0,0.0,0.0,0.0,0.0,0.0,0.0,0.0,0.0,0.0,0.0,0.0,0.0,0.0,0.0,0.0,0.0,0.0,0.0,0.0,0.0,0.0,0.0,0.0,0.0,0.0,0.0,0.0,0.0,0.0,0.0,0.0,0.0,0.0,0.0,0.0,0.0,0.0,0.0,0.0,0.0,0.0,0.0,0.0,0.0,0.0,0.0,0.0,0.0,0.0,0.0,0.0,0.0,0.0,0.0,0.0,0.0,0.0,0.0,0.0,0.0,0.0,0.0,0.0,0.0,0.0,0.0,0.0,0.0,0.0,0.0,0.0,0.0,0.0,0.0,0.0,0.0,0.0,0.0,0.0,0.0,0.0,0.0,0.0,0.0,0.0,0.0,0.0,0.0,0.0,0.0,0.0,0.0,0.0,0.0,0.0,0.0,0.0,0.0,0.0,0.0,0.0,0.0,0.0,0.0,0.0,0.0,0.0,0.0,0.0,0.0,0.0,0.0,0.0,0.0,0.0,0.0,0.0,0.0,0.0,0.0,0.0,0.0,0.0,0.0,0.0,0.0,0.0,0.0,0.0,0.0,0.0,0.0,0.0,0.0,0.0,0.0,0.0,0.0,0.0,0.0,0.0,0.0,0.0,0.0,0.0,0.0,0.0,0.0,0.0,0.0,0.0,0.0,0.0,0.0,0.0,0.0,0.0,0.0,0.0,0.0,0.0,0.0,0.0,0.0,0.0,0.0,0.0,0.0,0.0,0.0,0.0,0.0,0.0,0.0,0.0,0.0,0.0,0.0,0.0,0.0,0.0,0.0,0.0,0.0,0.0,0.0,0.0,0.0,0.0,0.0,0.0,0.0,0.0,0.0,0.0,0.0,0.0,0.0,0.0,0.0,0.0,0.0,0.0,0.0,0.0,0.0,0.0,0.0,0.0,0.0,0.0,0.0,0.0,0.0,0.0,0.0,0.0,0.0,0.0,0.0,0.0,0.0,0.0,0.0,0.0,0.0,0.0,0.0,0.0,0.0,0.0,0.0,0.0,0.0,0.0,0.0,0.0,0.0,0.0,0.0,0.0,0.0,0.0,0.0,0.0,0.0,0.0,0.0,0.0,0.0,0.0,0.0,0.0,0.0,0.0,0.0,0.0,0.0,0.0,0.0,0.0,0.0,0.0,0.0,0.0,0.0,0.0,0.0,0.0,0.0,0.0,0.0,0.0,0.0,0.0,0.0,0.0,0.0,0.0,0.0,0.0,0.0,0.0,0.0,0.0,0.0,0.0,0.0,0.0,0.0,0.0,0.0,0.0,0.0,0.0,0.0,0.0,0.0,0.0,0.0,0.0,0.0,0.0,0.0,0.0,0.0,0.0,0.0,0.0,0.0,0.0,0.0,0.0,0.0,0.0,0.0,0.0,0.0,0.0,0.0,0.0,0.0,0.0,0.0,0.0,0.0,0.0,0.0,0.0,0.0,0.0,0.0,0.0,0.0,0.0,0.0,0.0,0.0,0.0,0.0,0.0,0.0,0.0,0.0,0.0,0.0,0.0,0.0,0.0,0.0,0.0,0.0,0.0,0.0,0.0,0.0,0.0,0.0,0.0,0.0,0.0,0.0,0.0,0.0,0.0,0.0,0.0,0.0,0.0,0.5534,0.5301,0.0,0.0,0.0,0.0,0.0,0.0,0.0,0.0,0.0,0.0,0.0,0.0,0.0,0.0,0.0,0.0,0.0,0.0,0.0,0.0,0.0,0.0,0.0,0.0,0.0,0.0,0.0,0.0,0.0,0.0,0.0,0.0,0.0,0.0,0.0,0.0,0.0,0.591,0.581,0.5876,0.6071,0.4467,0.3326,0.259,0.0,0.0,0.0,0.0,0.0,0.0,0.0,0.0,0.0,0.0,0.0,0.0,0.0,0.0,0.0,0.0,0.0,0.0,0.0,0.0,0.0,0.0,0.0,0.0,0.0,0.0,0.0,0.0,0.0,0.0,0.0,0.0,0.0,0.0,0.0,0.0,0.0,0.0,0.0,0.0,0.0,0.0,0.0,0.0,0.0,0.0,0.0,0.0,0.0,0.0,0.0,0.0,0.0,0.0,0.0,0.0,0.0,0.0,0.0,0.0,0.0,0.0,0.0,0.0,0.0,0.0,0.0,0.0,0.0,0.0,0.598,0.5812,0.0,0.0,0.0,0.0,0.0,0.0,0.0,0.0,0.0,0.0,0.0,0.0,0.0,0.0,0.0,0.0,0.0,0.0,0.0,0.0,0.0,0.0,0.0,0.4518,0.4583,0.4708,0.4828,0.4887,0.0,0.0,0.0,0.0,0.0,0.0,0.5562,0.5659,0.5885,0.6241,0.6262,0.6391,0.6628,0.5771,0.4818,0.3817,0.238,0.0,0.0,0.0,0.0,0.0,0.0,0.0,0.0,0.0,0.0,0.0,0.0,0.0,0.0,0.0,0.0,0.0,0.0,0.0,0.0,0.0,0.0,0.0,0.0,0.0,0.0,0.0,0.0,0.0,0.0,0.0,0.0,0.0,0.0,0.0,0.0,0.0,0.0,0.0,0.0,0.0,0.0,0.0,0.0,0.0,0.0,0.0,0.0,0.0,0.0,0.0,0.0,0.0,0.0,0.0,0.0,0.0,0.0,0.0,0.0,0.0,0.0,0.0,0.5992,0.6103,0.6142,0.6134,0.6266,0.6548,0.6263,0.6299,0.6369,0.5962,0.0,0.0,0.0,0.0,0.0,0.0,0.0,0.0,0.0,0.0,0.0,0.0,0.0,0.0,0.0,0.0,0.0,0.0,0.0,0.449,0.4687,0.4724,0.4833,0.4958,0.5072,0.5099,0.4996,0.0,0.0,0.0,0.0,0.0,0.564,0.5909,0.6021,0.5952,0.6463,0.661,0.6541,0.6536,0.6127,0.5426,0.354,0.2336,0.1574,0.0,0.0,0.0,0.0,0.0,0.0,0.0,0.0,0.0,0.0,0.0,0.0,0.0,0.0,0.0,0.0,0.0,0.0,0.0,0.0,0.0,0.0,0.0,0.0,0.0,0.0,0.0,0.0,0.0,0.0,0.0,0.0,0.0,0.0,0.0,0.0,0.0,0.0,0.0,0.0,0.0,-0.2481,-0.0886,0.0,0.0,0.0,0.0,0.0,0.0,0.0,0.0,0.0,0.0,0.0,0.0,0.0,0.527,0.5485,0.5658,0.5845,0.6151,0.6265,0.6351,0.6417,0.6446,0.6465,0.6474,0.6431,0.0,0.6432,0.6471,0.0,0.0,0.0,0.0,0.0,0.0,0.0,0.0,0.0,0.0,0.0,0.0,0.0,0.0,0.0,0.0,0.0,0.0,0.0,0.0,0.0,0.5061,0.5235,0.5491,0.5505,0.5478,0.5256,0.5257,0.0,0.0,0.0,0.5514,0.5744,0.587,0.6116,0.6446,0.6823,0.6943,0.6832,0.6764,0.6212,0.5398,0.4622,0.3653,0.2654,0.1259,0.0,0.0,0.0,0.0,0.0,0.0,0.0,0.0,0.0,0.0,0.0,0.0,0.0,0.0,0.0,0.0,0.0,0.0,0.0,0.0,0.0,0.0,0.0,0.0,0.0,0.0,0.0,0.0,0.0,0.0,0.0,0.0,0.0,0.0,0.0,0.0,0.0,0.0,0.0,-0.2881,-0.2834,-0.211,-0.1963,-0.1273,0.0,0.0,0.0,0.0,0.0,0.0,0.0,0.0,0.0,0.5419,0.5477,0.5557,0.576,0.5845,0.5962,0.6107,0.6201,0.6354,0.6467,0.6405,0.64,0.6462,0.6462,0.6364,0.6182,0.628,0.6172,0.5967,0.0,0.0,0.0,0.0,0.6165,0.6154,0.0,0.0,0.0,0.0,0.0,0.0,0.0,0.0,0.0,0.0,0.0,0.0,0.5192,0.5395,0.5662,0.5925,0.594,0.5802,0.5626,0.553,0.5468,0.5502,0.5474,0.5589,0.5865,0.6051,0.6299,0.6786,0.714,0.7142,0.7025,0.6783,0.6186,0.5356,0.5242,0.4672,0.3578,0.2406,0.1592,0.1007,0.0,0.0,0.0,0.0,0.0,0.0,0.0,0.0,0.0,0.0,0.0,0.0,0.0,0.0,0.0,0.0,0.0,0.0,0.0,0.0,0.0,0.0,0.0,0.0,0.0,0.0,0.0,0.0,0.0,0.0,0.0,0.0,0.0,0.0,0.0,0.0,0.0,-0.2831,-0.3132,-0.2933,-0.1895,-0.0718,0.0,0.0,0.0,0.0,0.0,0.0,0.527,0.5418,0.5512,0.5633,0.5586,0.5643,0.5925,0.5955,0.6003,0.6072,0.6142,0.6257,0.6309,0.6142,0.6239,0.6269,0.6269,0.6138,0.5981,0.6106,0.6155,0.6119,0.598,0.6001,0.61,0.6204,0.6326,0.6305,0.0,0.0,0.0,0.0,0.0,0.0,0.0,0.0,0.0,0.0,0.0,0.5203,0.5344,0.5696,0.5996,0.6016,0.6022,0.6037,0.6006,0.6,0.6101,0.6145,0.5883,0.586,0.6139,0.6542,0.6765,0.67,0.7031,0.7135,0.6884,0.6884,0.6517,0.5904,0.5533,0.4948,0.4187,0.3057,0.2967,0.3549,0.1194,0.0,0.0,0.0,0.0,0.0,0.0,0.0,0.0,0.0,0.0,0.0,0.0,0.0,0.0,0.0,0.0,0.0,0.0,0.0,0.0,0.0,0.0,0.0,0.0,0.0,0.0,0.0,0.0,0.0,0.0,0.0,0.0,0.0,0.0,0.0,0.0,0.0,0.0,-0.3033,-0.2086,0.0,0.0,0.0,0.0,0.3587,0.3723,0.4271,0.5798,0.5701,0.552,0.5475,0.5573,0.5667,0.5765,0.5855,0.59,0.5904,0.5908,0.5908,0.5904,0.5908,0.5859,0.5893,0.5893,0.5725,0.5643,0.6215,0.6207,0.5806,0.6125,0.6108,0.5936,0.6051,0.6089,0.6207,0.0,0.0,0.0,0.0,0.0,0.0,0.0,0.0,0.4507,0.4784,0.5105,0.5411,0.5727,0.6032,0.6243,0.6236,0.6352,0.6284,0.6177,0.6118,0.6214,0.6321,0.6009,0.6045,0.6575,0.6632,0.6852,0.7036,0.723,0.7104,0.653,0.6775,0.653,0.5916,0.5794,0.5636,0.5207,0.4024,0.3277,0.3077,0.2974,0.2391,0.0,0.0,0.0,0.0,0.0,0.0,0.0,0.0,0.0,0.0,0.0,0.0,0.0,0.0,0.0,0.0,0.0,0.0,0.0,0.0,0.0,0.0,0.0,0.0,0.0,0.0,0.0,0.0,0.0,0.0,0.0,0.0,0.0,0.0,0.0,0.0,0.0,-0.1575,-0.0898,0.0,0.1316,0.2355,0.3514,0.4894,0.5058,0.5296,0.5584,0.5737,0.576,0.5765,0.5859,0.5949,0.6039,0.6072,0.6088,0.6088,0.6088,0.6088,0.6088,0.6088,0.6039,0.5957,0.5957,0.5904,0.5818,0.606,0.6068,0.6001,0.5985,0.6042,0.6251,0.6227,0.6328,0.6548,0.0,0.0,0.0,0.0,0.0,0.0,0.0,0.4398,0.4616,0.5023,0.5349,0.5716,0.6088,0.6216,0.6376,0.6387,0.6443,0.6479,0.6463,0.6414,0.639,0.6597,0.641,0.6337,0.6585,0.6821,0.6874,0.6975,0.7089,0.6893,0.6403,0.653,0.6285,0.5916,0.5916,0.5916,0.5794,0.493,0.4148,0.3548,0.4144,0.3721,0.2671,0.0,0.0,0.0,0.0,0.0,0.0,0.0,0.0,0.0,0.0,0.0,0.0,0.0,0.0,0.0,0.0,0.0,0.0,0.0,0.0,0.0,0.0,0.0,0.0,0.0,0.0,0.0,0.0,0.0,0.0,0.0,0.0,0.0,0.0,-0.2516,-0.1476,0.0408,0.073,0.1374,0.2762,0.3799,0.4735,0.5621,0.5855,0.5881,0.576,0.5935,0.5945,0.6006,0.6063,0.6125,0.6178,0.6182,0.6182,0.6182,0.6182,0.6182,0.6182,0.6182,0.6133,0.6051,0.6023,0.5957,0.5867,0.5839,0.5893,0.6033,0.5907,0.5987,0.612,0.6061,0.6125,0.6312,0.0,0.0,0.0,0.0,0.0,0.0,0.43,0.4398,0.4648,0.5132,0.561,0.6048,0.6233,0.6449,0.6386,0.6253,0.6405,0.6504,0.6727,0.6795,0.685,0.6975,0.6991,0.684,0.6308,0.6939,0.6985,0.675,0.6485,0.6412,0.6412,0.6048,0.5925,0.5925,0.5925,0.5925,0.5921,0.5921,0.5624,0.5264,0.4643,0.388,0.3229,0.0,0.0,0.0,0.0,0.0,0.0,0.0,0.0,0.0,0.0,0.0,0.0,0.0,0.0,0.0,0.0,0.0,0.0,0.0,0.0,0.0,0.0,0.0,0.0,0.0,0.0,0.0,0.0,0.0,0.0,0.0,0.0,0.0,-0.2582,-0.138,0.0409,0.2768,0.2925,0.304,0.3316,0.4632,0.5514,0.585,0.5848,0.6048,0.6412,0.621,0.6182,0.6186,0.6186,0.6186,0.619,0.619,0.619,0.619,0.619,0.619,0.619,0.619,0.6141,0.6051,0.5961,0.5872,0.5778,0.5688,0.5704,0.5786,0.5778,0.5725,0.5647,0.5643,0.559,0.55,0.0,0.0,0.0,0.0,0.0,0.0,0.43,0.4474,0.4806,0.5377,0.579,0.6131,0.6333,0.6465,0.6419,0.5985,0.6327,0.6443,0.6512,0.6629,0.6725,0.6844,0.71,0.7193,0.7338,0.71,0.7011,0.6965,0.6692,0.6489,0.6235,0.6362,0.6362,0.6108,0.6108,0.6076,0.6014,0.6014,0.5838,0.5738,0.5671,0.5221,0.4344,0.0,0.0,0.0,0.0,0.0,0.0,0.0,0.0,0.0,0.0,0.0,0.0,0.0,0.0,0.0,0.0,0.0,0.0,0.0,0.0,0.0,0.0,0.0,0.0,0.0,0.0,0.0,0.0,0.0,0.0,0.0,-0.2483,-0.179,-0.0198,0.0518,0.1413,0.2959,0.4252,0.5137,0.5294,0.5596,0.5892,0.6077,0.6051,0.6108,0.6235,0.6281,0.621,0.6276,0.628,0.6313,0.6378,0.6378,0.6378,0.6378,0.6378,0.6378,0.6378,0.6378,0.6292,0.6145,0.6121,0.6023,0.5876,0.5851,0.5855,0.5867,0.5733,0.5708,0.5737,0.5667,0.5748,0.5955,0.0,0.0,0.0,0.0,0.0,0.0,0.43,0.4501,0.4887,0.554,0.5937,0.6263,0.6576,0.6633,0.6514,0.6034,0.6377,0.6584,0.6365,0.6629,0.6722,0.6732,0.7134,0.729,0.7165,0.703,0.6906,0.6668,0.6558,0.6481,0.6292,0.6477,0.6481,0.6292,0.6255,0.621,0.6166,0.6166,0.6088,0.6093,0.6158,0.5745,0.5272,0.4412,0.3943,0.3615,0.2693,0.2434,0.24,0.1344,0.0,0.0,0.0,0.0,0.0,0.0,0.0,0.0,0.0,0.0,0.0,0.0,0.0,0.0,0.0,0.0,0.0,0.0,0.0,0.0,0.0,0.0,0.0,0.0,-0.1225,0.0107,0.1723,0.2641,0.3411,0.4291,0.5249,0.5918,0.6031,0.6055,0.6072,0.6125,0.6194,0.6235,0.6235,0.6276,0.6321,0.6374,0.6374,0.6398,0.6455,0.6455,0.6455,0.6455,0.6455,0.6455,0.6455,0.6455,0.6394,0.6292,0.6215,0.6121,0.6023,0.5949,0.5916,0.5908,0.0,0.0,0.0,0.0,0.5818,0.5937,0.0,0.0,0.0,0.0,0.0,0.0,0.4233,0.4501,0.4915,0.5638,0.6034,0.6428,0.6812,0.6859,0.6808,0.6233,0.6604,0.6606,0.6265,0.6728,0.6947,0.673,0.719,0.7184,0.6539,0.6911,0.681,0.6333,0.6272,0.6325,0.648,0.6317,0.6329,0.648,0.6398,0.6357,0.6345,0.6337,0.6494,0.6584,0.6185,0.599,0.5867,0.5315,0.4729,0.4234,0.3725,0.3375,0.2976,0.2778,0.0,0.0,0.0,0.0,0.0,0.0,0.0,0.0,0.0,0.0,0.0,0.0,0.0,0.0,0.0,0.0,0.0,0.0,0.0,0.0,0.0,0.0,0.0,0.0,0.0764,0.2426,0.3178,0.4678,0.5781,0.6027,0.5985,0.5884,0.6063,0.6084,0.6088,0.6096,0.6255,0.6341,0.6333,0.6431,0.0,0.0,0.0,0.6464,0.6455,0.6455,0.6455,0.6455,0.6455,0.6455,0.6455,0.6455,0.6447,0.6431,0.6268,0.619,0.617,0.601,0.5945,0.5945,0.5925,0.5916,0.5908,0.5827,0.5798,0.5786,0.0,0.0,0.0,0.0,0.0,0.0,0.3961,0.4437,0.4844,0.5638,0.5958,0.6331,0.6802,0.6789,0.6724,0.6457,0.6604,0.6797,0.6816,0.7084,0.7065,0.6848,0.7509,0.75,0.6888,0.7163,0.7185,0.6823,0.6694,0.6639,0.6672,0.6639,0.6639,0.6672,0.6656,0.6607,0.6533,0.6723,0.6894,0.6774,0.6869,0.6566,0.6155,0.5487,0.549,0.5925,0.5535,0.5775,0.6103,0.4571,0.3912,0.3459,0.1521,0.0098,0.0,0.0,0.0,0.0,0.0,0.0,0.0,0.0,0.0,0.0,0.0,0.0,0.0,0.0,0.0,0.0,0.0,0.0,0.0,0.0963,0.2009,0.3361,0.5141,0.5573,0.5896,0.6014,0.601,0.6072,0.6247,0.6268,0.6296,0.637,0.6476,0.6504,0.6431,0.6582,0.6607,0.646,0.6525,0.6529,0.6455,0.6455,0.6455,0.6455,0.6455,0.0,0.6455,0.6455,0.6415,0.6341,0.6304,0.6247,0.6178,0.6145,0.6129,0.6117,0.5974,0.5916,0.5916,0.5896,0.5892,0.5888,0.0,0.0,0.0,0.0,0.0,0.0,0.2887,0.3942,0.4704,0.5388,0.5773,0.608,0.6453,0.65,0.644,0.6066,0.6216,0.6593,0.698,0.7149,0.7101,0.6813,0.7322,0.7421,0.669,0.7017,0.7057,0.6927,0.67,0.677,0.6856,0.6766,0.6774,0.6856,0.6811,0.6766,0.6717,0.6764,0.7053,0.7167,0.696,0.6911,0.6888,0.6107,0.6208,0.6618,0.6387,0.663,0.7043,0.6144,0.5827,0.5487,0.3409,0.2369,0.1768,0.0,0.0,0.0,0.0,0.0,0.0,0.0,0.0,0.0,0.0,0.0,0.0,0.0,0.0,-0.0691,0.0,0.0,0.3814,0.279,0.3711,0.479,0.5726,0.5937,0.6023,0.6108,0.6117,0.6186,0.6366,0.6386,0.6423,0.6517,0.6566,0.659,0.659,0.6635,0.6615,0.6525,0.6521,0.65,0.6455,0.6455,0.6455,0.6455,0.6455,0.6455,0.6455,0.6455,0.6427,0.6382,0.6337,0.6292,0.6247,0.6198,0.6182,0.6174,0.6084,0.6047,0.6047,0.6047,0.6023,0.5986,0.0,0.0,0.0,0.0,0.0,0.0,0.0,0.3307,0.4641,0.5063,0.5567,0.5899,0.6067,0.6257,0.6203,0.5756,0.5945,0.6426,0.6997,0.7241,0.7142,0.6788,0.7356,0.7184,0.6337,0.6849,0.7026,0.6851,0.6803,0.6851,0.6986,0.6843,0.6856,0.6986,0.6913,0.688,0.6872,0.691,0.7044,0.7536,0.7043,0.7277,0.7666,0.6789,0.663,0.6935,0.6584,0.6789,0.7154,0.7154,0.7165,0.6937,0.5726,0.5046,0.466,0.3332,0.0957,0.0,0.0,0.0,0.0,0.0,0.0,0.0,0.0,0.0,-0.1535,0.0,0.0715,0.1243,0.1888,0.4208,0.5537,0.4383,0.5141,0.5908,0.5925,0.5998,0.608,0.6149,0.6186,0.6272,0.6439,0.6468,0.6509,0.6586,0.6623,0.6668,0.6725,0.6688,0.6643,0.6594,0.6537,0.6488,0.6455,0.6455,0.6455,0.6455,0.6455,0.6455,0.6455,0.6455,0.6455,0.6451,0.6374,0.6341,0.6337,0.6264,0.6235,0.6235,0.6235,0.6235,0.6227,0.6194,0.6137,0.6076,0.0,0.0,0.0,0.0,0.0,0.0,0.0,0.0,0.4726,0.4828,0.5257,0.5719,0.6051,0.6111,0.6159,0.6241,0.6364,0.6752,0.7111,0.7361,0.7293,0.6998,0.7759,0.7552,0.6569,0.7287,0.744,0.6851,0.6925,0.697,0.699,0.697,0.697,0.699,0.6978,0.6974,0.6962,0.7217,0.7355,0.7631,0.7597,0.7785,0.7905,0.7074,0.6684,0.6584,0.6579,0.656,0.6826,0.7154,0.7165,0.7176,0.6943,0.6738,0.6032,0.3672,0.0977,-0.1321,-0.1264,-0.0637,-0.0094,-0.0,-0.0096,-0.0098,0.0,0.0,0.0104,0.1314,0.3326,0.4335,0.2888,0.4644,0.6129,0.5627,0.5966,0.6194,0.5908,0.5998,0.6055,0.6068,0.6206,0.6341,0.6443,0.6529,0.6578,0.659,0.6737,0.6794,0.6729,0.6864,0.6835,0.6598,0.666,0.6619,0.6455,0.6455,0.6455,0.6455,0.6455,0.6455,0.6455,0.6455,0.6455,0.6451,0.6443,0.6439,0.6439,0.6427,0.6423,0.6423,0.6423,0.6423,0.6402,0.6239,0.6174,0.6166,0.0,0.0,0.0,0.0,0.0,0.0,0.0,0.0,0.376,0.4715,0.5074,0.5371,0.5453,0.5464,0.5513,0.5627,0.6116,0.6535,0.6823,0.7334,0.736,0.6955,0.7311,0.7212,0.637,0.6825,0.6991,0.6851,0.6945,0.699,0.699,0.699,0.699,0.6986,0.6933,0.6909,0.6896,0.686,0.7137,0.7564,0.7442,0.7653,0.803,0.7185,0.6754,0.6714,0.6422,0.6487,0.0,0.7035,0.7013,0.6975,0.7046,0.71,0.6844,0.5533,0.3218,0.0802,-0.0202,-0.0301,0.0,0.0,0.0,0.0,0.0,0.0,-0.0108,-0.0223,0.0561,0.1346,0.1791,0.3319,0.4671,0.0,0.5526,0.5998,0.5912,0.5994,0.6055,0.6055,0.6161,0.6272,0.6366,0.6406,0.6496,0.6656,0.6688,0.6754,0.6872,0.6803,0.6754,0.6745,0.6631,0.6558,0.6533,0.648,0.6455,0.6455,0.6455,0.6455,0.6455,0.6455,0.6455,0.6455,0.6455,0.6455,0.6455,0.6455,0.6455,0.6455,0.6455,0.6455,0.6443,0.6366,0.6304,0.6259,0.0,0.0,0.0,0.0,0.0,0.0,0.0,0.0,0.0,0.0,0.4991,0.5072,0.5023,0.5018,0.5061,0.5175,0.5757,0.6246,0.6551,0.7187,0.7412,0.6893,0.7151,0.6937,0.6349,0.6644,0.6789,0.6782,0.6847,0.688,0.688,0.688,0.6892,0.6913,0.6823,0.6923,0.6906,0.6727,0.7,0.7558,0.7369,0.7607,0.7975,0.7105,0.6889,0.6935,0.6376,0.629,0.661,0.6768,0.673,0.6665,0.6719,0.6813,0.6741,0.5761,0.3552,0.1345,0.0317,0.0,0.0,0.0,0.0,-0.011,-0.0441,-0.0551,-0.0664,-0.1007,-0.1121,-0.0672,0.1008,0.2408,0.3393,0.4109,0.5174,0.5892,0.5912,0.5974,0.6014,0.6014,0.6092,0.6182,0.6272,0.6325,0.6447,0.6672,0.6672,0.6737,0.6909,0.6778,0.6725,0.6778,0.6615,0.6685,0.6727,0.666,0.6639,0.6664,0.6664,0.6664,0.6529,0.6529,0.6529,0.6529,0.6529,0.6529,0.6529,0.6529,0.6529,0.6529,0.6529,0.6529,0.6529,0.6529,0.6455,0.6353,0.0,0.0,0.0,0.0,0.0,0.0,0.0,0.0,0.0,0.0,0.0,0.4887,0.5007,0.5018,0.5061,0.5175,0.5529,0.5947,0.641,0.6899,0.7153,0.6884,0.735,0.7307,0.6447,0.6948,0.6864,0.6598,0.6602,0.6602,0.6602,0.6602,0.6651,0.6729,0.6639,0.6735,0.7128,0.6938,0.7192,0.773,0.7607,0.7614,0.7839,0.7137,0.7048,0.7033,0.6265,0.6022,0.6037,0.623,0.629,0.6263,0.6149,0.6294,0.5801,0.284,0.0298,-0.1209,-0.0297,0.0,0.0,0.0,0.0,-0.0336,-0.1457,-0.1794,-0.1346,0.0224,0.0561,0.0784,0.1679,0.2498,0.3234,0.3869,0.4892,0.5702,0.5904,0.5921,0.5921,0.5921,0.6002,0.6092,0.6178,0.6345,0.6488,0.6586,0.6749,0.6815,0.6737,0.6888,0.686,0.6607,0.6676,0.6814,0.7133,0.7133,0.7177,0.727,0.727,0.7135,0.6717,0.6717,0.6717,0.6717,0.6717,0.6717,0.6717,0.6717,0.6717,0.6717,0.6717,0.6717,0.6717,0.6717,0.6602,0.6451,0.0,0.0,0.0,0.0,0.0,0.0,0.0,0.0,0.0,0.0,0.0,0.0,0.0,0.0,0.0,0.0,0.5404,0.5746,0.6062,0.6611,0.6879,0.6565,0.6909,0.6749,0.6186,0.6402,0.6477,0.6406,0.6468,0.65,0.65,0.65,0.6517,0.6541,0.6447,0.6544,0.6934,0.6805,0.7037,0.7371,0.7336,0.7407,0.7491,0.6956,0.6671,0.6556,0.0,0.5771,0.5984,0.604,0.5975,0.592,0.5953,0.6002,0.5675,0.354,0.1278,-0.0507,-0.0516,-0.0318,0.0,0.0,0.0,-0.0341,-0.1575,-0.181,-0.1591,-0.1124,-0.1,-0.0882,-0.0661,0.1005,0.2385,0.2655,0.4381,0.5814,0.5904,0.5916,0.5941,0.5998,0.6035,0.0,0.0,0.0,0.6427,0.6578,0.659,0.6656,0.6803,0.6758,0.6766,0.6851,0.6827,0.6935,0.7047,0.7047,0.703,0.6864,0.6864,0.7004,0.7144,0.7144,0.7144,0.7144,0.7144,0.7004,0.6725,0.6725,0.6725,0.6725,0.6725,0.6725,0.6725,0.6725,0.6688,0.6635,0.0,0.0,0.0,0.0,0.0,0.0,0.0,0.0,0.0,0.0,0.0,0.0,0.0,0.0,0.0,0.0,0.0,0.5523,0.5763,0.6219,0.6453,0.6294,0.6444,0.629,0.6047,0.6077,0.6149,0.6156,0.6248,0.6327,0.6264,0.6296,0.6329,0.6353,0.6264,0.6352,0.673,0.6724,0.6946,0.7145,0.722,0.7259,0.7187,0.6655,0.6453,0.0,0.567,0.5484,0.5648,0.5648,0.5627,0.5616,0.5687,0.5194,0.4313,0.2697,0.1591,0.0618,-0.0215,-0.0219,0.0,0.0,-0.0344,-0.0802,-0.1361,-0.159,-0.1705,-0.1123,-0.1106,-0.0984,-0.0546,0.1321,0.2682,0.2629,0.4461,0.5898,0.59,0.5945,0.5986,0.6047,0.6108,0.6194,0.0,0.0,0.0,0.6533,0.6517,0.6562,0.6705,0.6692,0.6733,0.6843,0.6851,0.6998,0.714,0.714,0.7127,0.696,0.6819,0.696,0.7243,0.7243,0.7243,0.7243,0.7243,0.7102,0.6819,0.6819,0.6819,0.6819,0.6819,0.6819,0.6819,0.6819,0.6819,0.6811,0.0,0.0,0.0,0.0,0.0,0.0,0.0,0.0,0.0,0.0,0.0,0.0,0.0,0.0,0.0,0.0,0.0,0.0,0.5432,0.5752,0.5905,0.6057,0.6092,0.6042,0.613,0.5932,0.5872,0.5948,0.5925,0.5945,0.5876,0.5965,0.6047,0.6121,0.6039,0.6127,0.6487,0.6663,0.6759,0.7,0.7225,0.7149,0.6899,0.6347,0.6068,0.5991,0.5357,0.5125,0.5186,0.5192,0.5284,0.5315,0.5325,0.3935,0.2014,0.0599,0.1128,0.2002,0.0664,0.0112,-0.0113,-0.0117,-0.0815,-0.1497,-0.092,-0.1136,-0.1121,0.0223,0.022,0.0436,0.0,0.0,0.385,0.3757,0.4998,0.6068,0.5892,0.5994,0.6055,0.0,0.0,0.0,0.0,0.0,0.0,0.6455,0.6533,0.6549,0.6472,0.6709,0.6774,0.6615,0.6778,0.701,0.7438,0.7438,0.7478,0.7566,0.7135,0.699,0.699,0.699,0.699,0.699,0.699,0.699,0.699,0.699,0.699,0.699,0.699,0.699,0.699,0.699,0.699,0.6966,0.0,0.0,0.0,0.0,0.0,0.0,0.0,0.0,0.0,0.0,0.0,0.0,0.0,0.0,0.0,0.0,0.0,0.0,0.5268,0.5507,0.5594,0.5606,0.5852,0.596,0.5702,0.5753,0.5808,0.5858,0.5886,0.5814,0.5863,0.589,0.5913,0.5935,0.5913,0.6015,0.6347,0.6404,0.6531,0.6733,0.661,0.6524,0.6295,0.6016,0.5839,0.5534,0.5409,0.529,0.5203,0.529,0.4827,0.416,0.4103,0.4403,0.452,0.3053,0.1685,0.1195,0.4015,0.1713,-0.1516,-0.1529,0.0,0.1282,0.0345,0.1258,0.2143,0.163,0.1488,0.1561,0.0,0.0,0.0,0.3628,0.4807,0.0,0.5892,0.5994,0.0,0.6141,0.0,0.6345,0.6415,0.6439,0.0,0.0,0.6476,0.6537,0.6651,0.6721,0.6798,0.6884,0.6998,0.7023,0.7102,0.7102,0.711,0.7131,0.699,0.7131,0.7421,0.7715,0.7715,0.7421,0.7715,0.757,0.699,0.699,0.699,0.699,0.699,0.699,0.699,0.699,0.699,0.6982,0.0,0.0,0.0,0.0,0.0,0.0,0.0,0.0,0.0,0.0,0.0,0.0,0.0,0.0,0.0,0.0,0.0,0.0,0.0,0.5241,0.5336,0.5396,0.5494,0.5552,0.557,0.559,0.5664,0.5712,0.5655,0.5727,0.5714,0.5714,0.5611,0.5399,0.5399,0.5404,0.5404,0.5462,0.5588,0.0,0.0,0.5497,0.5289,0.5092,0.4913,0.4709,0.4824,0.509,0.5529,0.5526,0.0,0.4822,0.4868,0.4572,0.425,0.4691,0.0,-0.0225,0.2072,0.1525,0.0119,-0.012,0.1308,0.269,0.1941,0.2356,0.285,0.2724,0.266,0.2709,0.3142,0.3836,0.4295,0.0,0.0,0.0,0.5945,0.6055,0.6141,0.0,0.6321,0.0,0.6447,0.6455,0.6472,0.0,0.6513,0.6558,0.666,0.6741,0.6827,0.6925,0.7019,0.7039,0.699,0.699,0.699,0.699,0.699,0.7135,0.7276,0.757,0.757,0.7421,0.7715,0.757,0.699,0.7135,0.7131,0.699,0.699,0.699,0.699,0.699,0.699,0.699,0.0,0.0,0.0,0.0,0.0,0.0,0.0,0.0,0.0,0.0,0.0,0.0,0.0,0.0,0.0,0.0,0.0,0.0,0.0,0.0,0.511,0.5311,0.5159,0.5208,0.5518,0.5453,0.5486,0.5522,0.5603,0.5556,0.5541,0.5527,0.5223,0.4826,0.4826,0.4532,0.4237,0.4361,0.4379,0.4301,0.4493,0.4448,0.4205,0.0,0.3866,0.3875,0.406,0.4816,0.5807,0.5802,0.5797,0.5935,0.6039,0.4283,0.2756,0.5046,0.2166,-0.1631,-0.1556,0.0603,0.2669,0.2211,0.2774,0.3277,0.339,0.2835,0.2731,0.3714,0.3733,0.3881,0.4923,0.52,0.5313,0.5194,0.0,0.5962,0.5998,0.6121,0.621,0.6288,0.639,0.6455,0.6455,0.6464,0.6504,0.6582,0.6611,0.6623,0.6623,0.677,0.686,0.6872,0.6949,0.699,0.699,0.699,0.699,0.699,0.699,0.699,0.699,0.699,0.7135,0.7135,0.7566,0.7421,0.7135,0.7421,0.7421,0.7135,0.699,0.699,0.7135,0.699,0.699,0.699,0.0,0.0,0.0,0.0,0.0,0.0,0.0,0.0,0.0,0.0,0.0,0.0,0.0,0.0,0.0,0.0,0.0,0.0,0.0,0.0,0.0,0.5078,0.5224,0.5339,0.5398,0.5578,0.5614,0.5673,0.5598,0.5489,0.5526,0.5431,0.5211,0.4692,0.4692,0.4515,0.4078,0.4153,0.4136,0.4112,0.4026,0.3973,0.3936,0.3846,0.0,0.0,0.3932,0.4502,0.5156,0.5548,0.5072,0.432,0.4395,0.336,0.2164,0.2285,0.07,-0.0838,0.0841,0.1215,0.1474,0.2708,0.3403,0.3675,0.3734,0.447,0.0,0.0,0.486,0.4802,0.4643,0.472,0.4839,0.5092,0.0,0.0,0.5904,0.608,0.6186,0.0,0.0,0.6455,0.6455,0.6521,0.0,0.0,0.6725,0.6807,0.6807,0.6835,0.6888,0.6962,0.6982,0.699,0.699,0.699,0.699,0.699,0.699,0.699,0.699,0.7276,0.7566,0.7566,0.786,0.8005,0.786,0.7711,0.7715,0.786,0.728,0.7135,0.7421,0.7135,0.699,0.699,0.0,0.0,0.0,0.0,0.0,0.0,0.0,0.0,0.0,0.0,0.0,0.0,0.0,0.0,0.0,0.0,0.0,0.0,0.0,0.0,0.0,0.5018,0.502,0.5115,0.5115,0.5283,0.5373,0.5373,0.0,0.536,0.536,0.4991,0.4617,0.4214,0.3976,0.3649,0.3241,0.3241,0.3241,0.3238,0.3204,0.319,0.3187,0.3149,0.0,0.0,0.3587,0.4075,0.4709,0.5227,0.5336,0.5202,0.4329,0.3963,0.3799,0.3717,0.2483,0.1326,0.243,0.2571,0.2585,0.3446,0.4234,0.4805,0.486,0.0,0.0,0.0,0.4965,0.4826,0.4437,0.4476,0.0,0.492,0.5194,0.0,0.0,0.0,0.0,0.0,0.0,0.6455,0.0,0.6537,0.6611,0.6656,0.6782,0.6851,0.6851,0.6896,0.6945,0.699,0.699,0.699,0.699,0.699,0.699,0.699,0.699,0.699,0.699,0.7135,0.7421,0.7566,0.7711,0.786,0.786,0.786,0.786,0.786,0.7425,0.7421,0.7566,0.7421,0.7135,0.699,0.0,0.0,0.0,0.0,0.0,0.0,0.0,0.0,0.0,0.0,0.0,0.0,0.0,0.0,0.0,0.0,0.0,0.0,0.0,0.0,0.0,0.0,0.0,0.0,0.4905,0.0,0.0,0.0,0.5136,0.0,0.0,0.0,0.0,0.0,0.3295,0.2904,0.251,0.251,0.251,0.0,0.0,0.251,0.0,0.0,0.0,0.0,0.0,0.3601,0.4202,0.4652,0.5465,0.6029,0.4755,0.4931,0.5652,0.5822,0.4736,0.3379,0.3788,0.3807,0.3935,0.4288,0.4934,0.5685,0.5705,0.5496,0.0,0.483,0.4741,0.4536,0.4214,0.4287,0.45,0.479,0.5051,0.5341,0.57,0.0,0.0,0.0,0.0,0.0,0.648,0.6566,0.0,0.6745,0.6835,0.6884,0.6884,0.6949,0.699,0.7135,0.699,0.699,0.7135,0.699,0.699,0.699,0.699,0.699,0.699,0.699,0.7276,0.7566,0.7566,0.7711,0.7856,0.8005,0.786,0.7856,0.7566,0.7566,0.7566,0.7566,0.7276,0.699,0.0,0.0,0.0,0.0,0.0,0.0,0.0,0.0,0.0,0.0,0.0,0.0,0.0,0.0,0.0,0.0,0.0,0.0,0.0,0.0,0.0,0.0,0.0,0.0,0.0,0.0,0.0,0.0,0.0,0.0,0.0,0.0,0.0,0.0,0.0,0.0,0.251,0.251,0.0,0.0,0.0,0.0,0.0,0.0,0.0,0.0,0.0,0.2899,0.3311,0.3838,0.0,0.4899,0.5178,0.5612,0.6079,0.5877,0.0,0.0,0.5305,0.475,0.4169,0.5328,0.5662,0.5748,0.5426,0.0,0.5151,0.4565,0.4467,0.4426,0.4114,0.4193,0.4426,0.4777,0.4994,0.5247,0.5606,0.0,0.0,0.0,0.0,0.0,0.657,0.666,0.6749,0.6835,0.6925,0.6978,0.6978,0.6986,0.7131,0.7566,0.7135,0.7135,0.7566,0.7135,0.699,0.699,0.699,0.699,0.699,0.699,0.7276,0.7566,0.7566,0.8,0.8584,0.7856,0.8,0.844,0.7425,0.7276,0.7566,0.7135,0.699,0.699,0.0,0.0,0.0,0.0,0.0,0.0,0.0,0.0,0.0,0.0,0.0,0.0,0.0,0.0,0.0,0.0,0.0,0.0,0.0,0.0,0.0,0.0,0.0,0.0,0.0,0.0,0.0,0.0,0.0,0.0,0.0,0.0,0.0,0.0,0.0,0.0,0.0,0.251,0.0,0.0,0.0,0.0,0.0,0.0,0.0,0.0,0.0,0.0,0.2899,0.3243,0.0,0.0,0.4705,0.5248,0.0,0.0,0.5443,0.5284,0.5749,0.5479,0.5165,0.575,0.5737,0.5635,0.5465,0.0,0.4816,0.444,0.4322,0.4183,0.401,0.4046,0.4193,0.461,0.4736,0.4912,0.5271,0.5602,0.0,0.0,0.6227,0.0,0.0,0.0,0.6786,0.6925,0.697,0.699,0.699,0.699,0.7135,0.7566,0.728,0.7135,0.7566,0.7135,0.699,0.699,0.699,0.7135,0.7421,0.7135,0.728,0.786,0.7421,0.7566,0.8,0.7711,0.7711,0.8,0.7566,0.7421,0.7566,0.7421,0.728,0.699,0.0,0.0,0.0,0.0,0.0,0.0,0.0,0.0,0.0,0.0,0.0,0.0,0.0,0.0,0.0,0.0,0.0,0.0,0.0,0.0,0.0,0.0,0.0,0.0,0.0,0.0,0.0,0.0,0.0,0.0,0.0,0.0,0.0,0.0,0.0,0.0,0.0,0.0,0.0,0.0,0.0,0.0,0.0,0.0,0.0,0.0,0.0,0.0,0.0,0.0,0.0,0.0,0.0,0.4886,0.5379,0.0,0.5791,0.5921,0.5852,0.5745,0.5831,0.5802,0.5631,0.5394,0.0,0.5018,0.4632,0.4342,0.4214,0.4051,0.3969,0.3965,0.4063,0.443,0.4561,0.4728,0.5063,0.5394,0.0,0.0,0.0,0.6321,0.0,0.6705,0.6856,0.6978,0.699,0.699,0.699,0.699,0.728,0.7711,0.728,0.728,0.7711,0.7425,0.7135,0.699,0.7135,0.728,0.7421,0.7135,0.728,0.786,0.7425,0.7421,0.7711,0.7711,0.7566,0.7566,0.7421,0.7421,0.7421,0.7421,0.7276,0.699,0.0,0.0,0.0,0.0,0.0,0.0,0.0,0.0,0.0,0.0,0.0,0.0,0.0,0.0,0.0,0.0,0.0,0.0,0.0,0.0,0.0,0.0,0.0,0.0,0.0,0.0,0.0,0.451,0.0,0.0,0.0,0.0,0.0,0.0,0.0,0.0,0.0,0.0,0.0,0.0,0.0,0.0,0.251,0.0,0.0,0.0,0.0,0.0,0.0,0.0,0.0,0.0,0.0,0.469,0.5566,0.5746,0.5887,0.5923,0.5802,0.5741,0.5627,0.5533,0.5447,0.5288,0.492,0.4726,0.4542,0.4091,0.4053,0.4029,0.3964,0.3973,0.4091,0.4271,0.4528,0.4802,0.5071,0.5341,0.0,0.0,0.0,0.6161,0.6431,0.6778,0.6986,0.699,0.699,0.699,0.699,0.699,0.728,0.8005,0.7425,0.728,0.815,0.7711,0.7421,0.699,0.7421,0.7421,0.699,0.699,0.7276,0.7566,0.7566,0.7711,0.8005,0.7711,0.7566,0.7566,0.7131,0.699,0.699,0.699,0.699,0.699,0.0,0.0,0.0,0.0,0.0,0.0,0.0,0.0,0.0,0.0,0.0,0.0,0.0,0.0,0.0,0.0,0.0,0.0,0.0,0.0,0.0,0.0,0.0,0.0,0.0,0.0,0.4087,0.3821,0.334,0.3108,0.0,0.0,0.0,0.0,0.0,0.0,0.0,0.0,0.0,0.0,0.0,0.251,0.251,0.0,0.0,0.0,0.0,0.0,0.0,0.0,0.0,0.0,0.0,0.0,0.0,0.4711,0.5346,0.5916,0.5812,0.5665,0.5567,0.5477,0.5227,0.4945,0.4708,0.4543,0.4285,0.3985,0.3926,0.3872,0.3883,0.3871,0.3989,0.4418,0.4504,0.4659,0.5051,0.0,0.0,0.5765,0.6215,0.6545,0.0,0.0,0.699,0.699,0.699,0.699,0.699,0.699,0.728,0.7711,0.728,0.728,0.7711,0.7425,0.7135,0.699,0.7421,0.7711,0.7715,0.7566,0.7711,0.829,0.7856,0.7711,0.7711,0.7711,0.7421,0.7135,0.699,0.699,0.699,0.699,0.699,0.699,0.0,0.0,0.0,0.0,0.0,0.0,0.0,0.0,0.0,0.0,0.0,0.0,0.0,0.0,-0.0219,-0.068,0.0,0.0,0.0,0.0,0.0,0.0,0.0,0.0,0.0,0.4293,0.3903,0.3276,0.3007,0.279,0.2724,0.2517,0.2545,0.0,0.0,0.0,0.0,0.0,0.0,0.0,0.251,0.251,0.251,0.0,0.0,0.0,0.0,0.0,0.0,0.0,0.0,0.0,0.0,0.0,0.0,0.0,0.4858,0.5526,0.5457,0.5359,0.5286,0.5231,0.4972,0.0,0.4553,0.4312,0.4079,0.3928,0.3826,0.3781,0.3838,0.383,0.3936,0.4308,0.4406,0.4581,0.4998,0.0,0.0,0.5855,0.0,0.0,0.0,0.6864,0.7135,0.7276,0.7135,0.7135,0.7276,0.7135,0.7135,0.7421,0.7135,0.7135,0.7566,0.7421,0.7276,0.7276,0.7566,0.786,0.815,0.786,0.8145,0.8729,0.8005,0.7856,0.0,0.7711,0.7421,0.699,0.699,0.699,0.699,0.699,0.699,0.699,0.0,0.0,0.0,0.0,0.0,0.0,0.0,0.0,0.0,0.0,0.0,0.0,0.0,0.0,0.0,0.0,0.0,0.0,0.0,0.0,0.0,0.0,0.0,0.0,0.0,0.416,0.3702,0.3028,0.3016,0.2823,0.2253,0.2435,0.2466,0.2358,0.0,0.0,0.0,0.0,0.0,0.0,0.251,0.251,0.0,0.0,0.0,0.0,0.0,0.0,0.0,0.0,0.0,0.0,0.0,0.0,0.0,0.0,0.0,0.0,0.0,0.4844,0.4785,0.4777,0.4655,0.4512,0.4418,0.4206,0.0,0.3908,0.3822,0.3769,0.3781,0.3846,0.394,0.4063,0.4291,0.4581,0.4949,0.5247,0.0,0.0,0.6313,0.0,0.659,0.6835,0.7131,0.7566,0.7276,0.7135,0.7566,0.7276,0.699,0.699,0.7135,0.7276,0.7566,0.7711,0.7711,0.7566,0.786,0.815,0.815,0.8155,0.8295,0.8729,0.8295,0.815,0.8005,0.7711,0.7421,0.699,0.699,0.699,0.699,0.699,0.699,0.699,0.0,0.0,0.0,0.0,0.0,0.0,0.0,0.0,0.0,0.0,0.0,0.0,0.0,0.0,0.0,0.0,0.0,0.0,0.0,0.0,0.0,0.0,0.0,0.0,0.0,0.3746,0.3292,0.3013,0.2777,0.2764,0.2818,0.2445,0.2374,0.2672,0.2361,0.0,0.0,0.0,0.0,0.0,0.251,0.251,0.0,0.0,0.0,0.0,0.251,0.251,0.0,0.0,0.0,0.0,0.0,0.0,0.0,0.0,0.3217,0.3538,0.4034,0.0,0.4665,0.4502,0.4276,0.4136,0.0,0.3977,0.3908,0.3814,0.0,0.3805,0.3944,0.3932,0.4042,0.4479,0.4602,0.4794,0.5226,0.0,0.0,0.6325,0.6537,0.6672,0.6692,0.6872,0.7131,0.7566,0.7276,0.7135,0.7566,0.7276,0.699,0.699,0.814,0.8285,0.7131,0.8285,0.8285,0.7135,0.786,0.815,0.815,0.844,0.8729,0.9157,0.844,0.815,0.8005,0.7711,0.7421,0.699,0.699,0.699,0.699,0.699,0.699,0.699,0.0,0.0,0.0,0.0,0.0,0.0,0.0,0.0,0.0,0.0,0.0,0.0,0.0,0.0,0.0,0.0,0.0,0.0,0.0,0.0,0.0,0.0,0.0,0.0,0.4151,0.3493,0.3027,0.2824,0.2745,0.265,0.2633,0.2353,0.2198,0.2257,0.2244,0.0,0.0,0.0,0.0,0.251,0.251,0.0,0.0,0.0,0.0,0.0,0.251,0.2431,0.0,0.2175,0.2095,0.1997,0.0,0.0,0.0,0.0,0.3008,0.344,0.3758,0.411,0.4476,0.4338,0.421,0.4087,0.4034,0.3928,0.0,0.0,0.0,0.3805,0.3948,0.4001,0.4148,0.4524,0.4687,0.4953,0.0,0.0,0.0,0.6427,0.6615,0.6725,0.6725,0.6888,0.7131,0.7566,0.7276,0.7135,0.7566,0.7856,0.7996,0.7996,1.0293,1.0293,0.814,0.9579,0.9723,0.8285,0.8868,0.8868,0.844,0.8729,0.9446,1.0299,0.9013,0.8724,0.9296,0.829,0.7566,0.7276,0.7276,0.7131,0.699,0.699,0.699,0.699,0.0,0.0,0.0,0.0,0.0,0.0,0.0,0.0,0.0,0.0,0.0,0.0,0.0,0.0,0.0,0.0,0.0,0.0,0.0,0.0,0.0,0.0,0.0,0.416,0.3864,0.3303,0.2893,0.2692,0.2763,0.2675,0.2315,0.2237,0.2091,0.1724,0.2014,0.0,0.0,0.0,0.0,0.2405,0.2405,0.0,0.0,0.0,0.0,0.0,0.0,0.0,0.0,0.2169,0.2021,0.1859,0.17,0.0,0.0,0.0,0.0,0.0,0.3797,0.4059,0.4308,0.4251,0.4206,0.4169,0.4157,0.0,0.0,0.0,0.0,0.0,0.0,0.412,0.0,0.4504,0.4773,0.0,0.5741,0.6043,0.6264,0.6435,0.6615,0.6725,0.6725,0.6888,0.7131,0.7566,0.7276,0.7135,0.7566,0.8714,0.9291,0.9291,1.2302,1.2588,1.0006,1.1012,1.1012,0.9867,1.0161,0.9873,0.9013,0.959,1.0587,1.1872,0.9873,0.9729,1.0868,0.9152,0.829,0.7996,0.814,0.7851,0.7421,0.7421,0.7131,0.699,0.0,0.0,0.0,0.0,0.0,0.0,0.0,0.0,0.0,0.0,0.0,0.0,0.0,0.0,0.0,0.0,0.0,0.0,0.0,0.0,0.0,0.0,0.3301,0.4121,0.3879,0.3011,0.265,0.2692,0.2804,0.2894,0.287,0.2489,0.2224,0.1854,0.1889,0.1953,0.2129,0.0,0.0,0.1918,0.1918,0.0,0.0,0.0,0.0,0.0,0.0,0.0,0.0,0.1814,0.1658,0.1579,0.1422,0.0,0.0,0.0,0.0,0.0,0.3706,0.4202,0.434,0.4038,0.4067,0.4153,0.4075,0.0,0.0,0.0,0.0,0.0,0.0,0.4426,0.4528,0.0,0.0,0.5635,0.0,0.0,0.6333,0.6443,0.0,0.6725,0.6725,0.6888,0.7131,0.7566,0.7276,0.7135,0.7566,0.8714,0.9291,0.9291,1.2302,1.3737,1.3167,1.2158,1.0868,0.9435,0.9723,1.0011,1.0149,1.1872,1.3024,1.3452,1.1442,1.0725,1.1012,1.0293,0.9867,0.9723,1.0868,1.0437,0.9002,0.9002,0.814,0.699,0.0,0.0,0.0,0.0,0.0,0.0,0.0,0.0,0.0,0.0,0.0,0.0,0.0,0.0,0.0,0.0,0.0,0.0,0.0,0.0,0.0,0.0653,0.083,0.1623,0.2969,0.2663,0.257,0.2692,0.2782,0.2782,0.2775,0.237,0.2077,0.1826,0.1895,0.1975,0.2075,0.2104,0.1971,0.1823,0.0,0.0,0.0,0.0,0.0,0.0,0.0,0.0,0.0,0.0,0.1489,0.1435,0.1321,0.0,0.0,0.0,0.0,0.0,0.3786,0.4087,0.4267,0.4144,0.4324,0.452,0.4475,0.0,0.0,0.0,0.0,0.0,0.0,0.0,0.4871,0.5324,0.0,0.5851,0.6027,0.6206,0.6349,0.0,0.6615,0.6725,0.6725,0.6888,0.7135,0.728,0.7135,0.7135,0.728,0.9291,1.0437,1.0293,1.3452,1.5026,1.4884,1.3452,1.2015,1.0581,1.1729,1.1586,1.0149,1.2302,1.3872,1.4733,1.3159,1.3016,1.3729,1.2731,1.2008,1.1722,1.2302,1.1729,1.0725,0.9718,0.8285,0.699,0.0,0.0,0.0,0.0,0.0,0.0,0.0,0.0,0.0,0.0,0.0,0.0,0.0,0.0,0.0,0.0,0.0,0.0,0.0,0.0,-0.077,0.0,-0.0806,-0.0151,0.217,0.2199,0.2349,0.2714,0.2774,0.2769,0.259,0.2254,0.2034,0.183,0.1911,0.1922,0.1879,0.1918,0.1791,0.1646,0.0,0.0,0.0,0.0,0.0,0.0,0.0,0.0,0.0,0.0,0.0,0.0,0.0,0.0,0.0,0.2426,0.2966,0.3538,0.3814,0.401,0.423,0.4336,0.4553,0.4757,0.4818,0.0,0.0,0.0,0.0,0.0,0.0,0.4826,0.0,0.5582,0.5814,0.5982,0.6072,0.6235,0.6374,0.6447,0.6598,0.6705,0.6725,0.6868,0.6966,0.6986,0.699,0.699,0.699,0.9862,1.1429,1.111,1.429,1.5867,1.5671,1.4716,1.3595,1.2158,1.3595,1.3159,1.1005,1.3159,1.4733,1.5867,1.4733,1.5017,1.6018,1.4875,1.4156,1.3863,1.3729,1.3302,1.2302,1.0437,0.8858,0.7566,0.0,0.0,0.0,0.0,0.0,0.0,0.0,0.0,0.0,0.0,0.0,0.0,0.0,0.0,0.0,0.0,0.0,0.0,0.0,0.0,-0.1082,-0.1014,-0.0069,0.1043,0.2327,0.1717,0.1824,0.2777,0.2837,0.2809,0.259,0.243,0.2296,0.2184,0.1889,0.1662,0.1619,0.1419,0.1285,0.115,0.1285,0.0,0.0,0.0,0.0,0.0,0.0,0.0,0.0,0.0,0.0,0.0,0.0,0.0,0.1446,0.2276,0.2543,0.2771,0.3722,0.4148,0.4332,0.4508,0.4508,0.0,0.4777,0.4692,0.0,0.4671,0.0,0.0,0.0,0.5104,0.5414,0.561,0.5867,0.6072,0.6157,0.6329,0.6447,0.6451,0.6541,0.6635,0.6717,0.6811,0.6896,0.6982,0.699,0.699,0.699,0.9862,1.1525,1.1248,1.4082,1.5661,1.5886,1.5652,1.4884,1.3737,1.388,1.4014,1.4148,1.5726,1.6734,1.7168,1.6018,1.5584,1.5726,1.5877,1.5867,1.5584,1.6593,1.5593,1.3595,1.2015,1.0437,0.9147,0.0,0.0,0.0,0.0,0.0,0.0,0.0,0.0,0.0,0.0,0.0,0.0,0.0,0.0,0.0,0.0,0.0,0.0,0.0,0.0,-0.1019,-0.0827,-0.1045,-0.0655,0.0471,0.1526,0.2327,0.2782,0.2807,0.2722,0.2442,0.2445,0.2247,0.187,0.1829,0.1699,0.1412,0.1479,0.1344,0.1143,0.1277,0.1285,0.0,0.0,0.0,0.0,0.0,0.0,0.0,0.0,0.1209,0.1228,0.116,0.1319,0.1666,0.2344,0.2664,0.3014,0.3675,0.4079,0.4328,0.4455,0.4549,0.0,0.0,0.4953,0.4932,0.5022,0.4998,0.0,0.0,0.0,0.5459,0.5692,0.5912,0.6084,0.617,0.6337,0.6455,0.6455,0.6533,0.6602,0.6639,0.6581,0.6504,0.6536,0.659,0.688,0.7804,1.0125,1.1664,1.2204,1.4354,1.5477,1.5394,1.532,1.528,1.5131,1.5256,1.4884,1.4156,1.5877,1.6734,1.6875,1.7007,1.7007,1.7007,1.7439,1.7298,1.7007,1.7168,1.6018,1.4014,1.2437,1.1586,1.0725,0.0,0.0,0.0,0.0,0.0,0.0,0.0,0.0,0.0,0.0,0.0,0.0,0.0,0.0,0.0,0.0,0.0,0.0,0.0,-0.0461,-0.0808,-0.083,-0.1605,-0.1503,-0.0298,0.1333,0.2219,0.2237,0.2514,0.257,0.2493,0.2358,0.2201,0.1863,0.184,0.1658,0.1449,0.1505,0.1424,0.1143,0.1277,0.1277,0.0,0.0,0.0,0.0,0.0,0.0,0.0,0.0,0.1194,0.1217,0.1155,0.1455,0.1874,0.2339,0.286,0.3338,0.3794,0.4197,0.4464,0.4491,0.0,0.0,0.5047,0.5088,0.5108,0.5259,0.5214,0.0,0.5353,0.0,0.0,0.0,0.5916,0.6084,0.617,0.6337,0.6455,0.6455,0.6509,0.6558,0.6586,0.6367,0.6133,0.6163,0.6074,0.6778,0.8238,1.0119,1.1643,1.2717,1.442,1.5255,1.5045,1.511,1.5385,1.5728,1.6008,1.5539,1.4742,1.6028,1.6593,1.6593,1.7298,1.758,1.758,1.7872,1.7861,1.758,1.7308,1.6442,1.5008,1.4014,1.3302,1.2437,0.0,0.0,0.0,0.0,0.0,0.0,0.0,0.0,0.0,0.0,0.0,0.0,0.0,0.0,0.0,0.0,0.0,0.0,0.0,0.0,-0.0327,-0.1077,-0.1451,-0.0851,0.0655,0.1146,0.1283,0.1008,0.1975,0.2462,0.26,0.2299,0.2194,0.2189,0.1863,0.1677,0.1673,0.1488,0.1378,0.1277,0.1277,0.1277,0.1277,0.0,0.0,0.0,0.0,0.0,0.0,0.0,0.1166,0.1167,0.1166,0.1459,0.1907,0.2328,0.2992,0.3556,0.4082,0.4478,0.4762,0.0,0.0,0.0,0.5151,0.5039,0.5051,0.5324,0.5312,0.5275,0.5365,0.5386,0.0,0.5614,0.5876,0.6084,0.617,0.6337,0.6451,0.6451,0.6455,0.6488,0.6578,0.6313,0.6073,0.6155,0.588,0.643,0.8228,0.9745,1.1337,1.2823,1.4214,1.5036,1.5233,1.5036,1.5101,1.5311,1.5728,1.5971,1.6178,1.6178,1.6178,1.6178,1.6593,1.6734,1.6734,1.7168,1.7017,1.6734,1.7168,1.7017,1.6734,1.7168,1.6009,1.4148,0.0,0.0,0.0,0.0,0.0,0.0,0.0,0.0,0.0,0.0,0.0,0.0,0.0,0.0,0.0,0.0,0.0,0.0,0.0,0.0,-0.0334,-0.1078,-0.1221,-0.0888,-0.0069,0.0508,0.1231,0.2135,0.2196,0.2331,0.2537,0.2245,0.2125,0.2087,0.1836,0.1572,0.1447,0.1503,0.137,0.1176,0.1314,0.1314,0.1176,0.0,0.0,0.0,0.0,0.0,0.0,0.0,0.0,0.0,0.1141,0.1455,0.1951,0.2339,0.2891,0.3403,0.3968,0.4329,0.0,0.0,0.0,0.0,0.0,0.5137,0.0,0.0,0.55,0.5512,0.5475,0.5524,0.0,0.5635,0.5818,0.599,0.608,0.6243,0.6225,0.6097,0.6281,0.6464,0.6084,0.5818,0.5559,0.558,0.5358,0.6313,0.9069,0.9968,1.1589,1.4235,1.4686,1.495,1.5026,1.4833,1.4962,1.5287,1.5174,1.5271,1.5753,1.6037,1.6178,1.6178,1.6593,1.6734,1.6734,1.6875,1.6875,1.6734,1.7168,1.7017,1.6583,1.6291,1.6291,1.5867,0.0,0.0,0.0,0.0,0.0,0.0,0.0,0.0,0.0,0.0,-0.0228,-0.0173,0.0,0.0,0.0,0.0,0.0,0.0,0.0,0.0,0.0066,0.0135,0.0202,0.027,0.041,0.0847,0.1469,0.2461,0.224,0.2233,0.2441,0.2223,0.2134,0.2106,0.1897,0.1705,0.1483,0.1537,0.1394,0.1191,0.1261,0.1191,0.1121,0.0,0.0,0.0,0.0,0.0,0.0,0.0,0.0,0.0,0.1284,0.1661,0.2149,0.2694,0.3166,0.3676,0.4218,0.4542,0.0,0.0,0.5167,0.5243,0.5243,0.0,0.0,0.0,0.5659,0.5671,0.5578,0.5606,0.0,0.5643,0.5798,0.5949,0.6039,0.6174,0.6133,0.5747,0.6181,0.6213,0.5814,0.5554,0.5423,0.5423,0.5199,0.6406,0.9539,1.0016,1.1652,1.48,1.4931,1.4931,1.4931,1.48,1.4892,1.4976,1.4946,1.5072,1.5211,1.5717,1.5895,1.6037,1.632,1.6452,1.6452,1.6452,1.6452,1.6593,1.6875,1.6875,1.6725,1.6574,1.6866,1.6734,0.0,0.0,0.0,0.0,0.0,0.0,0.0,0.0,0.0,0.0,-0.0617,-0.0449,0.0,0.0,0.0,0.0,0.0,0.0,0.0,0.0,0.0636,0.2013,0.2153,0.2041,0.174,0.1744,0.1886,0.2167,0.2131,0.2161,0.2265,0.2225,0.2194,0.2192,0.2084,0.1893,0.1728,0.1537,0.143,0.1331,0.1191,0.1121,0.1121,0.1121,0.0,0.0,0.0,0.0,0.0,0.0,0.0,0.0,0.1586,0.2006,0.244,0.3067,0.362,0.4144,0.4638,0.0,0.0,0.5347,0.5443,0.0,0.5439,0.5488,0.5541,0.5741,0.0,0.5745,0.5671,0.5655,0.5655,0.5655,0.5802,0.5945,0.6031,0.6117,0.6042,0.5661,0.5921,0.6054,0.5672,0.5672,0.5544,0.5544,0.5283,0.6464,0.9786,0.9935,1.1438,1.4763,1.4922,1.4931,1.4931,1.4931,1.4894,1.4691,1.4967,1.5027,1.4701,1.5343,1.5593,1.5603,1.5895,1.6037,1.6178,1.6178,1.6178,1.6178,1.6593,1.6734,1.6734,1.758,1.758,1.6875,0.0,0.0,0.0,0.0,0.0,0.0,0.0,0.0,0.0,0.0,0.0,0.0,0.0,0.0,0.0,0.0,0.0,0.0,0.0,0.0,0.0643,0.2022,0.2666,0.2632,0.1896,0.1831,0.1901,0.1968,0.1965,0.2084,0.2265,0.2225,0.2175,0.2141,0.1959,0.1754,0.1494,0.1385,0.1244,0.1191,0.1121,0.1121,0.1121,0.1121,0.1102,0.0,0.0,0.0,0.0,0.0,0.0,0.0,0.1542,0.1998,0.2475,0.2961,0.3534,0.4075,0.4435,0.4691,0.0,0.0,0.5299,0.5268,0.5361,0.5353,0.5394,0.5716,0.5725,0.5688,0.5741,0.5753,0.5753,0.5753,0.5843,0.5925,0.5945,0.6023,0.5827,0.5192,0.5755,0.5925,0.5411,0.554,0.5544,0.5544,0.5029,0.6182,0.9525,0.9374,1.0869,1.4566,1.4586,1.467,1.4931,1.4931,1.4828,1.4875,1.4769,1.4754,1.472,1.522,1.5325,1.5186,1.5186,1.547,1.5753,1.5753,1.5895,1.6178,1.6593,1.6734,1.6734,1.758,1.758,1.6875,0.0,0.0,0.0,0.0,0.0,0.0,0.0,0.0,0.0,0.0,0.0,0.0,0.0,0.0,0.0,0.0,0.0,0.0,0.0,0.0,0.0,0.1934,0.2683,0.2814,0.232,0.1998,0.1884,0.1846,0.1874,0.1941,0.0,0.0,0.2161,0.2158,0.1875,0.167,0.1426,0.1248,0.1176,0.1121,0.1121,0.1121,0.1121,0.1121,0.1102,0.1076,0.1076,0.0,0.0,0.0,0.0,0.0,0.0,0.0,0.2417,0.3178,0.3581,0.3883,0.4447,0.0,0.0,0.5185,0.0,0.5157,0.5341,0.5275,0.5267,0.5586,0.5647,0.5659,0.5704,0.5753,0.5782,0.5782,0.5823,0.5867,0.5912,0.5921,0.569,0.5233,0.6268,0.6549,0.5175,0.5926,0.6177,0.5301,0.4926,0.6193,0.9506,0.945,1.0926,1.4351,1.429,1.4401,1.4789,1.4754,1.48,1.4931,1.4781,1.475,1.4727,1.4853,1.5095,1.5193,1.5008,1.5186,1.5328,1.5328,1.5612,1.5895,1.6169,1.631,1.6603,1.7157,1.7087,1.6457,0.0,0.0,0.0,0.0,0.0,0.0,0.0,0.0,0.0,0.0,0.0,0.0,0.0,0.0,0.0,0.0,0.0,0.0,0.0,0.0,0.0,0.0,0.2695,0.292,0.283,0.2228,0.188,0.1791,0.0,0.0,0.0,0.0,0.0,0.2026,0.1717,0.152,0.1447,0.1196,0.1114,0.1114,0.1114,0.1114,0.1114,0.1114,0.1097,0.1076,0.1076,0.1076,0.1076,0.1081,0.0,0.0,0.0,0.0,0.2482,0.3456,0.3622,0.3712,0.4487,0.0,0.4757,0.5239,0.523,0.0,0.53,0.5218,0.5173,0.5414,0.5533,0.5606,0.5639,0.5692,0.5737,0.5753,0.5757,0.5786,0.5859,0.5818,0.5565,0.5269,0.6508,0.6761,0.5421,0.6521,0.6884,0.5421,0.5298,0.6553,0.9354,0.951,1.0952,1.4126,1.4116,1.4116,1.4501,1.4438,1.4539,1.48,1.4931,1.4894,1.4672,1.4764,1.4831,1.5041,1.4929,1.4875,1.491,1.491,1.5186,1.5461,1.5461,1.5753,1.6178,1.6452,1.6486,1.6072,0.0,0.0,0.0,0.0,0.0,0.0,0.0,0.0,0.0,0.0,-0.0897,0.0,0.0,0.0,0.0,0.0,0.0,0.0,0.0,0.0,0.0,0.0,0.3249,0.3118,0.3329,0.2466,0.2027,0.186,0.0,0.0,0.0,0.0,0.0,0.1598,0.0,0.1407,0.1125,0.1095,0.1081,0.1081,0.1081,0.1081,0.1081,0.1081,0.108,0.1076,0.1078,0.1077,0.108,0.1106,0.1324,0.0,0.0,0.0,0.2795,0.3331,0.3565,0.3789,0.0,0.0,0.4973,0.0,0.5186,0.5116,0.0,0.0,0.5141,0.0,0.5353,0.5463,0.5614,0.559,0.5569,0.5647,0.5663,0.5667,0.568,0.5499,0.5301,0.4955,0.5136,0.5667,0.6512,0.7128,0.725,0.7128,0.6757,0.7368,0.9207,0.8952,1.0397,1.392,1.3789,1.3859,1.4116,1.4308,1.4408,1.4408,1.48,1.495,1.4847,1.4691,1.4574,1.4335,1.4361,1.4463,1.4625,1.4625,1.4759,1.5044,1.5044,1.547,1.6178,1.6178,1.6442,1.6263,0.0,0.0,0.0,0.0,0.0,0.0,0.0,0.0,0.0,0.0,0.0,-0.0897,0.0,0.0,0.0,-0.0449,-0.0168,0.0,0.0,0.1402,0.0,0.0,0.3469,0.332,0.3096,0.2606,0.2214,0.0,0.0,0.0,0.0,0.175,0.1732,0.0,0.0,0.0,0.0,0.1096,0.1066,0.1054,0.1069,0.1096,0.1123,0.1088,0.1107,0.1145,0.1095,0.0,0.1147,0.1389,0.1542,0.1823,0.2382,0.0,0.0,0.0,0.3518,0.3646,0.4128,0.4606,0.503,0.0,0.5214,0.5108,0.5108,0.0,0.5059,0.5149,0.5239,0.5357,0.5533,0.5533,0.5537,0.5631,0.5602,0.5586,0.5635,0.5518,0.5412,0.5223,0.5975,0.6593,0.6827,0.784,0.8354,0.7987,0.721,0.7362,0.8939,0.8879,0.94,1.0997,1.2623,1.3195,1.2656,1.362,1.4428,1.467,1.48,1.4931,1.4931,1.4894,1.4629,1.4319,1.4284,1.4156,1.4189,1.4189,1.4332,1.4768,1.4768,1.5052,1.5612,1.5753,1.5962,1.5447,0.0,0.0,0.0,0.0,0.0,0.0,0.0,0.0,0.0,0.0,0.0,0.0,0.0,0.0,0.0,0.0,-0.0112,-0.0057,-0.0,0.1104,0.0,0.0,0.0,0.3525,0.3077,0.2711,0.2402,0.0,0.0,0.0,0.1458,0.158,0.1574,0.0,0.1285,0.0,0.0,0.0,0.0,0.0,0.1096,0.1137,0.1175,0.1153,0.1262,0.1388,0.1214,0.0,0.0,0.0,0.1823,0.1963,0.2589,0.2868,0.0,0.0,0.0,0.0,0.0,0.0,0.4875,0.5198,0.5157,0.5055,0.0,0.0,0.4998,0.0,0.5181,0.5284,0.5414,0.5459,0.5496,0.5565,0.552,0.55,0.5565,0.5422,0.5418,0.5486,0.6233,0.6955,0.7391,0.8313,0.8978,0.9084,0.8113,0.7818,0.8696,0.9188,0.9431,0.9431,1.2045,1.296,1.1956,1.3343,1.4346,1.48,1.48,1.4931,1.4931,1.4931,1.4732,1.4411,1.4457,1.4255,1.4047,1.4047,1.4189,1.4332,1.4332,1.4617,1.5052,1.5328,1.5229,1.4552,0.0,0.0,0.0,0.0,0.0,0.0,0.0,0.0,0.0,0.0,0.0,0.0,0.0,-0.0617,-0.0393,-0.0393,-0.0393,-0.028,-0.0,0.1123,0.2359,0.3492,0.0,0.0,0.3588,0.2945,0.0,0.0,0.0,0.0,0.1147,0.1353,0.135,0.1335,0.1333,0.1204,0.1123,0.0,0.0,0.0,0.0,0.0,0.0,0.0,0.0,0.0,0.0,0.0,0.0,0.0,0.0,0.0,0.0,0.3011,0.3348,0.0,0.0,0.0,0.0,0.4193,0.0,0.4883,0.492,0.0,0.0,0.0,0.4998,0.5088,0.5181,0.5247,0.5255,0.5328,0.539,0.5394,0.539,0.539,0.5394,0.5236,0.5054,0.5062,0.4725,0.561,0.8549,0.8425,0.8853,1.0627,1.0517,0.9877,0.8818,1.0279,1.1133,1.1133,1.2664,1.3523,1.34,1.3915,1.4216,1.4408,1.48,1.4931,1.4931,1.4931,1.479,1.4745,1.4937,1.4831,1.4474,1.4474,1.4189,1.3904,1.3904,1.4332,1.5052,1.5052,1.4307,1.3278,0.0,0.0,0.0,0.0,0.0,0.0,0.0,0.0,0.0,0.0,0.0,0.0,0.0,-0.0785,-0.0729,-0.0729,-0.0,0.0449,0.0561,0.1849,0.2802,0.337,0.0,0.0,0.0,0.0,0.0,0.0,0.0,0.1635,0.1376,0.1361,0.1284,0.1198,0.1198,0.1191,0.1175,0.1117,0.0,0.0,0.0,0.0,0.0,0.0,0.0,0.0,0.0,0.0,0.0,0.0,0.0,0.0,0.0,0.0,0.0,0.0,0.0,0.0,0.0,0.0,0.0,0.463,0.4777,0.4859,0.4957,0.4977,0.4998,0.5088,0.5088,0.5104,0.5222,0.5095,0.5154,0.5382,0.527,0.5154,0.5382,0.5298,0.5205,0.5205,0.5142,0.5733,0.7618,0.8406,0.9293,1.0563,1.0747,1.0066,0.845,0.9258,0.9188,0.8216,0.9727,1.1027,1.225,1.3527,1.4281,1.4484,1.4735,1.4931,1.4931,1.4931,1.4913,1.4976,1.505,1.49,1.4578,1.4437,1.4364,1.4189,1.4047,1.4047,1.4332,1.4768,1.403,1.2437,0.0,0.0,0.0,0.0,0.0,0.0,0.0,0.0,0.0,0.0,0.0,0.0,0.0,0.0,-0.0456,-0.0285,0.0455,0.0965,0.1121,0.2073,0.2858,0.3258,0.336,0.0,0.0,0.3244,0.0,0.0,0.0,0.0,0.0,0.1327,0.1247,0.1166,0.1156,0.1168,0.0,0.0,0.0,0.1256,0.0,0.0,0.1489,0.0,0.0,0.0,0.0,0.0,0.0,0.0,0.0,0.0,0.0,0.0,0.0,0.0,0.0,0.0,0.3639,0.0,0.0,0.0,0.0,0.4675,0.4916,0.4924,0.4937,0.5116,0.5079,0.5055,0.5177,0.5029,0.4974,0.5146,0.5154,0.5154,0.527,0.5382,0.5382,0.5382,0.5209,0.5669,0.6937,0.8082,0.9305,1.0618,1.1044,1.0638,0.9084,0.9786,0.9747,0.8818,0.9916,1.0966,1.225,1.3394,1.4243,1.4382,1.4641,1.4865,1.4931,1.4931,1.5007,1.513,1.513,1.5008,1.4893,1.4475,1.4446,1.4474,1.4047,1.4047,1.4189,1.4181,1.3024,1.1435,0.0,0.0,0.0,0.0,0.0,0.0,0.0,0.0,0.0,0.0,0.0,0.0,0.0,0.0,0.0,0.0941,0.0998,0.1159,0.1515,0.1846,0.2408,0.3258,0.3365,0.0,0.0,0.3137,0.2858,0.2695,0.1966,0.1577,0.0,0.0,0.1175,0.1237,0.1134,0.1137,0.124,0.0,0.1342,0.1549,0.0,0.1973,0.1794,0.0,0.0,0.0,0.2429,0.2838,0.0,0.351,0.0,0.0,0.0,0.0,0.0,0.0,0.0,0.0,0.0,0.0,0.0,0.0,0.0,0.0,0.5055,0.0,0.481,0.5161,0.5165,0.5104,0.5112,0.4896,0.4736,0.4905,0.5154,0.5266,0.4931,0.5154,0.5382,0.5382,0.4958,0.5334,0.6953,0.747,0.8705,1.0723,1.1518,1.1558,1.0832,1.2064,1.3004,1.3564,1.3684,1.3667,1.3382,1.3769,1.4098,1.4107,1.451,1.4742,1.4931,1.481,1.481,1.4931,1.481,1.5022,1.5302,1.4884,1.4578,1.4474,1.4047,1.4332,1.4759,1.3024,1.1435,1.0132,0.0,0.0,0.0,0.0,0.0,0.0,0.0,0.0,0.0,0.0,0.0,0.0,0.0,0.0,0.0973,0.1154,0.1429,0.1697,0.1798,0.2214,0.2635,0.2974,0.2985,0.3078,0.3362,0.3131,0.29,0.2789,0.2402,0.2053,0.1621,0.1699,0.1714,0.0,0.1548,0.1618,0.1699,0.1259,0.0,0.0,0.1481,0.1724,0.0,0.0,0.0,0.0,0.0,0.4146,0.4313,0.0,0.4125,0.382,0.0,0.0,0.0,0.0,0.0,0.0,0.3519,0.0,0.0,0.0,0.0,0.0,0.0,0.0,0.4753,0.4916,0.4775,0.4736,0.5074,0.499,0.4804,0.4912,0.4989,0.5084,0.5258,0.5382,0.5382,0.5382,0.5314,0.5435,0.5828,0.7539,0.8792,0.9196,1.1106,1.1448,0.9938,1.0631,1.0837,1.0151,1.2466,1.3102,1.1938,1.3455,1.4288,1.4276,1.4576,1.4874,1.481,1.3883,1.4007,1.481,1.3892,1.4262,1.5512,1.5092,1.4875,1.491,1.4759,1.4617,1.4617,1.46,1.2723,0.9994,0.0,0.0,0.0,0.0,0.0,0.0,0.0,0.0,0.0,0.0,0.0,0.0,0.0,0.0,0.0,0.1948,0.2194,0.2324,0.2297,0.2569,0.2747,0.2919,0.2892,0.2997,0.329,0.3155,0.3036,0.2884,0.2634,0.232,0.1973,0.1997,0.2014,0.1929,0.0,0.0,0.0,0.0,0.0,0.0,0.1831,0.0,0.0,0.3226,0.3723,0.0,0.0,0.0,0.4658,0.4847,0.4573,0.0,0.0,0.0,0.0,0.0,0.0,0.0,0.0,0.0,0.0,0.0,0.0,0.0,0.4381,0.4553,0.4728,0.5006,0.4865,0.4801,0.5005,0.4994,0.4889,0.4863,0.4947,0.5056,0.5142,0.533,0.5463,0.539,0.5366,0.5402,0.5443,0.7085,0.8022,0.7862,1.0137,1.1327,1.0713,1.0616,1.0354,0.9909,1.1736,1.2225,1.1253,1.3269,1.4232,1.4317,1.4648,1.4855,1.481,1.3536,1.3661,1.4819,1.362,1.4078,1.5564,1.5512,1.4893,1.4039,1.3896,1.3317,1.2588,1.2151,1.0712,0.8848,0.0,0.0,0.0,0.0,0.0,0.0,0.0,0.0,0.0,0.0,0.0,0.0,0.0,0.0,0.0,0.0,0.3151,0.2993,0.2905,0.2756,0.2759,0.2858,0.29,0.301,0.325,0.3171,0.311,0.301,0.2666,0.2458,0.2407,0.228,0.222,0.2287,0.0,0.0,0.0,0.0,0.0,0.1861,0.2629,0.2867,0.0,0.0,0.4116,0.3984,0.433,0.4548,0.4702,0.4958,0.481,0.0,0.0,0.0,0.0,0.0,0.3607,0.0,0.0,0.0,0.0,0.0,0.0,0.0,0.4577,0.4626,0.4675,0.5149,0.5198,0.505,0.4843,0.49,0.4982,0.4832,0.4994,0.5056,0.492,0.5291,0.5569,0.5414,0.5377,0.5345,0.5537,0.6481,0.7143,0.693,0.9104,1.0908,1.2241,1.1121,1.0688,1.1214,1.1125,1.1133,1.1253,1.2935,1.4004,1.4317,1.4553,1.4761,1.481,1.3428,1.3544,1.4828,1.362,1.4053,1.5574,1.5782,1.4701,1.2731,1.2445,1.1435,0.9706,0.7986,0.7412,0.7263,0.0,0.0,0.0,0.0,0.0,0.0,0.0,0.0,0.0,0.0,0.0,0.0,0.0,0.0,0.0,0.0,0.3745,0.3465,0.3367,0.2909,0.2592,0.2579,0.2429,0.2505,0.2814,0.2771,0.2833,0.2988,0.2819,0.2647,0.2407,0.2664,0.2748,0.2619,0.2619,0.0,0.0,0.0,0.0,0.2646,0.2408,0.0,0.3417,0.395,0.453,0.4955,0.499,0.5098,0.5054,0.4957,0.483,0.4704,0.0,0.0,0.0,0.4026,0.0,0.0,0.0,0.0,0.0,0.0,0.0,0.0,0.4006,0.4169,0.4365,0.4402,0.4317,0.4327,0.459,0.4548,0.4468,0.4614,0.4798,0.4833,0.492,0.524,0.5406,0.515,0.5362,0.5538,0.5622,0.6696,0.7296,0.7275,0.899,1.0114,1.0278,1.0084,1.0171,1.068,1.0088,1.0158,1.1253,1.2184,1.3251,1.4317,1.4695,1.4893,1.481,1.2465,1.2712,1.4828,1.2658,1.3205,1.5574,1.5782,1.4701,1.2731,1.3309,1.2008,0.9994,1.0144,0.8992,0.7408,0.0,0.0,0.0,0.0,0.0,0.0,0.0,0.0,0.0,0.0,0.0,0.0,0.0,0.0,0.0,0.0,0.0,0.0,0.0,0.0,0.2743,0.2588,0.2467,0.253,0.2714,0.2834,0.2921,0.3022,0.3026,0.29,0.2774,0.3007,0.3143,0.3134,0.3055,0.3155,0.0,0.0,0.2682,0.2953,0.2898,0.0,0.3946,0.4486,0.4978,0.5312,0.5312,0.5312,0.5292,0.5153,0.4986,0.0,0.4675,0.4606,0.452,0.0,0.4263,0.432,0.0,0.0,0.0,0.4046,0.0,0.0,0.0,0.4169,0.4287,0.4467,0.441,0.4356,0.4485,0.4473,0.4446,0.4446,0.4598,0.4578,0.4471,0.4819,0.5099,0.5062,0.528,0.5708,0.6537,0.6703,0.6827,0.7364,0.7769,0.8457,0.9345,0.9111,0.8822,0.8714,0.9144,0.931,0.9316,1.134,1.2775,1.3421,1.4336,1.4931,1.4819,1.2225,1.2104,1.3776,1.2037,1.2587,1.4595,1.4692,1.3568,1.1872,1.2302,1.0431,0.7553,0.7986,0.7412,0.6402,0.3766,0.0,0.0,0.0,0.0,0.0,0.0,0.0,0.0,0.0,0.0,0.0,0.0,0.0,0.0,0.0,0.0,0.0,0.0,0.0,0.2915,0.2602,0.2588,0.2627,0.2722,0.2963,0.3049,0.3091,0.3099,0.3095,0.3091,0.3164,0.3336,0.3569,0.3462,0.3459,0.0,0.0,0.0,0.327,0.0,0.3803,0.4252,0.4841,0.5222,0.5308,0.5361,0.5382,0.5377,0.5341,0.5132,0.4892,0.4912,0.4806,0.0,0.0,0.0,0.0,0.0,0.0,0.0,0.0,0.0,0.4099,0.0,0.0,0.0,0.4561,0.4516,0.437,0.0,0.434,0.4366,0.4137,0.4328,0.4332,0.3939,0.429,0.4662,0.4874,0.517,0.5769,0.7179,0.6506,0.6288,0.7,0.6665,0.6995,0.8385,0.8124,0.7573,0.6724,0.806,0.8326,0.7281,1.0107,1.1775,1.2328,1.3699,1.453,1.4819,1.2225,1.1747,1.2839,1.1545,1.1952,1.3604,1.3364,1.2321,1.1155,1.0725,0.842,0.5392,0.5396,0.5396,0.5247,0.3981,0.3909,0.0,0.0,0.0,0.0,0.0,0.0,0.0,0.0,0.0,0.0,0.0,0.0,0.0,0.0,0.0,0.0,0.4522,0.0,0.0,0.2586,0.2335,0.2366,0.2761,0.2581,0.2718,0.3091,0.2906,0.2906,0.3091,0.3099,0.3209,0.3401,0.3536,0.0,0.0,0.0,0.379,0.0,0.4215,0.4062,0.0,0.4622,0.4937,0.5051,0.5296,0.5382,0.5357,0.0,0.5112,0.5039,0.0,0.4879,0.4981,0.4643,0.0,0.0,0.0,0.0,0.0,0.0,0.4398,0.0,0.0,0.0,0.4022,0.3908,0.0,0.3863,0.0,0.0,0.0,0.3637,0.3868,0.3882,0.3558,0.3715,0.4082,0.4383,0.4947,0.5387,0.5785,0.6203,0.6249,0.5628,0.6551,0.6894,0.6469,0.699,0.699,0.6266,0.6626,0.6953,0.7017,0.7891,0.9544,1.1993,1.2441,1.3464,1.4819,1.2225,1.1747,1.2704,1.053,1.1057,1.348,1.2357,1.1715,1.1442,1.0006,0.7991,0.5829,0.6119,0.5974,0.5683,0.3981,0.3837,0.0,0.0,0.0,0.0,0.0,0.0,0.0,0.0,0.0,0.0,0.0,0.0,0.0,0.0,0.0,0.564,0.0,0.0,0.0,0.0,0.2792,0.2785,0.2938,0.2957,0.3059,0.3169,0.3103,0.3103,0.3173,0.3226,0.3373,0.3601,0.3785,0.0,0.4104,0.0,0.4198,0.0,0.0,0.0,0.0,0.49,0.5177,0.5226,0.5341,0.5382,0.5369,0.5292,0.5124,0.0,0.0,0.0,0.0,0.4818,0.0,0.0,0.0,0.0,0.0,0.0,0.0,0.0,0.4596,0.0,0.4447,0.448,0.0,0.0,0.0,0.0,0.0,0.0,0.3748,0.3795,0.3596,0.3667,0.3925,0.4314,0.4479,0.4768,0.5319,0.6517,0.6842,0.5702,0.5773,0.5731,0.541,0.6266,0.6769,0.657,0.6938,0.7133,0.7286,0.7648,0.8269,0.9293,1.034,1.1607,1.3341,1.1454,1.1023,1.174,1.055,1.0401,1.1057,1.0185,0.9935,1.0149,0.8574,0.7276,0.6119,0.6268,0.6268,0.6119,0.3636,0.0,0.0,0.0,0.0,0.0,0.0,0.0,0.0,0.0,0.0,0.0,0.6733,0.6763,0.0,0.0,0.6759,0.637,0.0,0.0,0.4471,0.0,0.0,0.0,0.0,0.3248,0.3259,0.3262,0.3171,0.3171,0.3267,0.3332,0.3491,0.3736,0.3969,0.4193,0.4406,0.0,0.454,0.4442,0.4614,0.461,0.4561,0.5075,0.5316,0.5382,0.5382,0.5382,0.5373,0.5324,0.5128,0.4953,0.5302,0.5168,0.4947,0.0,0.0,0.0,0.5517,0.0,0.0,0.0,0.0,0.0,0.0,0.0,0.0,0.5043,0.524,0.0,0.0,0.0,0.4772,0.4227,0.0,0.403,0.3812,0.3769,0.391,0.4186,0.4281,0.4468,0.5142,0.6379,0.6709,0.5781,0.5272,0.4947,0.4814,0.569,0.6337,0.639,0.6761,0.695,0.6832,0.6933,0.7029,0.7257,0.8387,0.9883,1.1483,1.0341,0.9942,1.0178,0.9695,0.9411,0.9285,0.8341,0.8494,0.9147,0.7566,0.6845,0.6555,0.6555,0.6555,0.6555,0.2753,0.2348,0.0,0.0,0.0,0.0,0.0,0.0,0.0,0.0,0.0,0.0,0.0,0.0,0.0,0.0,0.0,0.679,0.6605,0.0,0.485,0.0,0.0,0.3427,0.0,0.0,0.3011,0.336,0.3131,0.3135,0.336,0.3434,0.3458,0.3646,0.401,0.4218,0.432,0.4589,0.4847,0.5071,0.499,0.5112,0.5316,0.5075,0.5149,0.5382,0.5382,0.5382,0.5353,0.5177,0.5108,0.5088,0.5326,0.5457,0.5629,0.5845,0.0,0.0,0.6152,0.6276,0.6303,0.5812,0.5817,0.5746,0.5148,0.5361,0.5548,0.5241,0.5548,0.5813,0.5499,0.5543,0.5453,0.4976,0.488,0.0,0.0,0.3939,0.3938,0.3935,0.4434,0.4908,0.5104,0.548,0.5634,0.5477,0.5443,0.5206,0.48,0.5578,0.5729,0.493,0.579,0.587,0.5148,0.4968,0.5565,0.6969,0.7102,0.803,0.9624,0.8807,0.8367,0.8382,0.7473,0.7991,0.9147,0.7706,0.7996,0.9147,0.7566,0.699,0.699,0.699,0.699,0.699,0.0,0.0,0.0,0.0,0.0,0.0,0.0,0.5538,0.0,0.0,0.0,0.0,0.0,0.755,0.7624,0.0,0.0,0.7272,0.6808,0.6256,0.0,0.0,0.0,0.412,0.0,0.0,0.0,0.3454,0.3351,0.3351,0.3454,0.3511,0.3569,0.3646,0.4067,0.434,0.0,0.0,0.0,0.0,0.0,0.51,0.5288,0.5255,0.53,0.5382,0.5382,0.5382,0.5373,0.5308,0.5314,0.5439,0.5642,0.5882,0.6083,0.6338,0.6465,0.6738,0.7072,0.731,0.7393,0.7095,0.6995,0.6796,0.594,0.609,0.6238,0.5891,0.6398,0.6726,0.602,0.5978,0.5923,0.5416,0.5224,0.5099,0.0,0.4522,0.4258,0.4272,0.4497,0.4586,0.4548,0.5887,0.6781,0.6689,0.6654,0.666,0.6377,0.541,0.5335,0.6056,0.5444,0.5426,0.6042,0.5229,0.491,0.5242,0.5242,0.6172,0.7902,0.7781,0.7986,0.827,0.8082,0.7893,0.7616,0.6966,0.7135,0.7711,0.7131,0.699,0.699,0.699,0.699,0.699,0.2907,0.0,0.0,0.0,0.0,0.0,0.0,0.0,0.0,0.0,0.7148,0.0,0.7677,0.0,0.7834,0.0,0.795,0.7634,0.7114,0.6876,0.0,0.6098,0.5468,0.0,0.0,0.0,0.0,0.0,0.3503,0.3475,0.3544,0.3601,0.3642,0.3691,0.4079,0.4369,0.4594,0.492,0.5063,0.0,0.0,0.5157,0.53,0.5361,0.5361,0.5337,0.5369,0.5382,0.5382,0.5382,0.541,0.5547,0.5895,0.6127,0.6414,0.6779,0.71,0.7243,0.773,0.8056,0.8145,0.7845,0.7731,0.7502,0.6728,0.6814,0.6992,0.6754,0.7094,0.7336,0.6982,0.6707,0.6467,0.6257,0.5805,0.5462,0.0,0.4723,0.4484,0.4484,0.4424,0.451,0.4788,0.5635,0.6349,0.6883,0.6599,0.6393,0.6392,0.5167,0.4986,0.6009,0.5112,0.4976,0.5913,0.5122,0.4536,0.4308,0.4308,0.4977,0.6046,0.6533,0.6864,0.7314,0.7481,0.7438,0.6905,0.6677,0.67,0.699,0.699,0.699,0.699,0.699,0.699,0.699,0.0,0.0,0.0,0.0,0.3661,0.0,0.0,0.0,0.6739,0.0,0.7257,0.7583,0.7544,0.7878,0.8058,0.8058,0.8058,0.7905,0.757,0.7419,0.0,0.0,0.6409,0.5957,0.5531,0.0,0.0,0.0,0.0,0.3415,0.3563,0.3634,0.3679,0.3773,0.4038,0.0,0.4589,0.4855,0.5075,0.5251,0.5251,0.53,0.5373,0.5377,0.5324,0.5255,0.5349,0.5382,0.5382,0.5382,0.5382,0.5493,0.6163,0.6386,0.6497,0.7382,0.7604,0.7802,0.8221,0.8297,0.8301,0.8073,0.8058,0.7896,0.7305,0.7516,0.7794,0.7638,0.7631,0.7807,0.833,0.7726,0.719,0.7319,0.6628,0.5852,0.519,0.4696,0.4467,0.4477,0.4258,0.4565,0.0,0.4723,0.4729,0.6317,0.5422,0.4905,0.5161,0.4847,0.4807,0.4814,0.4787,0.4643,0.4643,0.4775,0.4574,0.4308,0.4308,0.4308,0.4311,0.4777,0.5253,0.5597,0.6107,0.6618,0.6982,0.6986,0.699,0.699,0.699,0.699,0.699,0.699,0.699,0.699,0.3867,0.4101,0.4213,0.0,0.4503,0.516,0.0,0.0,0.0,0.0,0.7711,0.8024,0.818,0.8343,0.837,0.837,0.837,0.0,0.0,0.0,0.0,0.7692,0.7003,0.6678,0.6842,0.5968,0.0,0.4541,0.0,0.3985,0.3508,0.3682,0.374,0.3773,0.3977,0.4255,0.4585,0.4785,0.5055,0.5345,0.5345,0.532,0.5288,0.5357,0.5324,0.5255,0.5349,0.5382,0.5382,0.5382,0.5493,0.5824,0.6381,0.6937,0.7382,0.8048,0.838,0.8595,0.8673,0.8769,0.8689,0.8452,0.8289,0.8113,0.7726,0.7902,0.8079,0.7814,0.8024,0.8133,0.7733,0.7468,0.7217,0.6919,0.6599,0.0,0.0,0.0,0.0,0.5089,0.5577,0.5548,0.4462,0.5532,0.6361,0.6741,0.6717,0.6748,0.698,0.5406,0.4735,0.509,0.4886,0.4643,0.4643,0.4775,0.4574,0.4308,0.4308,0.4308,0.4311,0.4777,0.5227,0.5529,0.6085,0.6583,0.6892,0.6962,0.699,0.699,0.699,0.699,0.699,0.699,0.699,0.699,0.3971,0.0,0.0,0.525,0.0,0.0,0.6367,0.6858,0.0,0.7753,0.8004,0.0,0.8275,0.8465,0.8554,0.8486,0.8381,0.0,0.7975,0.0,0.0,0.7969,0.7699,0.7541,0.7514,0.6766,0.0,0.542,0.0,0.4426,0.3976,0.3884,0.3765,0.3773,0.3952,0.4214,0.4532,0.4826,0.5096,0.532,0.532,0.5316,0.0,0.5361,0.5349,0.5312,0.5361,0.5382,0.5382,0.5382,0.5712,0.6042,0.6604,0.716,0.7715,0.8374,0.8595,0.8699,0.8749,0.8838,0.8777,0.854,0.8472,0.8384,0.8079,0.8194,0.833,0.8228,0.8248,0.8282,0.8255,0.7712,0.7102,0.6593,0.6437,0.0,0.0,0.0,0.0,0.0,0.5482,0.5146,0.425,0.5721,0.6594,0.6372,0.6339,0.6343,0.6374,0.5306,0.4836,0.5122,0.5108,0.5029,0.4901,0.504,0.4842,0.4574,0.4308,0.4308,0.4308,0.4612,0.5068,0.5546,0.5908,0.6413,0.6917,0.697,0.699,0.699,0.699,0.699,0.699,0.699,0.699,0.699,0.429,0.0,0.0,0.0,0.0,0.0,0.0,0.7197,0.0,0.7862,0.0,0.8309,0.8174,0.8506,0.8689,0.8554,0.0,0.8065,0.8046,0.8052,0.8065,0.8046,0.8347,0.8309,0.7899,0.7419,0.6853,0.0,0.0,0.4679,0.438,0.3963,0.3765,0.3773,0.3952,0.0,0.0,0.4932,0.5169,0.5263,0.5263,0.5308,0.5382,0.5382,0.5382,0.5382,0.5382,0.5382,0.5382,0.5493,0.5824,0.6376,0.671,0.7271,0.7715,0.8355,0.8569,0.8536,0.8615,0.8682,0.8648,0.8513,0.8581,0.8615,0.8357,0.8411,0.8554,0.8682,0.8418,0.8377,0.9103,0.8119,0.7014,0.6444,0.6396,0.6444,0.0,0.0,0.0,0.0,0.0,0.0,0.4442,0.5396,0.5858,0.5467,0.5156,0.49,0.4888,0.4985,0.5096,0.5088,0.5459,0.5529,0.5283,0.5426,0.5235,0.4839,0.4574,0.4442,0.4442,0.4442,0.4916,0.574,0.574,0.6111,0.699,0.699,0.699,0.699,0.699,0.699,0.699,0.699,0.699,0.699,0.5146,0.0,0.0,0.0,0.0,0.755,0.7784,0.8031,0.8174,0.8343,0.8628,0.8811,0.8784,0.8852,0.8886,0.8859,0.8749,0.0,0.0,0.0,0.0,0.8709,0.8723,0.8622,0.8633,0.7836,0.6995,0.0,0.5339,0.442,0.3413,0.3726,0.3682,0.3534,0.387,0.0,0.4781,0.501,0.5206,0.5357,0.5357,0.5365,0.5382,0.5382,0.5382,0.5382,0.5382,0.5382,0.5493,0.5931,0.6265,0.6487,0.7487,0.7826,0.8023,0.8567,0.8642,0.8608,0.856,0.852,0.8513,0.8486,0.8499,0.8506,0.8459,0.856,0.8676,0.8703,0.875,0.8716,0.8506,0.795,0.7366,0.6892,0.7122,0.7407,0.0,0.0,0.0,0.0,0.0,0.7085,0.4527,0.4444,0.4514,0.4529,0.4551,0.4716,0.5149,0.4805,0.4962,0.5602,0.5582,0.5601,0.554,0.5639,0.5587,0.5245,0.5245,0.5248,0.5248,0.5248,0.5597,0.6163,0.6163,0.6398,0.699,0.699,0.699,0.699,0.699,0.699,0.699,0.699,0.699,0.699,0.0,0.0,0.0,0.0,0.0,0.0,0.8235,0.8465,0.8587,0.8492,0.8608,0.8703,0.8703,0.8729,0.8712,0.8712,0.8491,0.8491,0.8712,0.8712,0.8712,0.894,0.8866,0.8866,0.894,0.8399,0.7865,0.7039,0.6145,0.5161,0.4212,0.3905,0.3682,0.3538,0.4014,0.4438,0.4785,0.5063,0.523,0.5316,0.5361,0.5382,0.5382,0.5382,0.5382,0.5382,0.5382,0.5605,0.5935,0.6154,0.6487,0.6932,0.7709,0.8219,0.8368,0.8622,0.8655,0.856,0.8411,0.837,0.835,0.8275,0.8309,0.837,0.837,0.8547,0.871,0.871,0.8832,0.8804,0.835,0.7902,0.7529,0.7312,0.7326,0.7468,0.7767,0.0,0.8165,0.0,0.0,0.0,0.0,0.4724,0.4226,0.4142,0.4266,0.463,0.5079,0.4962,0.5033,0.5696,0.581,0.5839,0.5925,0.5885,0.5705,0.5647,0.5513,0.5379,0.5379,0.5379,0.5733,0.6163,0.6163,0.654,0.699,0.699,0.699,0.699,0.699,0.699,0.699,0.699,0.699,0.699,0.0,0.7139,0.0,0.0,0.8194,0.835,0.8465,0.8743,0.8852,0.8608,0.8581,0.8581,0.8581,0.8573,0.8595,0.8595,0.838,0.8269,0.8595,0.8595,0.8712,0.894,0.894,0.894,0.894,0.8823,0.8441,0.0,0.6719,0.578,0.4979,0.4219,0.377,0.3676,0.4186,0.4569,0.481,0.5096,0.5239,0.5279,0.5353,0.5382,0.5382,0.5382,0.5382,0.5382,0.5493,0.5935,0.6376,0.6599,0.6932,0.7482,0.8011,0.8368,0.8696,0.8635,0.8533,0.8404,0.8262,0.8221,0.8194,0.8072,0.8133,0.8228,0.8262,0.8472,0.8669,0.8703,0.8832,0.8804,0.835,0.8058,0.7855,0.776,0.7617,0.7658,0.8336,0.8792,0.0,0.0,0.0,0.0,0.6944,0.5775,0.4835,0.4279,0.4361,0.4565,0.4924,0.4942,0.5162,0.5518,0.5734,0.5894,0.5994,0.5976,0.595,0.6046,0.5781,0.5647,0.5647,0.5647,0.5873,0.6302,0.6302,0.654,0.699,0.699,0.699,0.699,0.699,0.699,0.699,0.699,0.699,0.699,0.0,0.0,0.0,0.0,0.8275,0.8465,0.8479,0.8743,0.8927,0.8899,0.8899,0.8899,0.8899,0.8809,0.883,0.883,0.883,0.883,0.883,0.883,0.883,0.894,0.894,0.894,0.894,0.838,0.7948,0.7616,0.6355,0.5344,0.4755,0.4223,0.414,0.4282,0.4418,0.4671,0.5071,0.5108,0.5218,0.5369,0.5377,0.5382,0.5382,0.5382,0.5382,0.5493,0.6042,0.6265,0.6487,0.7487,0.7931,0.8023,0.8445,0.8615,0.8655,0.8391,0.8303,0.8255,0.8106,0.8058,0.8058,0.8045,0.8052,0.8099,0.8241,0.8391,0.854,0.8682,0.8832,0.8804,0.835,0.8567,0.8682,0.8275,0.8526,0.9043,1.0105,0.969,0.964,1.0647,0.0,0.0,0.8372,0.755,0.6594,0.534,0.4627,0.4378,0.4533,0.4702,0.4943,0.517,0.5322,0.541,0.5567,0.5982,0.628,0.6451,0.6455,0.6455,0.6455,0.6455,0.6553,0.6585,0.6585,0.6827,0.699,0.699,0.699,0.699,0.699,0.699,0.699,0.699,0.699,0.699,0.8425,0.835,0.8336,0.854,0.8526,0.8547,0.873,0.8859,0.894,0.894,0.894,0.894,0.894,0.8712,0.8712,0.8712,0.8712,0.8712,0.8712,0.8823,0.894,0.894,0.894,0.894,0.894,0.8712,0.8432,0.8183,0.6907,0.5994,0.531,0.4678,0.4521,0.4602,0.4708,0.4888,0.5112,0.5165,0.5263,0.5377,0.532,0.5333,0.5373,0.532,0.552,0.5845,0.6065,0.6567,0.7169,0.7677,0.7919,0.8022,0.8514,0.8587,0.8425,0.8303,0.8208,0.8119,0.8058,0.8106,0.818,0.818,0.8241,0.8323,0.8384,0.8513,0.8635,0.8696,0.8832,0.8886,0.8703,0.8594,0.8779,0.929,0.9411,0.9962,1.1338,1.1621,0.0,1.2229,0.0,1.1063,0.9935,0.8922,0.7845,0.667,0.563,0.4914,0.4529,0.4853,0.5084,0.5326,0.5538,0.5579,0.5571,0.607,0.6193,0.6183,0.6317,0.6455,0.6455,0.6455,0.6553,0.6733,0.6839,0.6925,0.699,0.699,0.699,0.699,0.699,0.699,0.699,0.699,0.699,0.699,0.8757,0.8608,0.8567,0.8886,0.8757,0.8689,0.8906,0.894,0.894,0.894,0.894,0.894,0.894,0.8712,0.8602,0.8602,0.8602,0.8602,0.8602,0.8823,0.894,0.894,0.894,0.894,0.894,0.894,0.8832,0.8615,0.7598,0.6807,0.6205,0.5398,0.5412,0.6116,0.5639,0.557,0.5723,0.566,0.5499,0.5337,0.5271,0.5267,0.5296,0.5339,0.5634,0.6065,0.6388,0.6984,0.7663,0.7962,0.7968,0.8043,0.8474,0.8438,0.8262,0.8214,0.8126,0.8052,0.8092,0.8187,0.8282,0.8323,0.8411,0.8492,0.854,0.8635,0.8723,0.8771,0.8866,0.894,0.894,0.889,0.9202,1.0186,1.0361,1.098,1.2552,1.3063,1.3184,1.3102,1.2675,1.2135,1.1302,0.9792,0.8628,0.8118,0.7131,0.6152,0.5309,0.55,0.5695,0.5656,0.5943,0.589,0.547,0.5858,0.6097,0.5912,0.6183,0.6451,0.6455,0.6509,0.6607,0.6737,0.6913,0.699,0.699,0.699,0.699,0.699,0.699,0.699,0.699,0.699,0.699,0.699,0.8933,0.8933,0.8933,0.894,0.8933,0.8933,0.894,0.894,0.894,0.894,0.894,0.894,0.894,0.894,0.894,0.894,0.894,0.894,0.894,0.894,0.894,0.894,0.894,0.894,0.894,0.894,0.894,0.8933,0.8194,0.7669,0.7533,0.6168,0.693,0.9369,0.7473,0.6806,0.7027,0.6909,0.6216,0.5247,0.5243,0.519,0.5112,0.5638,0.585,0.6061,0.7229,0.7545,0.7651,0.8276,0.8391,0.8275,0.8275,0.8275,0.8241,0.8085,0.8038,0.8072,0.8228,0.8269,0.8303,0.8445,0.8479,0.852,0.8676,0.871,0.875,0.8906,0.894,0.894,0.894,0.9588,1.0241,1.0672,1.1428,1.2484,1.392,1.3396,1.2898,1.3128,1.1681,1.1014,1.2082,1.0241,0.9133,0.9771,0.9089,0.8218,0.7049,0.6811,0.6581,0.6219,0.6327,0.5948,0.506,0.5547,0.5837,0.5912,0.5912,0.6183,0.646,0.6639,0.6725,0.6737,0.6913,0.699,0.699,0.699,0.699,0.699,0.699,0.699,0.699,0.699,0.699,0.699,0.894,0.894,0.894,0.894,0.894,0.894,0.894,0.894,0.894,0.894,0.894,0.894,0.894,0.894,0.894,0.894,0.894,0.894,0.894,0.894,0.894,0.894,0.894,0.894,0.894,0.894,0.894,0.894,0.8314,0.7725,0.7368,0.7576,0.8112,0.9075,0.8707,0.8608,0.873,0.8072,0.7608,0.7258,0.7282,0.7066,0.6779,0.6906,0.6878,0.6987,0.7407,0.7654,0.7896,0.8303,0.8241,0.8113,0.8113,0.8113,0.8106,0.8052,0.8038,0.8072,0.8228,0.8343,0.8452,0.8601,0.8716,0.8804,0.8852,0.8866,0.8879,0.8927,0.9588,1.0021,0.9816,1.0789,1.1773,1.211,1.2869,1.3758,1.4834,1.5099,1.5322,1.5793,1.5188,1.4686,1.451,1.3581,1.245,1.0867,1.0239,0.9043,0.6801,0.714,0.7359,0.7049,0.6977,0.6571,0.5716,0.6043,0.5889,0.5108,0.5915,0.6317,0.646,0.6643,0.6725,0.6737,0.6913,0.699,0.699,0.699,0.699,0.699,0.699,0.699,0.699,0.699,0.699,0.699,0.8823,0.8712,0.8712,0.8602,0.8602,0.8602,0.8602,0.8712,0.8712,0.8712,0.8823,0.894,0.894,0.894,0.894,0.894,0.894,0.894,0.894,0.894,0.894,0.894,0.894,0.894,0.894,0.894,0.894,0.894,0.9068,0.9069,0.9169,0.9473,1.0222,1.1193,1.0609,1.0314,1.0355,0.9697,0.921,0.877,0.878,0.8398,0.7748,0.7968,0.7738,0.7443,0.7757,0.7864,0.8065,0.8221,0.8208,0.8133,0.8187,0.8208,0.8194,0.814,0.816,0.8241,0.8391,0.8499,0.8608,0.8757,0.8866,0.894,0.894,0.894,0.894,0.894,0.9809,1.0484,1.0556,1.1881,1.3108,1.3648,1.4335,1.5244,1.5904,1.6393,1.6488,1.6339,1.6074,1.5873,1.538,1.4561,1.3758,1.285,1.1603,1.0143,0.8626,0.8256,0.809,0.8008,0.7743,0.7079,0.605,0.6097,0.5647,0.4839,0.5781,0.6317,0.646,0.6643,0.6725,0.6737,0.6913,0.699,0.699,0.699,0.699,0.699,0.699,0.699,0.699,0.699,0.699,0.699,0.8595,0.8484,0.8374,0.8042,0.8042,0.8042,0.8048,0.8263,0.8484,0.8484,0.8712,0.883,0.894,0.894,0.894,0.894,0.894,0.894,0.894,0.894,0.894,0.894,0.894,0.894,0.894,0.894,0.894,0.9051,1.0241,1.1328,1.2417,1.1964,1.2832,1.4804,1.282,1.2002,1.2164,1.1642,1.086,0.9953,0.9953,0.9353,0.8554,0.8954,0.8554,0.775,0.8166,0.818,0.8079,0.8235,0.8282,0.8309,0.8438,0.8486,0.8472,0.833,0.8377,0.8513,0.8669,0.871,0.875,0.8899,0.894,0.894,0.894,0.894,0.894,0.9064,0.9721,1.054,1.1276,1.2758,1.4155,1.4939,1.5795,1.6464,1.7056,1.7105,1.6582,1.5199,1.5033,1.5033,1.5033,1.3689,1.3581,1.5333,1.3003,1.1455,1.1575,0.9938,0.8882,0.8836,0.8357,0.7463,0.6178,0.5701,0.5245,0.4839,0.551,0.6049,0.646,0.6643,0.6725,0.6737,0.6913,0.699,0.699,0.699,0.699,0.699,0.699,0.699,0.699,0.699,0.699,0.699,0.8823,0.8823,0.8712,0.8484,0.8374,0.8263,0.8042,0.8048,0.8263,0.8484,0.8595,0.8712,0.883,0.894,0.894,0.894,0.894,0.894,0.894,0.894,0.894,0.894,0.894,0.894,0.894,0.894,0.9375,1.0241,1.1437,1.2091,1.2417,1.3176,1.3835,1.4363,1.3871,1.3784,1.398,1.3095,1.2687,1.2639,1.2639,1.223,1.1597,1.0738,0.9977,0.9267,0.8568,0.8248,0.8241,0.8384,0.8431,0.8438,0.8472,0.856,0.8628,0.8479,0.8459,0.8513,0.8669,0.871,0.875,0.8899,0.894,0.894,0.894,0.894,0.9189,1.0308,1.1441,1.2488,1.3492,1.4896,1.5939,1.5648,1.6284,1.6906,1.6851,1.7146,1.7229,1.6982,1.6842,1.6842,1.6842,1.6495,1.5862,1.4783,1.3399,1.2047,1.0914,0.9745,0.898,0.8836,0.8357,0.7591,0.643,0.5961,0.5778,0.5644,0.5778,0.6049,0.646,0.6643,0.6725,0.6737,0.6913,0.699,0.699,0.699,0.699,0.699,0.699,0.699,0.699,0.699,0.699,0.699,0.8712,0.8712,0.8602,0.8159,0.8048,0.7931,0.7709,0.7715,0.7937,0.8263,0.8374,0.8595,0.883,0.894,0.894,0.894,0.894,0.894,0.894,0.894,0.894,0.894,0.9478,0.9699,0.9699,1.0241,1.0789,1.1437,1.2635,1.3186,1.3295,1.4374,1.503,1.5007,1.4943,1.5012,1.5223,1.4516,1.439,1.4619,1.4619,1.4096,1.3331,1.2481,1.1362,1.0111,0.9419,0.8777,0.8391,0.8533,0.8587,0.8601,0.8669,0.875,0.8798,0.8716,0.8689,0.871,0.8791,0.8811,0.8832,0.892,0.894,0.8954,0.9022,0.9482,1.0189,1.1029,1.242,1.3831,1.4738,1.583,1.6684,1.6562,1.6744,1.6996,1.6994,1.7074,1.7213,1.7455,1.7361,1.7373,1.7479,1.7244,1.6471,1.502,1.3844,1.2463,1.1197,1.004,0.9242,0.8928,0.8385,0.7611,0.6752,0.5981,0.5647,0.5647,0.5778,0.6049,0.646,0.6643,0.6725,0.6737,0.6913,0.699,0.699,0.699,0.699,0.699,0.699,0.699,0.699,0.699,0.699,0.699,0.8595,0.8595,0.8374,0.7715,0.7604,0.7604,0.7265,0.7382,0.7604,0.7937,0.8263,0.8595,0.883,0.894,0.894,0.894,0.894,0.894,0.894,0.9044,0.9154,0.9154,1.0351,1.1,1.1,1.2091,1.2635,1.2635,1.3835,1.4493,1.4493,1.5493,1.5946,1.5934,1.5716,1.5765,1.5994,1.5728,1.5765,1.6018,1.6018,1.5444,1.4526,1.4049,1.2558,1.0715,1.0338,0.9452,0.854,0.8696,0.8743,0.8771,0.8899,0.894,0.894,0.894,0.894,0.894,0.894,0.894,0.894,0.894,0.9044,0.9196,0.9455,1.0498,1.1456,1.1774,1.3308,1.4863,1.5561,1.6322,1.6946,1.7286,1.7032,1.6936,1.7249,1.702,1.6984,1.743,1.7256,1.7138,1.7479,1.6773,1.6172,1.5569,1.3904,1.2586,1.1631,1.0422,0.9529,0.9068,0.8557,0.7781,0.6859,0.6011,0.5513,0.5379,0.5781,0.6183,0.646,0.6643,0.6725,0.6737,0.6913,0.699,0.699,0.699,0.699,0.699,0.699,0.699,0.699,0.699,0.699,0.699,0.883,0.8823,0.8602,0.8048,0.7937,0.782,0.7265,0.7265,0.7487,0.7937,0.8042,0.8269,0.883,0.894,0.894,0.894,0.894,0.894,0.894,0.9801,1.046,1.046,1.1546,1.2091,1.2091,1.3295,1.3943,1.3943,1.503,1.5672,1.5684,1.6006,1.6223,1.6223,1.6199,1.6332,1.6561,1.6272,1.632,1.6573,1.6573,1.633,1.5884,1.4622,1.322,1.1778,1.0805,0.9632,0.8696,0.8852,0.8906,0.8906,0.8933,0.894,0.894,0.894,0.894,0.894,0.894,0.894,0.894,0.894,0.9699,1.05,1.0803,1.1724,1.2945,1.4364,1.4919,1.5572,1.6891,1.7301,1.7213,1.6573,1.6972,1.7153,1.6549,1.6984,1.7394,1.7479,1.7479,1.7479,1.7479,1.6408,1.5569,1.5213,1.3186,1.1752,1.139,1.0429,0.9575,0.9209,0.9112,0.8334,0.696,0.6577,0.6049,0.5379,0.6049,0.6317,0.6053,0.6505,0.6725,0.6737,0.6913,0.699,0.699,0.699,0.699,0.699,0.699,0.699,0.699,0.699,0.699,0.699,0.894,0.894,0.8712,0.8374,0.8263,0.8152,0.7709,0.7598,0.782,0.8263,0.8263,0.8374,0.883,0.894,0.894,0.894,0.894,0.9154,0.9809,1.0241,1.046,1.0672,1.22,1.3501,1.4256,1.4804,1.5137,1.5137,1.5815,1.6103,1.6127,1.638,1.6513,1.6513,1.6513,1.667,1.6899,1.6779,1.6875,1.7105,1.6972,1.6754,1.6477,1.5503,1.3976,1.2257,1.1514,1.0262,0.8845,0.8686,0.8712,0.8712,0.8712,0.8712,0.8712,0.883,0.894,0.894,0.894,0.894,0.9044,0.9699,1.0422,1.109,1.1725,1.3088,1.4406,1.5088,1.5876,1.6739,1.7337,1.7479,1.7358,1.6984,1.7008,1.7032,1.6936,1.7008,1.7165,1.7455,1.7373,1.7256,1.7479,1.6172,1.5095,1.4381,1.2706,1.139,1.0543,1.0141,0.9921,0.9755,0.9133,0.8212,0.6982,0.6982,0.6581,0.5647,0.6183,0.648,0.6258,0.6525,0.6754,0.6803,0.6933,0.699,0.699,0.699,0.699,0.699,0.699,0.699,0.699,0.699,0.699,0.699,0.894,0.894,0.8823,0.8595,0.8484,0.8374,0.8042,0.8048,0.8152,0.8484,0.8484,0.8595,0.883,0.894,0.894,0.894,0.9051,0.9588,1.057,1.0688,1.1008,1.1328,1.3176,1.4708,1.5791,1.5946,1.5982,1.5982,1.6247,1.638,1.6404,1.667,1.6791,1.6791,1.6851,1.6996,1.7074,1.7074,1.7181,1.722,1.697,1.6708,1.6422,1.5946,1.4418,1.2507,1.2024,1.0783,0.9154,0.8706,0.8484,0.8595,0.8595,0.8595,0.8602,0.883,0.883,0.8823,0.894,0.883,0.9044,1.0241,1.0921,1.156,1.2652,1.4343,1.5627,1.5526,1.6644,1.7479,1.7479,1.7479,1.7418,1.7237,1.7032,1.696,1.7177,1.702,1.7032,1.743,1.7256,1.7256,1.7479,1.5806,1.45,1.3784,1.2225,1.08,0.9869,0.9985,1.0134,1.0324,0.9395,0.8451,0.765,0.765,0.725,0.618,0.6585,0.6635,0.6453,0.6684,0.6774,0.686,0.6949,0.699,0.699,0.699,0.699,0.699,0.699,0.699,0.699,0.699,0.699,0.699,0.894,0.894,0.8823,0.8595,0.8484,0.8374,0.8042,0.8048,0.8152,0.8484,0.8484,0.8595,0.883,0.894,0.894,0.894,0.9596,1.0139,1.0249,1.1782,1.298,1.3511,1.4708,1.5374,1.5482,1.603,1.6247,1.6247,1.6537,1.667,1.6682,1.6948,1.7068,1.7068,1.7322,1.7325,1.6997,1.6997,1.6879,1.6514,1.6391,1.6126,1.5862,1.5597,1.4571,1.3068,1.1964,1.0882,0.9919,0.8816,0.8712,0.883,0.883,0.883,0.883,0.894,0.8712,0.8595,0.8823,0.8712,0.8816,0.9919,1.1032,1.2217,1.3562,1.5281,1.6576,1.6844,1.7256,1.7479,1.7479,1.7479,1.7249,1.6513,1.6972,1.7177,1.6465,1.6984,1.7443,1.7479,1.7479,1.7479,1.7479,1.5213,1.3784,1.3665,1.1382,1.0005,1.0025,1.0046,1.0181,1.0466,0.9971,0.9649,0.9516,0.8851,0.7917,0.6987,0.725,0.7035,0.618,0.6545,0.6774,0.686,0.6949,0.699,0.699,0.699,0.699,0.699,0.699,0.699,0.699,0.699,0.699,0.699,0.894,0.894,0.883,0.8712,0.8712,0.8712,0.8602,0.8602,0.8602,0.8712,0.8712,0.8823,0.894,0.9375,0.9706,0.9706,1.0578,1.1345,1.21,1.2654,1.3305,1.4169,1.519,1.5717,1.5717,1.6294,1.6537,1.6537,1.6815,1.6948,1.6948,1.7213,1.7334,1.7334,1.7443,1.7479,1.7256,1.7256,1.7138,1.675,1.6448,1.6101,1.5738,1.5327,1.4461,1.3403,1.22,1.1655,1.1328,1.0014,0.9581,0.9801,1.057,0.9691,0.838,0.838,0.8326,0.8507,0.9405,0.9069,0.8838,1.1065,1.2072,1.3011,1.5178,1.6437,1.7125,1.6762,1.7126,1.7491,1.7256,1.7373,1.7382,1.708,1.7286,1.737,1.7068,1.7286,1.7479,1.7479,1.7479,1.7479,1.7479,1.5935,1.45,1.3784,1.1985,1.0738,1.0039,1.0222,1.0419,1.0629,1.0419,1.018,0.9649,0.9383,0.8851,0.8056,0.765,0.7337,0.7083,0.6848,0.6803,0.6937,0.6974,0.699,0.699,0.699,0.699,0.699,0.699,0.699,0.699,0.699,0.699,0.699,0.883,0.894,0.894,0.894,0.894,0.894,0.894,0.894,0.894,0.894,0.894,0.894,0.894,0.9809,1.0359,1.0249,1.1455,1.2564,1.3386,1.3686,1.4035,1.4722,1.5436,1.5904,1.5975,1.657,1.6827,1.6827,1.708,1.7213,1.7213,1.7394,1.7479,1.7479,1.7479,1.7479,1.7373,1.7373,1.7138,1.6632,1.6229,1.5783,1.5502,1.4909,1.4385,1.3835,1.2635,1.2526,1.2635,1.1101,1.0672,1.0891,1.1655,1.0382,0.866,0.8883,0.8539,0.8425,0.9453,0.9218,0.9319,1.2069,1.3041,1.379,1.5817,1.6878,1.7126,1.6655,1.7009,1.7361,1.702,1.7256,1.7479,1.7479,1.7479,1.7479,1.7479,1.7479,1.7479,1.7479,1.7479,1.7479,1.7479,1.6408,1.5213,1.4381,1.2768,1.1325,1.0175,1.0426,1.0609,1.0717,1.0717,1.0452,1.0047,1.0047,0.9649,0.8984,0.8488,0.8199,0.8109,0.7729,0.7416,0.7276,0.7276,0.7276,0.699,0.699,0.699,0.699,0.699,0.699,0.699,0.699,0.699,0.6994,0.8823,0.894,0.894,0.894,0.894,0.894,0.894,0.894,0.894,0.894,0.894,0.894,0.894,1.0029,1.057,1.0257,1.2318,1.3712,1.3719,1.5065,1.5557,1.5088,1.5638,1.5987,1.6357,1.6846,1.7092,1.7092,1.7358,1.7479,1.7479,1.7479,1.7479,1.7479,1.7479,1.7373,1.702,1.702,1.6667,1.6042,1.5543,1.523,1.4837,1.4374,1.4407,1.4493,1.3295,1.3295,1.3511,1.1973,1.1764,1.1982,1.1673,1.0921,1.016,1.0723,0.9481,0.8102,0.88,0.9374,1.0356,1.3019,1.3858,1.4341,1.549,1.6414,1.6903,1.6537,1.7009,1.7361,1.702,1.7256,1.7479,1.7479,1.7479,1.7479,1.7479,1.7479,1.7479,1.7479,1.7479,1.7479,1.7479,1.6408,1.5569,1.5569,1.3368,1.1549,1.0603,1.0636,1.0717,1.0717,1.0717,1.0717,1.0717,1.0717,1.0319,0.9649,0.9783,0.9508,0.8943,0.9068,0.876,0.814,0.814,0.7711,0.699,0.699,0.699,0.699,0.699,0.699,0.699,0.699,0.699,0.7003,0.8823,0.894,0.894,0.894,0.894,0.894,0.894,0.9022,0.9089,0.9089,0.9184,0.9245,0.9245,1.094,1.195,1.1846,1.3862,1.5133,1.5199,1.5738,1.6168,1.6159,1.6398,1.6547,1.663,1.711,1.737,1.737,1.7443,1.7479,1.7479,1.7479,1.7479,1.7479,1.7479,1.7479,1.7373,1.7373,1.7138,1.6738,1.6229,1.5682,1.5175,1.4691,1.4493,1.4493,1.3305,1.363,1.4385,1.3176,1.2852,1.2772,1.1824,1.2114,1.2456,1.0634,0.9889,1.0076,1.1017,1.1503,1.1972,1.2698,1.3729,1.4845,1.6413,1.689,1.6903,1.6537,1.6891,1.702,1.6655,1.7126,1.7479,1.7479,1.7479,1.7479,1.7479,1.7479,1.7479,1.7479,1.7479,1.7479,1.7479,1.7126,1.6239,1.459,1.2207,1.0777,1.0487,1.0636,1.0717,1.0717,1.0717,1.0717,1.0717,1.0717,1.0585,1.0452,1.0059,0.9787,0.9642,0.9349,0.9045,0.8868,0.8285,0.829,0.8579,0.7425,0.7276,0.7711,0.7131,0.699,0.699,0.699,0.7031,0.708,0.8823,0.894,0.894,0.894,0.8988,0.9022,0.9022,0.915,0.9245,0.9245,0.932,0.9613,1.0069,1.1667,1.2927,1.326,1.5058,1.6159,1.6273,1.6606,1.6851,1.7006,1.7006,1.7006,1.7006,1.7277,1.7479,1.7479,1.7479,1.7479,1.7479,1.7479,1.7479,1.7256,1.7256,1.7244,1.7126,1.7126,1.6903,1.6632,1.6115,1.5682,1.5175,1.4691,1.4504,1.4493,1.3846,1.4288,1.5041,1.4277,1.4007,1.4014,1.3578,1.3615,1.3695,1.2203,1.1077,1.0755,1.2153,1.2463,1.266,1.3308,1.4541,1.5926,1.6887,1.7065,1.6903,1.6785,1.6903,1.6903,1.6785,1.7126,1.7479,1.7479,1.7479,1.7479,1.7479,1.7479,1.7479,1.7479,1.7479,1.7479,1.7479,1.7575,1.6691,1.4309,1.2919,1.1675,1.0575,1.067,1.0717,1.0717,1.0717,1.0717,1.0717,1.0778,1.0778,1.0724,1.0522,1.0391,1.048,1.0248,0.9953,0.9735,0.9296,0.9157,0.9157,0.829,0.8,0.7996,0.7566,0.7276,0.699,0.699,0.7023,0.7076,0.8823,0.894,0.894,0.8954,0.9062,0.9157,0.9171,0.9306,0.9401,0.9401,0.9531,0.9997,1.1256,1.2515,1.3546,1.4468,1.5932,1.6887,1.7129,1.7346,1.7479,1.7479,1.7479,1.7479,1.7479,1.7479,1.7479,1.7479,1.7479,1.7479,1.7479,1.7479,1.7373,1.702,1.702,1.6785,1.6537,1.6537,1.6312,1.6042,1.5658,1.523,1.495,1.4374,1.4396,1.46,1.46,1.4945,1.5409,1.5206,1.527,1.5521,1.6086,1.5241,1.421,1.454,1.2584,1.064,1.2443,1.2673,1.273,1.4509,1.5952,1.695,1.7038,1.6949,1.6914,1.6938,1.6938,1.6938,1.6938,1.7291,1.7515,1.7515,1.7503,1.7491,1.7515,1.7503,1.7479,1.7479,1.7479,1.7491,1.7515,1.7649,1.6898,1.4808,1.4473,1.3276,1.0975,1.0717,1.0717,1.0717,1.0717,1.0717,1.0717,1.0873,1.088,1.0744,1.1043,1.1185,1.1192,1.1484,1.1181,1.0599,1.0599,1.0167,0.9446,0.9302,0.8868,0.8285,0.8285,0.7856,0.7135,0.7135,0.7144,0.7185,0.8823,0.894,0.8974,0.9089,0.913,0.9191,0.9313,0.9462,0.9557,0.9557,1.0487,1.128,1.163,1.3641,1.5066,1.5301,1.6529,1.7394,1.7394,1.7455,1.7479,1.7479,1.7479,1.7479,1.7479,1.7479,1.7479,1.7479,1.7479,1.7479,1.7479,1.7479,1.7479,1.7373,1.7138,1.6903,1.6903,1.6655,1.6419,1.6385,1.5875,1.5558,1.5175,1.4691,1.4504,1.46,1.46,1.4939,1.547,1.5555,1.5795,1.6023,1.584,1.5736,1.5473,1.4241,1.2924,1.2052,1.3218,1.3117,1.3076,1.5308,1.632,1.6586,1.668,1.6483,1.6369,1.656,1.6473,1.6594,1.6834,1.7194,1.7434,1.7434,1.7505,1.7433,1.741,1.7268,1.7256,1.7479,1.7009,1.6973,1.7768,1.7222,1.6642,1.6234,1.4355,1.2906,1.2421,1.1247,1.0717,1.0717,1.0717,1.0717,1.0717,1.0873,1.0934,1.09,1.1199,1.1341,1.1348,1.1538,1.1476,1.1325,1.0743,1.075,1.1038,0.974,0.959,0.9879,0.9302,0.9013,0.8724,0.814,0.7957,0.7972,0.9802,0.9482,0.9532,1.0924,1.0685,1.0316,1.0398,1.0554,1.0426,0.9834,1.0861,1.1993,1.2586,1.4381,1.5817,1.6408,1.7126,1.7479,1.7479,1.7479,1.7479,1.7479,1.7479,1.7479,1.7479,1.7479,1.7479,1.7479,1.7479,1.7479,1.7479,1.7479,1.7361,1.7256,1.702,1.6785,1.656,1.6431,1.6245,1.6087,1.5591,1.5378,1.5367,1.4768,1.468,1.48,1.4922,1.5254,1.5624,1.5875,1.6058,1.6172,1.5941,1.5966,1.5818,1.4772,1.3688,1.2993,1.4214,1.3881,1.3712,1.5676,1.6147,1.6238,1.646,1.6419,1.6286,1.6529,1.6641,1.673,1.6975,1.7219,1.7352,1.7352,1.7358,1.7385,1.7155,1.704,1.6912,1.702,1.7008,1.7349,1.8227,1.7882,1.7323,1.6786,1.4966,1.3473,1.2816,1.1505,1.0717,1.0717,1.0717,1.0717,1.0717,1.0941,1.105,1.1056,1.128,1.1389,1.1396,1.1552,1.1619,1.1619,1.1038,1.0894,1.1188,1.0462,1.0167,1.0167,1.0023,0.9446,0.8719,0.8285,0.7984,0.7884,1.0923,1.0408,1.0591,1.2813,1.2418,1.1837,1.1871,1.1774,1.139,1.0543,1.139,1.2586,1.3904,1.5213,1.6408,1.7361,1.7479,1.7479,1.7479,1.7479,1.7479,1.7479,1.7479,1.7479,1.7479,1.7479,1.7361,1.7361,1.7361,1.7361,1.7361,1.7361,1.7244,1.702,1.6903,1.6667,1.6205,1.6205,1.6049,1.5687,1.5248,1.5142,1.5365,1.4811,1.4822,1.5077,1.5277,1.5592,1.5988,1.6092,1.6172,1.616,1.623,1.5932,1.5681,1.5365,1.4406,1.3546,1.4922,1.45,1.4117,1.561,1.5848,1.5832,1.6312,1.6406,1.6442,1.6729,1.6809,1.6863,1.7247,1.7247,1.7247,1.7247,1.7337,1.7222,1.6884,1.6816,1.6714,1.6629,1.7229,1.7824,1.8512,1.8722,1.8336,1.7411,1.5834,1.4399,1.3252,1.1548,1.0744,1.0717,1.0744,1.0758,1.0758,1.1029,1.1172,1.1206,1.1355,1.143,1.1436,1.1558,1.1619,1.1476,1.1188,1.09,1.09,1.1044,1.0606,1.0167,1.0455,0.9602,0.8464,0.8207,0.7743,0.7297,1.0948,1.1968,1.2822,1.3268,1.3208,1.3175,1.3361,1.2457,1.1993,1.3066,1.3306,1.3904,1.5213,1.6526,1.7361,1.7479,1.7479,1.7479,1.7479,1.7479,1.7479,1.7479,1.7479,1.7479,1.7479,1.7256,1.702,1.702,1.702,1.6903,1.6655,1.6655,1.6785,1.702,1.6655,1.6667,1.6903,1.6537,1.6283,1.6045,1.5665,1.551,1.5288,1.495,1.5063,1.5299,1.5332,1.5807,1.6459,1.6494,1.6621,1.6586,1.6249,1.5881,1.5452,1.5099,1.4309,1.3605,1.4357,1.4167,1.3986,1.5046,1.5514,1.5731,1.597,1.6046,1.6132,1.6339,1.6577,1.674,1.7119,1.713,1.713,1.713,1.7202,1.7168,1.6876,1.6564,1.6661,1.7229,1.803,1.8476,1.8285,1.8752,1.8875,1.8603,1.6326,1.4725,1.4494,1.2112,1.086,1.0724,1.0846,1.0914,1.0914,1.1084,1.1226,1.1362,1.1518,1.1586,1.1592,1.1613,1.1476,1.1044,1.1044,1.0894,1.0599,1.0894,1.09,1.0894,1.0599,1.0239,0.9628,0.8328,0.765,0.7386,1.3279,1.3375,1.3848,1.5365,1.5056,1.4616,1.4718,1.4262,1.3784,1.3665,1.4262,1.4976,1.5569,1.6762,1.7479,1.7479,1.7479,1.7479,1.7479,1.7479,1.7479,1.7479,1.7373,1.7256,1.7256,1.6903,1.6667,1.656,1.6667,1.6655,1.6537,1.6537,1.6537,1.6667,1.6537,1.6549,1.6442,1.6312,1.6166,1.5803,1.544,1.5319,1.5456,1.5106,1.5194,1.5794,1.593,1.6391,1.6821,1.6437,1.6391,1.6321,1.5927,1.5701,1.5589,1.5342,1.5021,1.4869,1.5377,1.5264,1.5194,1.572,1.5959,1.6101,1.6097,1.6247,1.6377,1.6484,1.6689,1.685,1.6979,1.6979,1.6979,1.6979,1.7036,1.6838,1.6571,1.6585,1.6931,1.7807,1.8155,1.8482,1.8625,1.8872,1.8735,1.7922,1.6004,1.4603,1.3729,1.188,1.0955,1.0968,1.1036,1.107,1.107,1.1219,1.1321,1.1396,1.1545,1.1619,1.1619,1.1619,1.1476,1.1332,1.0894,1.0599,1.0455,1.0599,1.075,1.0756,1.1121,1.0651,0.9601,0.8098,0.7846,0.8017]}]]